[[{"header":{"parameterUnit":"m.s-1","parameterCategory":1,"la1":30.6,"la2":28.766,"lo1":-90.7593,"lo2":-88.6598,"dy":0.0162,"dx":0.0183,"nx":116,"ny":114,"refTime":"2024-03-05T06:00:00:Z","depth":0,"parameterNumber":2,"parameterNumberName":"U-component_of_WINDS"},"data":[0.0,0.0,0.0,0.0,0.0,0.0,0.0,0.0,0.0,0.0,0.0,0.0,0.0,0.0,0.0,0.0,0.0,0.0,0.0,0.0,0.0,0.0,0.0,0.0,0.0,0.0,0.0,0.0,0.0,0.0,0.0,0.0,0.0,0.0,0.0,0.0,0.0,0.0,0.0,0.0,0.0,0.0,0.0,0.0,0.0,0.0,0.0,0.0,0.0,0.0,0.0,0.0,0.0,0.0,0.0,0.0,0.0,0.0,0.0,0.0,0.0,0.0,0.0,0.0,0.0,0.0,0.0,0.0,0.0,0.0,0.0,0.0,0.0,0.0,0.0,0.0,0.0,0.0,0.0,0.0,0.0,0.0,0.0,0.0,0.0,0.0,0.0,0.0,0.0,0.0,0.0,0.0,0.0,0.0,0.0,0.0,0.0,0.0,0.0,0.0,0.0,0.0,0.0,0.0,0.0,0.0,0.0,0.0,0.0,0.0,0.0,0.0,0.0,0.0,0.0,0.0,0.0,0.0,0.0,0.0,0.0,0.0,0.0,0.0,0.0,0.0,0.0,0.0,0.0,0.0,0.0,0.0,0.0,0.0,0.0,0.0,0.0,0.0,0.0,0.0,0.0,0.0,0.0,0.0,0.0,0.0,0.0,0.0,0.0,0.0,0.0,0.0,0.0,0.0,0.0,0.0,0.0,0.0,0.0,0.0,0.0,0.0,0.0,0.0,0.0,0.0,0.0,0.0,0.0,0.0,0.0,0.0,0.0,0.0,0.0,0.0,0.0,0.0,0.0,0.0,0.0,0.0,0.0,0.0,0.0,0.0,0.0,0.0,0.0,0.0,0.0,0.0,0.0,0.0,0.0,0.0,0.0,0.0,0.0,0.0,0.0,0.0,0.0,0.0,0.0,0.0,0.0,0.0,0.0,0.0,0.0,0.0,0.0,0.0,0.0,0.0,0.0,0.0,0.0,0.0,0.0,0.0,0.0,0.0,0.0,0.0,0.0,0.0,0.0,0.0,0.0,0.0,0.0,0.0,0.0,0.0,0.0,0.0,0.0,0.0,0.0,0.0,0.0,0.0,0.0,0.0,0.0,0.0,0.0,0.0,0.0,0.0,0.0,0.0,0.0,0.0,0.0,0.0,0.0,0.0,0.0,0.0,0.0,0.0,0.0,0.0,0.0,0.0,0.0,0.0,0.0,0.0,0.0,0.0,0.0,0.0,0.0,0.0,0.0,0.0,0.0,0.0,0.0,0.0,0.0,0.0,0.0,0.0,0.0,0.0,0.0,0.0,0.0,0.0,0.0,0.0,0.0,0.0,0.0,0.0,0.0,0.0,0.0,0.0,0.0,0.0,0.0,0.0,0.0,0.0,0.0,0.0,0.0,0.0,0.0,0.0,0.0,0.0,0.0,0.0,0.0,0.0,0.0,0.0,0.0,0.0,0.0,0.0,0.0,0.0,0.0,0.0,0.0,0.0,0.0,0.0,0.0,0.0,0.0,0.0,0.0,0.0,0.0,0.0,0.0,0.0,0.0,0.0,0.0,0.0,0.0,0.0,0.0,0.0,0.0,0.0,0.0,0.0,0.0,0.0,0.0,0.0,0.0,0.0,0.0,0.0,0.0,0.0,0.0,0.0,0.0,0.0,0.0,0.0,0.0,0.0,0.0,0.0,0.0,0.0,0.0,0.0,0.0,0.0,0.0,0.0,0.0,0.0,0.0,0.0,0.0,0.0,0.0,0.0,0.0,0.0,0.0,0.0,0.0,0.0,0.0,0.0,0.0,0.0,0.0,0.0,0.0,0.0,0.0,0.0,0.0,0.0,0.0,0.0,0.0,0.0,0.0,0.0,0.0,0.0,0.0,0.0,0.0,0.0,0.0,0.0,0.0,0.0,0.0,0.0,0.0,0.0,0.0,0.0,0.0,0.0,0.0,0.0,0.0,0.0,0.0,0.0,0.0,0.0,0.0,0.0,0.0,0.0,0.0,0.0,0.0,0.0,0.0,0.0,0.0,0.0,0.0,0.0,0.0,0.0,0.0,0.0,0.0,0.0,0.0,0.0,0.0,0.0,0.0,0.0,0.0,0.0,0.0,0.0,0.0,0.0,0.0,0.0,0.0,0.0,0.0,0.0,0.0,0.0,0.0,0.0,0.0,0.0,0.0,0.0,0.0,0.0,0.0,0.0,0.0,0.0,0.0,0.0,0.0,0.0,0.0,0.0,0.0,0.0,0.0,0.0,0.0,0.0,0.0,0.0,0.0,0.0,0.0,0.0,0.0,0.0,0.0,0.0,0.0,0.0,0.0,0.0,0.0,0.0,0.0,0.0,0.0,0.0,0.0,0.0,0.0,0.0,0.0,0.0,0.0,0.0,0.0,0.0,0.0,0.0,0.0,0.0,0.0,0.0,0.0,0.0,0.0,0.0,0.0,0.0,0.0,0.0,0.0,0.0,0.0,0.0,0.0,0.0,0.0,0.0,0.0,0.0,0.0,0.0,0.0,0.0,0.0,0.0,0.0,0.0,0.0,0.0,0.0,0.0,0.0,0.0,0.0,0.0,0.0,0.0,0.0,0.0,0.0,0.0,0.0,0.0,0.0,0.0,0.0,0.0,0.0,0.0,0.0,0.0,0.0,0.0,0.0,0.0,0.0,0.0,0.0,0.0,0.0,0.0,0.0,0.0,0.0,0.0,0.0,0.0,0.0,0.0,0.0,0.0,0.0,0.0,0.0,0.0,0.0,0.0,0.0,0.0,0.0,0.0,0.0,0.0,0.0,0.0,0.0,0.0,0.0,0.0,0.0,0.0,0.0,0.0,0.0,0.0,0.0,0.0,0.0,0.0,0.0,0.0,0.0,0.0,0.0,0.0,0.0,0.0,0.0,0.0,0.0,0.0,0.0,0.0,0.0,0.0,0.0,0.0,0.0,0.0,0.0,0.0,0.0,0.0,0.0,0.0,0.0,0.0,0.0,0.0,0.0,0.0,0.0,0.0,0.0,0.0,0.0,0.0,0.0,0.0,0.0,0.0,0.0,0.0,0.0,0.0,0.0,0.0,0.0,0.0,0.0,0.0,0.0,0.0,0.0,0.0,0.0,0.0,0.0,0.0,0.0,0.0,0.0,0.0,0.0,0.0,0.0,0.0,0.0,0.0,0.0,0.0,0.0,0.0,0.0,0.0,0.0,0.0,0.0,0.0,0.0,0.0,0.0,0.0,0.0,0.0,0.0,0.0,0.0,0.0,0.0,0.0,0.0,0.0,0.0,0.0,0.0,0.0,0.0,0.0,0.0,0.0,0.0,0.0,0.0,0.0,0.0,0.0,0.0,0.0,0.0,0.0,0.0,0.0,0.0,0.0,0.0,0.0,0.0,0.0,0.0,0.0,0.0,0.0,0.0,0.0,0.0,0.0,0.0,0.0,0.0,0.0,0.0,0.0,0.0,0.0,0.0,0.0,0.0,0.0,0.0,0.0,0.0,0.0,0.0,0.0,0.0,0.0,0.0,0.0,0.0,0.0,0.0,0.0,0.0,0.0,0.0,0.0,0.0,0.0,0.0,0.0,0.0,0.0,0.0,0.0,0.0,0.0,0.0,0.0,0.0,0.0,0.0,0.0,0.0,0.0,0.0,0.0,0.0,0.0,0.0,0.0,0.0,0.0,0.0,0.0,0.0,0.0,0.0,0.0,0.0,0.0,0.0,0.0,0.0,0.0,0.0,0.0,0.0,0.0,0.0,0.0,0.0,0.0,0.0,0.0,0.0,0.0,0.0,0.0,0.0,0.0,0.0,0.0,0.0,0.0,0.0,0.0,0.0,0.0,0.0,0.0,0.0,0.0,0.0,0.0,0.0,0.0,0.0,0.0,0.0,0.0,0.0,0.0,0.0,0.0,0.0,0.0,0.0,0.0,0.0,0.0,0.0,0.0,0.0,0.0,0.0,0.0,0.0,0.0,0.0,0.0,0.0,0.0,0.0,0.0,0.0,0.0,0.0,0.0,0.0,0.0,0.0,0.0,0.0,0.0,0.0,0.0,0.0,0.0,0.0,0.0,0.0,0.0,0.0,0.0,0.0,0.0,0.0,0.0,0.0,0.0,0.0,0.0,0.0,0.0,0.0,0.0,0.0,0.0,0.0,0.0,0.0,0.0,0.0,0.0,0.0,0.0,0.0,0.0,0.0,0.0,0.0,0.0,0.0,0.0,0.0,0.0,0.0,0.0,0.0,0.0,0.0,0.0,0.0,0.0,0.0,0.0,0.0,0.0,0.0,0.0,0.0,0.0,0.0,0.0,0.0,0.0,0.0,0.0,0.0,0.0,0.0,0.0,0.0,0.0,0.0,0.0,0.0,0.0,0.0,0.0,0.0,0.0,0.0,0.0,0.0,0.0,0.0,0.0,0.0,0.0,0.0,0.0,0.0,0.0,0.0,0.0,0.0,0.0,0.0,0.0,0.0,0.0,0.0,0.0,0.0,0.0,0.0,0.0,0.0,0.0,0.0,0.0,0.0,0.0,0.0,0.0,0.0,0.0,0.0,0.0,0.0,0.0,0.0,0.0,0.0,0.0,0.0,0.0,0.0,0.0,0.0,0.0,0.0,0.0,0.0,0.0,0.0,0.0,0.0,0.0,0.0,0.0,0.0,0.0,0.0,0.0,0.0,0.0,0.0,0.0,0.0,0.0,0.0,0.0,0.0,0.0,0.0,0.0,0.0,0.0,0.0,0.0,0.0,0.0,0.0,0.0,0.0,0.0,0.0,0.0,0.0,0.0,0.0,0.0,0.0,0.0,0.0,0.0,0.0,0.0,0.0,0.0,0.0,0.0,0.0,0.0,0.0,0.0,0.0,0.0,0.0,0.0,0.0,0.0,0.0,0.0,0.0,0.0,0.0,0.0,0.0,0.0,0.0,0.0,0.0,0.0,0.0,0.0,0.0,0.0,0.0,0.0,0.0,0.0,0.0,0.0,0.0,0.0,0.0,0.0,0.0,0.0,0.0,0.0,0.0,0.0,0.0,0.0,0.0,0.0,0.0,0.0,0.0,0.0,0.0,0.0,0.0,0.0,0.0,0.0,0.0,0.0,0.0,0.0,0.0,0.0,0.0,0.0,0.0,0.0,0.0,0.0,0.0,0.0,0.0,0.0,0.0,0.0,0.0,0.0,0.0,0.0,0.0,0.0,0.0,0.0,0.0,0.0,0.0,0.0,0.0,0.0,0.0,0.0,0.0,0.0,0.0,0.0,0.0,0.0,0.0,0.0,0.0,0.0,0.0,0.0,0.0,0.0,0.0,0.0,0.0,0.0,0.0,0.0,0.0,0.0,0.0,0.0,0.0,0.0,0.0,0.0,0.0,0.0,0.0,0.0,0.0,0.0,0.0,0.0,0.0,0.0,0.0,0.0,0.0,0.0,0.0,0.0,0.0,0.0,0.0,0.0,0.0,0.0,0.0,0.0,0.0,0.0,0.0,0.0,0.0,0.0,0.0,0.0,0.0,0.0,0.0,0.0,0.0,0.0,0.0,0.0,0.0,0.0,0.0,0.0,0.0,0.0,0.0,0.0,0.0,0.0,0.0,0.0,0.0,0.0,0.0,0.0,0.0,0.0,0.0,0.0,0.0,0.0,0.0,0.0,0.0,0.0,0.0,0.0,0.0,0.0,0.0,0.0,0.0,0.0,0.0,0.0,0.0,0.0,0.0,0.0,0.0,0.0,0.0,0.0,0.0,0.0,0.0,0.0,0.0,0.0,0.0,0.0,0.0,0.0,0.0,0.0,0.0,0.0,0.0,0.0,0.0,0.0,0.0,0.0,0.0,0.0,0.0,0.0,0.0,0.0,0.0,0.0,0.0,0.0,0.0,0.0,0.0,0.0,0.0,0.0,0.0,0.0,0.0,0.0,0.0,0.0,0.0,0.0,0.0,0.0,0.0,0.0,0.0,0.0,0.0,0.0,0.0,0.0,0.0,0.0,0.0,0.0,0.0,0.0,0.0,0.0,0.0,0.0,0.0,0.0,0.0,0.0,0.0,0.0,0.0,0.0,0.0,0.0,0.0,0.0,0.0,0.0,0.0,0.0,0.0,0.0,0.0,0.0,0.0,0.0,0.0,0.0,0.0,0.0,-3.1327,0.0,0.0,0.0,0.0,0.0,0.0,0.0,0.0,0.0,0.0,0.0,0.0,0.0,0.0,0.0,0.0,0.0,0.0,0.0,0.0,0.0,0.0,0.0,0.0,0.0,0.0,0.0,0.0,0.0,0.0,0.0,0.0,0.0,0.0,0.0,-3.4532,-3.3502,-3.2981,-3.298,-3.3206,-3.3753,-3.4611,-3.424,-3.2973,-3.1063,0.0,0.0,0.0,0.0,0.0,0.0,0.0,0.0,0.0,0.0,0.0,0.0,0.0,0.0,0.0,0.0,0.0,0.0,0.0,0.0,0.0,0.0,0.0,0.0,0.0,0.0,0.0,0.0,0.0,0.0,0.0,0.0,0.0,0.0,0.0,0.0,0.0,0.0,0.0,0.0,0.0,0.0,0.0,0.0,0.0,0.0,0.0,0.0,0.0,0.0,0.0,0.0,0.0,0.0,0.0,0.0,0.0,0.0,0.0,0.0,0.0,0.0,0.0,0.0,0.0,0.0,0.0,0.0,0.0,0.0,0.0,-3.1201,0.0,0.0,0.0,0.0,0.0,0.0,0.0,0.0,0.0,0.0,0.0,0.0,0.0,0.0,0.0,0.0,0.0,0.0,0.0,0.0,0.0,0.0,0.0,-3.4951,-3.5011,-3.4713,-3.4951,-3.516,0.0,0.0,0.0,0.0,0.0,-3.3365,-3.3484,-3.3395,-3.3119,-3.2679,-3.425,-3.5503,-3.6461,-3.6647,-3.5541,-3.3332,-3.2091,0.0,0.0,0.0,0.0,0.0,0.0,0.0,0.0,0.0,0.0,0.0,0.0,0.0,0.0,0.0,0.0,0.0,0.0,0.0,0.0,0.0,0.0,0.0,0.0,0.0,0.0,0.0,0.0,0.0,0.0,0.0,0.0,0.0,0.0,0.0,0.0,0.0,0.0,0.0,0.0,0.0,0.0,0.0,0.0,0.0,0.0,0.0,0.0,0.0,0.0,0.0,0.0,0.0,0.0,0.0,0.0,0.0,0.0,0.0,0.0,0.0,0.0,0.0,-3.3012,-3.3535,-3.4058,-3.4476,-3.4721,-3.4679,-3.2979,-3.203,-3.1681,0.0,0.0,0.0,0.0,0.0,0.0,0.0,0.0,0.0,0.0,0.0,0.0,0.0,0.0,0.0,0.0,0.0,0.0,0.0,0.0,0.0,0.0,-3.4412,-3.4203,-3.528,-3.4382,-3.3754,-3.3754,0.0,-3.2766,-3.2766,-3.2677,-3.2916,-3.3484,-3.2946,-3.2856,-3.3362,-3.5816,-3.7227,-3.7631,-3.8664,-3.8824,-3.8049,-3.4912,-3.3405,-3.3143,0.0,0.0,0.0,0.0,0.0,0.0,0.0,0.0,0.0,0.0,0.0,0.0,0.0,0.0,0.0,0.0,0.0,0.0,0.0,0.0,0.0,0.0,0.0,0.0,0.0,0.0,0.0,0.0,0.0,0.0,0.0,0.0,0.0,0.0,0.0,0.0,0.0,0.0,0.0,0.0,0.0,-3.1026,-3.1078,0.0,0.0,0.0,0.0,0.0,0.0,0.0,0.0,0.0,0.0,0.0,0.0,0.0,-3.2725,-3.3247,-3.4241,-3.4763,-3.4842,-3.5391,-3.5704,-3.5783,-3.5835,-3.6043,-3.6289,-3.5494,0.0,-3.2639,-3.21,0.0,0.0,0.0,0.0,0.0,0.0,0.0,0.0,0.0,0.0,0.0,0.0,0.0,0.0,0.0,0.0,0.0,0.0,0.0,0.0,0.0,-3.507,-3.525,-3.5489,-3.6327,-3.6357,-3.525,-3.4921,-3.4233,-3.3125,-3.2318,-3.2079,-3.2348,-3.2437,-3.3544,-3.5699,-3.8332,-4.0084,-4.0985,-4.2199,-4.2465,-4.1849,-4.0306,-3.8199,-3.5648,-3.3899,0.0,0.0,0.0,0.0,0.0,0.0,0.0,0.0,0.0,0.0,0.0,0.0,0.0,0.0,0.0,0.0,0.0,0.0,0.0,0.0,0.0,0.0,0.0,0.0,0.0,0.0,0.0,0.0,0.0,0.0,0.0,0.0,0.0,0.0,0.0,0.0,0.0,0.0,0.0,-3.1548,-3.1836,-3.1496,-3.1967,-3.2097,0.0,0.0,0.0,0.0,0.0,0.0,0.0,0.0,0.0,-3.3744,-3.4319,-3.4894,-3.5495,-3.6332,-3.709,-3.7717,-3.7952,-3.8423,-3.9024,-3.9024,-3.8903,-3.8756,-3.8808,-3.7686,-3.5596,-3.3624,-3.2057,-3.0817,0.0,0.0,0.0,0.0,0.0,-3.0733,0.0,0.0,0.0,0.0,0.0,0.0,0.0,0.0,0.0,0.0,0.0,0.0,-3.5252,-3.6334,-3.7053,-3.7015,-3.8482,-3.8811,-3.7345,-3.6447,-3.522,-3.3574,-3.2198,-3.1511,-3.1511,-3.2826,-3.4981,-3.7913,-4.0756,-4.2762,-4.4009,-4.4896,-4.4924,-4.4228,-4.393,-4.1702,-3.8043,-3.6307,-3.4748,-3.3273,0.0,0.0,0.0,0.0,0.0,0.0,0.0,0.0,0.0,0.0,0.0,0.0,0.0,0.0,0.0,0.0,0.0,0.0,0.0,0.0,0.0,0.0,0.0,0.0,0.0,0.0,0.0,0.0,0.0,0.0,0.0,0.0,0.0,0.0,0.0,0.0,0.0,-3.2097,-3.2646,-3.1876,-3.2751,-3.3012,0.0,0.0,0.0,0.0,0.0,0.0,-3.33,-3.3483,-3.4293,-3.5913,-3.6645,-3.7273,-3.7874,-3.8632,-3.9416,-4.0278,-4.0409,-4.0932,-4.1742,-4.1742,-4.1535,-4.1147,-4.1511,-4.0661,-3.8851,-3.58,-3.3715,-3.2424,-3.1703,-3.111,-3.0683,-3.1085,-3.1662,-3.229,0.0,0.0,0.0,0.0,0.0,0.0,0.0,0.0,0.0,0.0,0.0,-3.5572,-3.7079,-3.8056,-3.9294,-4.0973,-4.0068,-3.9379,-3.9254,-3.6327,-3.4294,-3.3514,-3.2198,-3.1511,-3.1511,-3.4651,-3.7285,-3.932,-4.2581,-4.4667,-4.5649,-4.5352,-4.4948,-4.4516,-4.3535,-4.1963,-4.0014,-3.8355,-3.6368,-3.414,-3.1887,0.0,0.0,0.0,0.0,0.0,0.0,0.0,0.0,0.0,0.0,0.0,0.0,0.0,0.0,0.0,0.0,0.0,0.0,0.0,0.0,0.0,0.0,0.0,0.0,0.0,0.0,0.0,0.0,0.0,0.0,0.0,0.0,0.0,0.0,0.0,0.0,0.0,0.0,-3.1928,-3.3796,0.0,0.0,0.0,0.0,-3.3456,-3.3456,-3.3953,-3.5103,-3.5652,-3.6488,-3.7743,-3.8867,-3.9703,-4.0226,-4.1376,-4.2028,-4.2107,-4.2579,-4.2892,-4.2944,-4.2944,-4.3049,-4.3226,-4.276,-4.2344,-4.1747,-3.8951,-3.6472,-3.45,-3.3947,-3.3395,-3.296,-3.2943,-3.3646,-3.455,0.0,0.0,0.0,0.0,0.0,0.0,0.0,0.0,-3.57,-3.5879,-3.639,-3.7107,-3.8151,-3.9944,-4.1348,-4.1991,-4.2372,-4.2043,-4.0756,-3.7973,-3.5878,-3.4831,-3.2676,-3.2318,-3.4053,-3.6896,-3.9738,-4.2581,-4.5454,-4.7463,-4.8666,-4.9357,-4.961,-4.9475,-4.9536,-4.8399,-4.6205,-4.1645,-3.8421,-3.6159,-3.4218,-3.2334,0.0,0.0,0.0,0.0,0.0,0.0,0.0,0.0,0.0,0.0,0.0,0.0,0.0,0.0,0.0,0.0,0.0,0.0,0.0,0.0,0.0,0.0,0.0,0.0,0.0,0.0,0.0,0.0,0.0,0.0,0.0,0.0,0.0,0.0,0.0,0.0,0.0,-3.4162,-3.6096,0.0,-3.56,-3.5652,-3.5783,-3.5783,-3.6149,-3.6854,-3.8004,-3.8266,-3.905,-4.0592,-4.1402,-4.2239,-4.318,-4.3598,-4.4016,-4.4382,-4.4199,-4.4121,-4.4121,-4.4121,-4.3963,-4.37,-4.3882,-4.3277,-4.2131,-4.1465,-3.9573,-3.7045,-3.5949,-3.5378,-3.5223,-3.5223,-3.5655,-3.6307,0.0,0.0,0.0,0.0,0.0,0.0,0.0,0.0,-3.5949,-3.6309,-3.7425,-3.8655,-3.9805,-4.2256,-4.3858,-4.4058,-4.4197,-4.3479,-4.1504,-3.8482,-3.6178,-3.4891,-3.3365,-3.3784,-3.6417,-3.9254,-4.2252,-4.5334,-4.7758,-4.9494,-5.0554,-5.1298,-5.1628,-5.1687,-5.217,-5.1583,-4.9968,-4.5518,-4.1844,-3.8776,-3.6246,-3.4352,-3.2829,0.0,0.0,0.0,0.0,0.0,0.0,0.0,0.0,0.0,0.0,0.0,0.0,0.0,0.0,0.0,0.0,0.0,0.0,0.0,0.0,0.0,0.0,0.0,0.0,0.0,0.0,0.0,0.0,0.0,0.0,0.0,0.0,0.0,0.0,0.0,-3.7168,-3.6802,-3.8762,-3.9703,-3.8579,-3.8449,-3.8449,-3.8449,-3.8841,-3.9547,-4.0697,-4.0749,-4.1559,-4.3284,-4.3702,-4.4251,-4.5036,-4.4981,-4.5085,-4.5268,-4.4905,-4.4668,-4.4668,-4.4668,-4.4513,-4.4173,-4.4565,-4.4035,-4.2933,-4.3005,-4.164,-3.9499,-3.8038,-3.7262,-3.6958,-3.6958,-3.7262,-3.7713,0.0,0.0,0.0,0.0,0.0,0.0,0.0,-3.5922,-3.5891,-3.6886,-3.8324,-4.0107,-4.2218,-4.497,-4.6834,-4.7322,-4.5514,-4.3509,-4.1572,-3.7704,-3.4921,-3.3574,-3.4234,-3.5851,-3.8452,-4.1743,-4.4695,-4.7369,-4.9299,-5.0584,-5.1212,-5.0877,-5.0755,-5.0763,-5.0929,-5.1045,-5.0985,-4.9771,-4.6628,-4.2105,-3.7989,-3.6629,-3.6682,0.0,0.0,0.0,0.0,0.0,0.0,0.0,0.0,0.0,0.0,0.0,0.0,0.0,0.0,0.0,0.0,0.0,0.0,0.0,0.0,0.0,0.0,0.0,0.0,0.0,0.0,0.0,0.0,0.0,0.0,0.0,0.0,0.0,-3.5391,-3.7874,-3.9703,-3.9756,-4.1742,-4.2683,-4.1585,-4.1455,-4.1455,-4.1455,-4.1455,-4.1951,-4.3075,-4.3127,-4.3912,-4.5555,-4.5663,-4.5663,-4.5663,-4.5637,-4.5323,-4.4748,-4.4694,-4.4668,-4.4668,-4.4668,-4.4668,-4.4668,-4.4668,-4.4531,-4.4206,-4.3393,-4.256,-4.1681,-4.0253,-3.9044,-3.8065,-3.8065,-3.8417,-3.8818,0.0,0.0,0.0,0.0,0.0,0.0,-3.6507,-3.6322,-3.6507,-3.7272,-3.9287,-4.1473,-4.3579,-4.6496,-4.8309,-4.826,-4.6455,-4.4399,-4.2261,-3.7973,-3.513,-3.4264,-3.6207,-3.8542,-4.1242,-4.4526,-4.704,-4.876,-5.069,-5.1738,-5.1947,-5.2821,-5.3496,-5.3971,-5.4495,-5.4982,-5.5283,-5.3698,-5.1542,-4.8718,-4.3667,-4.0935,-3.9602,0.0,0.0,0.0,0.0,0.0,0.0,0.0,0.0,0.0,0.0,0.0,0.0,0.0,0.0,0.0,0.0,0.0,0.0,0.0,0.0,0.0,0.0,0.0,0.0,0.0,0.0,0.0,0.0,0.0,0.0,0.0,-3.641,-3.7194,-3.7194,-3.9651,-4.1925,-4.318,-4.4251,-4.4957,-4.5036,-4.4696,-4.4434,-4.4434,-4.4826,-4.5192,-4.5506,-4.5532,-4.5741,-4.6238,-4.6238,-4.6238,-4.6238,-4.5846,-4.5558,-4.5375,-4.4931,-4.4668,-4.4668,-4.4668,-4.4668,-4.4668,-4.4668,-4.4422,-4.3984,-4.3775,-4.2754,-4.1386,-4.0576,-3.9848,-3.922,-3.922,-3.9346,-3.9396,0.0,0.0,0.0,0.0,0.0,0.0,-3.6507,-3.6507,-3.6783,-3.7672,-4.0021,-4.248,-4.4791,-4.7137,-4.8455,-4.824,-4.5675,-4.2973,-4.0464,-3.7015,-3.5312,-3.5829,-3.8582,-4.1332,-4.3958,-4.698,-4.9164,-5.0481,-5.1917,-5.2606,-5.2636,-5.3982,-5.482,-5.5239,-5.6166,-5.7064,-5.7819,-5.6255,-5.5469,-5.4931,-5.0627,-4.6814,-4.3389,-4.0745,-3.9746,-3.9628,-3.8507,-3.828,-3.8173,-3.5941,0.0,0.0,0.0,0.0,0.0,0.0,0.0,0.0,0.0,0.0,0.0,0.0,0.0,0.0,0.0,0.0,0.0,0.0,0.0,0.0,0.0,0.0,0.0,0.0,-3.8972,-4.0566,-4.2004,-4.3232,-4.4617,-4.6342,-4.7074,-4.7545,-4.7885,-4.7597,-4.731,-4.71,-4.7153,-4.7205,-4.7205,-4.6734,-4.6708,-4.7179,-4.697,-4.6839,-4.6839,-4.6264,-4.5976,-4.5976,-4.514,-4.4798,-4.5088,-4.4853,-4.4668,0.0,-4.446,-4.4113,-4.3653,-4.3447,-4.2636,0.0,0.0,0.0,0.0,0.0,-3.9697,-3.9622,0.0,0.0,0.0,0.0,0.0,0.0,-3.6507,-3.6507,-3.6906,-3.8063,-4.0506,-4.306,-4.5474,-4.6913,-4.7679,-4.754,-4.3904,-4.042,-3.7499,-3.5854,-3.6009,-3.828,-4.1415,-4.4267,-4.683,-4.9239,-5.1139,-5.2306,-5.2965,-5.3324,-5.3443,-5.47,-5.5388,-5.5568,-5.6705,-5.7932,-5.9009,-5.7842,-5.8297,-5.9593,-5.7265,-5.3129,-4.7929,-4.4602,-4.4163,-4.5092,-4.3398,-4.1766,-4.0281,-3.919,0.0,0.0,0.0,0.0,0.0,0.0,0.0,0.0,0.0,0.0,0.0,0.0,0.0,0.0,0.0,0.0,0.0,0.0,0.0,0.0,0.0,0.0,0.0,0.0,-4.1977,-4.467,-4.8015,-4.7728,-4.7702,-4.9191,-4.9688,-4.9923,-4.9976,-4.9923,-4.9688,-4.9218,-4.8669,-4.8355,-4.8277,0.0,0.0,0.0,0.0,-4.7362,-4.7174,-4.6787,-4.6473,-4.6264,-4.5297,-4.5062,-4.5451,-4.4903,-4.4668,-4.4642,-4.4199,-4.3804,-4.3484,-4.3018,-4.2442,-4.1808,-4.1386,-4.0601,-3.9697,-3.9697,-3.9697,0.0,0.0,0.0,0.0,0.0,0.0,0.0,-3.6569,-3.6507,-3.6969,-3.8258,-4.0347,-4.2314,-4.3912,-4.5716,-4.6803,-4.66,-4.3244,-3.994,-3.7074,-3.7691,-3.9446,-4.2409,-4.5653,-4.8293,-5.0212,-5.1798,-5.2725,-5.2995,-5.3683,-5.4281,-5.482,-5.5598,-5.6555,-5.7573,-5.7812,-5.8351,-5.9099,-5.883,-5.8347,-5.7698,-5.7342,-5.5776,-5.3427,-5.1149,-4.9799,-4.8962,-4.76,-4.7867,-4.8281,-4.4368,-4.3571,-4.3701,-4.035,-3.7711,0.0,0.0,0.0,0.0,0.0,0.0,0.0,0.0,0.0,0.0,0.0,0.0,0.0,0.0,0.0,0.0,0.0,0.0,0.0,-4.1977,-4.4642,-4.7388,-4.9923,-5.089,-5.1282,-5.1126,-5.0394,-5.008,-5.0577,-5.0185,-4.9845,-4.974,-4.9636,-4.9374,-4.893,-4.8695,0.0,-4.8198,-4.8068,-4.7571,-4.6656,-4.6996,-4.6473,-4.5062,0.0,0.0,-4.485,-4.472,-4.4668,-4.4668,-4.4617,-4.4403,-4.4131,-4.4028,-4.3501,-4.2611,-4.1188,-4.0275,-3.9697,-3.9697,-3.9697,-3.9672,0.0,0.0,0.0,0.0,0.0,0.0,-3.6538,-3.6507,-3.6846,-3.7861,-3.9801,-4.1463,-4.2479,-4.3494,-4.3881,-4.3356,-4.003,-3.7737,-3.7101,-3.8892,-4.1656,-4.5363,-4.8477,-5.0879,-5.2584,-5.398,-5.477,-5.492,-5.543,-5.5807,-5.6166,-5.6825,-5.7483,-5.8141,-5.8471,-5.8979,-5.9608,-5.9608,-5.9636,-5.9696,-5.9696,-5.9292,-5.8327,-5.5397,-5.3811,-5.3084,-5.2097,-5.1738,-5.1242,-4.8223,-4.7229,-4.68,-4.414,-4.1674,-3.9857,0.0,0.0,0.0,0.0,0.0,0.0,0.0,0.0,0.0,0.0,0.0,0.0,0.0,0.0,-3.7957,-3.8215,0.0,-4.2265,-4.514,-4.731,-4.9531,-5.2119,-5.2746,-5.272,-5.2119,-5.1544,-5.1204,-5.1204,-5.0917,-5.0734,-5.0734,-5.0498,-5.008,-4.9505,-4.9244,-4.8799,-4.8198,-4.8172,-4.7911,-4.7336,-4.7336,-4.6834,-4.5973,-4.5767,-4.5454,-4.5111,-4.4853,-4.4668,-4.4722,-4.4434,-4.4196,-4.4089,-4.3927,-4.3429,-4.2675,-4.1713,-4.0944,-4.0256,-3.9849,-3.9697,-3.9697,0.0,0.0,0.0,0.0,0.0,0.0,0.0,-3.6784,-3.7123,-3.78,-3.9398,-4.0659,-4.1155,-4.1186,-4.0624,-3.9225,-3.714,-3.6437,-3.7787,-4.0771,-4.4281,-4.8301,-5.1213,-5.3347,-5.4752,-5.5943,-5.6654,-5.6858,-5.7062,-5.7258,-5.7408,-5.7872,-5.8201,-5.8351,-5.886,-5.9398,-5.9907,-5.9907,-6.0505,-6.1523,-6.1642,-6.1702,-6.135,-5.8291,-5.7065,-5.6795,-5.5748,-5.4012,-5.2007,-5.0644,-4.9284,-4.7967,-4.716,-4.5544,-4.3808,-4.301,-4.1261,0.0,0.0,0.0,0.0,0.0,0.0,0.0,0.0,-3.781,-3.8661,-3.7644,-3.9156,-4.0841,-4.1338,-4.3328,-4.5712,-4.8158,-5.0221,-5.2139,-5.3935,-5.4246,-5.3874,-5.281,-5.2563,-5.225,-5.1648,-5.1596,-5.1596,-5.1596,-5.1204,-5.0681,-5.0106,-4.9531,-4.8956,-4.8381,-4.825,-4.812,-4.8015,-4.7675,-4.7388,-4.7153,-4.6238,-4.5741,-4.5555,-4.5009,-4.4668,-4.4696,-4.4225,-4.4042,-4.4042,-4.3749,-4.3382,-4.2942,-4.2471,-4.1848,-4.1153,-4.0182,-3.9852,-3.98,0.0,0.0,0.0,0.0,0.0,0.0,0.0,0.0,-3.8539,-3.9216,-3.9982,-4.029,-3.9801,-3.9705,-3.8442,-3.5187,-3.7394,-3.9266,-3.9929,-4.4818,-4.9205,-5.2475,-5.5285,-5.6987,-5.7547,-5.7688,-5.781,-5.7861,-5.7613,-5.7872,-5.8422,-5.8218,-5.8441,-5.9009,-5.9069,-5.9129,-5.9219,-5.9219,-5.9308,-5.9488,-6.0086,-6.0296,-6.0266,-5.9857,-5.9648,-5.9338,-5.6915,-5.4401,-5.2007,-5.0644,-4.894,-4.7578,-4.8626,-4.7578,-4.5753,-4.4466,-4.2722,-4.0583,-3.8018,-3.6682,-3.6354,-3.7794,-3.8465,-3.889,0.0,-4.1184,-4.2578,-4.2134,-4.4167,-4.5852,-4.5153,-4.8722,-5.132,-4.995,-5.3985,-5.6514,-5.4459,-5.6115,-5.6471,-5.367,-5.2825,-5.225,-5.1648,-5.1596,-5.1596,-5.1596,-5.1544,-5.1256,-5.0707,-5.0132,-4.9557,-4.9008,-4.846,-4.7937,-4.744,-4.7885,-4.7571,-4.6578,-4.6447,-4.6107,-4.5555,-4.5009,-4.4668,-4.4668,-4.467,-4.4643,-4.4643,-4.4563,-4.4537,-4.4327,-4.3098,-4.25,-4.2241,-4.0875,-4.0236,-4.0083,0.0,0.0,0.0,0.0,0.0,0.0,0.0,0.0,0.0,-3.8908,-3.9152,-3.9247,-3.897,-3.7861,-3.6076,-3.3405,-3.5615,-3.8444,-4.1449,-4.5641,-5.0039,-5.4481,-5.6807,-5.8318,-5.9042,-5.911,-5.924,-5.9396,-5.9136,-5.916,-5.9433,-5.9274,-5.9342,-5.9613,-5.9422,-5.9525,-5.9915,-6.0141,-6.0266,-6.0356,-6.1403,-6.1373,-6.0655,-6.0236,-5.865,-5.6376,-5.4102,-5.1828,0.0,-4.7938,-4.707,-4.689,-4.7848,-4.677,-4.4934,-4.3977,-4.2073,-3.9994,-3.8802,-3.8209,-3.8274,-3.9771,-4.085,-4.1686,-4.231,-4.4406,-4.6089,-4.5624,-4.7731,-4.9672,-4.9777,-5.2014,-5.3948,-5.4107,-5.6099,-5.7378,-5.6557,-5.6421,-5.5575,-5.3588,-5.2457,-5.1594,-5.1171,-5.2776,-5.3347,-5.2238,-5.3173,-5.3239,-5.1917,-5.1927,-5.139,-5.0153,-5.0197,-4.9764,-4.8786,-4.9026,-4.8417,-4.697,-4.663,-4.6186,-4.5555,-4.5009,-4.4668,-4.4668,-4.4668,-4.4668,-4.4668,-4.4668,-4.4539,-4.4147,-4.3231,-4.2995,-4.3032,-4.1181,-4.044,-4.0338,0.0,0.0,0.0,0.0,0.0,0.0,0.0,0.0,0.0,0.0,-3.8908,-3.8631,-3.8262,-3.6599,-3.4844,-3.3121,-3.4845,-3.7738,-4.1771,-4.5711,-5.0143,-5.5191,-5.7395,-5.8991,-6.0055,-6.0163,-6.0302,-6.0534,-6.025,-6.0092,-6.0092,-6.0039,-6.0016,-6.0016,-5.9955,-6.0089,-6.0391,-6.0866,-6.1057,-6.1117,-6.1841,-6.1515,-6.0496,-5.8854,-5.5837,-5.2396,-5.093,-4.8566,-4.5873,-4.4227,-4.3748,-4.4077,-4.5304,-4.4676,-4.3329,-4.2453,-4.0479,-3.8661,-3.8811,-3.9409,-4.0217,-4.1422,-4.306,-4.4601,-4.5371,-4.7511,-4.9443,-4.9571,-5.1503,-5.3186,-5.3454,-5.4909,-5.6194,-5.6567,-5.7551,-5.813,-5.7603,-5.6441,-5.4913,-5.2967,-5.2059,-5.1094,-5.0014,-5.2581,-5.3856,-5.29,-5.4243,-5.4611,-5.3453,-5.3603,-5.3105,-5.1612,-5.1822,-5.1459,-5.0406,-5.0406,-4.9767,-4.8489,-4.7771,-4.721,-4.6702,-4.5632,-4.5181,-4.5127,-4.483,-4.4884,-4.5127,-4.4647,-4.4251,-4.386,-4.3075,-4.2961,-4.3115,-4.1681,-4.1272,-4.1395,0.0,0.0,0.0,0.0,0.0,0.0,0.0,0.0,0.0,0.0,0.0,0.0,0.0,-3.6322,-3.5213,-3.4505,-3.6261,-3.8323,-4.0413,-4.5579,-5.0377,-5.4529,-5.7346,-5.9408,-6.0732,-6.0794,-6.0794,-6.0794,-6.0534,-6.0377,-6.0377,-6.0092,-6.0016,-6.0047,-6.0654,-6.0593,-6.0077,-6.0714,-6.0988,-6.0927,-5.9999,-5.962,-5.9168,-5.5,-5.1349,-4.8446,-4.8386,-4.5035,-4.0516,-3.9828,-3.8751,-3.8123,-4.0726,-4.1534,-4.1205,-3.9918,-3.8123,-3.6716,-3.7315,-3.9349,-4.1512,-4.2201,-4.4766,-4.7519,-4.8835,-5.0661,-5.2636,-5.459,-5.6025,-5.6555,-5.5438,-5.7782,-5.8873,-5.5787,-5.8463,-5.9878,-5.6629,-5.6689,-5.5619,-5.1816,-5.1839,-5.0965,0.0,-5.0009,-5.2072,-5.3275,-5.4062,-5.4679,-5.5269,-5.4765,-5.4119,-5.3444,-5.2938,-5.2348,-5.1648,-5.162,-5.162,-5.1537,-5.0304,-4.9687,-4.9578,-4.7364,-4.6321,-4.6269,-4.5181,-4.5342,-4.6242,-4.4573,-4.3885,-4.3808,-4.2682,-4.2238,-4.2285,-4.2597,-4.3197,-4.3646,0.0,0.0,0.0,0.0,0.0,0.0,0.0,0.0,0.0,0.0,0.0,0.0,0.0,0.0,0.0,0.0,-3.6599,-3.8754,-4.1709,-4.4849,-4.8235,-5.1898,-5.5068,-5.6977,-5.7408,-5.9193,-6.0116,-6.0116,-6.0475,-6.0638,-6.0638,-6.0993,-6.0993,-6.0512,-6.1027,-6.1104,-6.0951,-6.092,-6.0441,-5.9591,-5.9221,-5.7747,-5.5448,-5.2238,-4.839,-4.4438,0.0,-3.9487,-3.6985,-3.5878,-3.5489,-3.5789,-3.7554,-3.7823,-3.7404,-3.6956,-3.7255,-3.8093,-3.9619,-4.2312,-4.5035,-4.6604,-4.8775,-5.09,-5.2247,-5.3743,-5.491,-5.5149,-5.5179,-5.4809,-5.3485,-5.3764,-5.43,-5.4515,-5.639,-5.7606,-5.6891,-5.6598,-5.5024,-5.1022,-5.0739,-4.9948,0.0,0.0,0.0,-5.2172,-5.4653,-5.5779,-5.4701,-5.5641,-5.5575,-5.407,-5.4269,-5.3856,-5.2832,-5.2402,-5.1779,-5.1002,-4.9767,-4.9005,-4.8583,-4.7805,-4.7485,-4.7434,-4.7074,-4.7126,-4.7406,-4.6854,-4.615,-4.5331,-4.4919,-4.4699,-4.4612,-4.4741,-4.5372,-4.5913,0.0,0.0,0.0,0.0,0.0,0.0,0.0,0.0,0.0,0.0,0.0,0.0,0.0,0.0,0.0,0.0,0.0,-3.8908,-4.134,-4.3402,-4.5834,-4.8727,-5.1652,-5.3314,-5.3529,-5.5284,-5.6176,-5.6176,-5.6607,-5.6946,-5.7192,-5.7869,-5.8239,-5.83,-5.8776,-5.8981,-5.9012,-5.8777,-5.7933,-5.6602,-5.5773,-5.3719,-5.0832,-4.7588,-4.4031,0.0,-3.7144,-3.5354,-3.4325,-3.3155,-3.3215,-3.3963,-3.507,-3.5459,-3.5549,-3.5789,-3.7404,-3.9589,-4.1833,-4.4855,-4.7848,-4.9823,-5.1618,-5.3204,-5.4311,-5.5209,-5.5568,-5.467,-5.3952,-5.2935,-5.1139,-5.0661,-5.093,-5.2247,-5.3533,-5.47,-5.5568,-5.473,-5.3114,-5.0495,-4.9568,-4.8686,-4.7429,0.0,0.0,-5.1718,-5.4675,-5.6095,-5.5336,-5.6436,-5.6519,-5.5336,-5.5716,-5.5151,-5.3693,-5.3488,-5.269,-5.1247,-5.0443,-4.9574,-4.8596,-4.8596,-4.8596,-4.8546,-4.8167,-4.8217,-4.8518,-4.7666,-4.6841,-4.6062,-4.5613,-4.5364,-4.5326,-4.5689,-4.6211,-4.6594,0.0,0.0,0.0,0.0,0.0,0.0,0.0,0.0,0.0,0.0,0.0,0.0,0.0,0.0,0.0,0.0,0.0,0.0,-3.9462,-4.1401,-4.334,-4.5249,-4.7311,-4.8727,-4.9404,-4.9528,-4.9589,-4.9589,-4.9589,-4.9897,-5.0543,-5.1251,-5.2267,-5.3498,-5.416,-5.4468,-5.4406,-5.4375,-5.3607,-5.2223,-4.9934,-4.7862,-4.5724,-4.1535,-3.8732,-3.6669,-3.4091,-3.3032,-3.2734,-3.1927,-3.2078,-3.2766,-3.3395,-3.4502,-3.5699,-3.6477,-3.8571,-4.1235,-4.3838,-4.704,-5.0108,-5.1947,-5.3384,-5.4491,-5.5059,-5.5119,-5.464,-5.3234,-5.2336,-5.102,-4.8446,-4.855,-4.9,-4.9149,-5.0331,-5.1708,-5.2995,-5.1678,-5.0465,-5.0255,-4.8716,-4.7578,-4.7459,-4.8057,0.0,-5.2007,0.0,-5.5628,-5.6825,-5.7004,-5.7034,-5.7034,-5.7034,-5.6137,-5.4281,-5.479,-5.4072,-5.2157,-5.2157,-5.1272,-4.9659,-4.9659,-4.9659,-4.9611,-4.8596,-4.8717,-4.9465,-4.721,-4.6236,-4.6067,-4.496,-4.448,-4.4591,-4.5508,-4.5869,-4.5869,0.0,0.0,0.0,0.0,0.0,0.0,0.0,0.0,0.0,0.0,0.0,0.0,0.0,0.0,0.0,0.0,0.0,0.0,-3.9462,-4.0443,-4.1243,-4.1766,-4.4264,-4.568,-4.5934,-4.7373,-4.8142,-4.8142,-4.8142,-4.8235,-4.8419,-4.962,-5.0112,-4.9959,-5.119,-5.1436,-5.0944,-5.0389,-4.9682,-4.8758,-4.7169,-4.5633,-4.4004,-4.1352,-3.9722,-3.8558,-3.6257,-3.5431,-3.5186,-3.3819,-3.403,-3.4901,-3.4953,-3.5579,-3.6656,-3.8781,-4.1594,-4.4616,-4.7279,-5.1186,-5.4571,-5.5029,-5.5777,-5.6166,-5.5359,-5.4042,-5.2306,-5.0002,-4.7818,-4.5813,-4.4208,-4.4058,-4.4807,-4.677,-4.9823,-5.2247,-5.3054,-5.4431,-5.4251,-5.1319,-5.1379,-5.1109,-4.9598,-5.0092,0.0,0.0,-5.3144,-5.3832,-5.4162,-5.5598,-5.6406,-5.6406,-5.6406,-5.5927,-5.494,-5.3623,-5.2456,-5.1468,-5.1468,-5.1237,-5.0775,-5.0775,-5.0775,-5.0775,-5.0508,-5.0242,-5.0033,-4.9398,-4.8597,-4.7729,-4.7405,-4.6963,-4.655,-4.6814,-4.6931,-4.6931,0.0,0.0,0.0,0.0,0.0,0.0,0.0,0.0,0.0,0.0,0.0,0.0,0.0,0.0,0.0,0.0,0.0,0.0,0.0,-3.9634,-3.9893,-3.9582,-4.1324,-4.2163,-4.1883,-4.2716,-4.3156,-4.3156,-4.3448,-4.3567,-4.3648,-4.5308,-4.6013,-4.6018,-4.7096,-4.7373,-4.7013,-4.6265,-4.5249,0.0,0.0,-4.1217,-3.9896,-3.8415,-3.7646,-3.7153,-3.5922,-3.6075,-3.6811,-3.6709,-3.6998,-3.7556,-3.8159,-3.9073,-4.0464,-4.3208,-4.5867,-4.8536,-5.1546,-5.4451,-5.6705,-5.7304,-5.6855,-5.5837,-5.4251,-5.2336,-5.0002,-4.677,-4.4706,-4.297,-4.1354,-4.1294,-4.2282,-4.4605,-4.7608,-5.0272,-5.2067,-5.3593,-5.3922,-5.2276,-5.2486,-5.2306,-5.1199,-5.1439,-5.1917,0.0,-5.2965,-5.3443,-5.4042,-5.5119,-5.5987,-5.6555,-5.6585,-5.6256,-5.5628,-5.3354,-5.2007,-5.1648,-5.1349,-5.1229,-5.1229,-5.1229,-5.1229,-5.1229,0.0,-5.102,-5.0584,-5.0062,-4.9374,-4.87,-4.8087,-4.7638,-4.7309,-4.7309,-4.7309,-4.7309,0.0,0.0,0.0,0.0,0.0,0.0,0.0,0.0,0.0,0.0,-3.8793,0.0,0.0,0.0,0.0,0.0,0.0,0.0,0.0,0.0,-3.9093,-3.843,-3.8967,-3.8967,-3.8276,-3.7779,-3.7496,-3.7496,-3.7994,-3.8339,-3.8522,-4.0223,-4.1377,-4.2098,-4.2674,-4.2884,-4.2761,-4.2078,-4.0816,-3.9154,-3.7861,-3.6722,-3.5706,0.0,-3.4967,-3.5028,-3.5028,-3.6199,-3.8044,-3.9673,-4.0188,-4.0474,-4.2136,-4.3693,-4.5447,-4.8468,-5.0515,-5.2546,-5.5649,-5.7056,-5.7842,-5.874,-5.7064,-5.461,-5.2426,-5.0152,-4.7429,-4.3718,-4.2342,-4.1362,-3.9709,-4.0038,-4.1235,-4.3349,-4.5293,-4.7728,-5.102,-5.1558,-5.2067,-5.3294,-5.2935,-5.2606,-5.2606,-5.2516,-5.2725,-5.3414,-5.3354,-5.3832,-5.4999,-5.5149,-5.5748,-5.6944,-5.6885,-5.6585,-5.6047,-5.3503,-5.2187,-5.2187,-5.1528,-5.1229,-5.1229,-5.1229,-5.1229,-5.1229,0.0,0.0,-5.099,-4.9763,-4.9269,-4.906,-4.7788,-4.7309,-4.7309,-4.7309,-4.7309,-4.7309,0.0,0.0,0.0,0.0,0.0,0.0,0.0,0.0,0.0,0.0,-4.0287,-3.8477,0.0,0.0,0.0,0.0,0.0,0.0,0.0,0.0,0.0,-3.843,-3.8493,-3.8309,-3.7683,-3.7497,-3.7427,-3.7427,-3.7466,-3.7786,-3.8441,-3.8769,-3.8999,-3.922,-3.9327,-3.9093,-3.8508,-3.7831,-3.7677,-3.7769,-3.6999,-3.6876,-3.7123,-3.703,0.0,0.0,-3.78,-3.8385,-3.9367,-4.0839,-4.1924,-4.3084,-4.5443,-4.6989,-4.8558,-5.2108,-5.4213,-5.5739,-5.7647,-5.9285,-6.0086,-5.865,-5.6735,-5.4371,-5.1242,-4.7326,-4.3718,-4.1384,-3.9948,-3.914,-3.9379,-4.0397,-4.2222,-4.5263,-4.701,-4.9105,-5.2366,-5.3324,-5.3982,-5.476,-5.473,-5.467,-5.467,-5.4192,0.0,0.0,0.0,-5.4132,-5.4371,-5.491,-5.5538,-5.6316,-5.5807,-5.5478,-5.5359,-5.3264,-5.2187,-5.2187,-5.1528,-5.1229,-5.1229,-5.1229,-5.1229,-5.1229,-5.1229,0.0,-5.0315,-4.9583,-4.9,-4.8386,-4.7608,-4.7309,-4.7309,-4.7309,-4.7309,-4.7309,0.0,0.0,0.0,0.0,0.0,0.0,0.0,-4.271,-4.3411,-4.4172,-4.2526,-4.0927,-4.0167,-3.8905,-3.781,0.0,0.0,0.0,0.0,0.0,0.0,0.0,-3.8656,-3.8509,-3.7951,-3.7868,-3.7883,-3.7883,0.0,-3.8149,-3.7915,-3.8558,-3.855,-3.7997,-3.8362,-3.8138,-3.7492,-3.7153,-3.6999,-3.6969,-3.6999,-3.7215,-3.7554,0.0,0.0,0.0,-3.8108,-3.8631,-3.9677,-4.0659,-4.2345,-4.4419,-4.7038,-4.8791,-5.0622,-5.4605,-5.6657,-5.8105,-6.0096,-6.1197,-6.1417,-5.9602,-5.6885,-5.3713,-5.0062,-4.5903,-4.2282,-4.0307,-3.908,-3.8601,-3.929,-4.0217,-4.1624,-4.3898,-4.5364,-4.7369,-5.069,-5.2007,-5.3174,-5.4521,-5.5299,-5.5718,-5.5718,-5.5718,-5.5718,-5.5718,0.0,-5.5089,-5.473,-5.5359,-5.5837,-5.6218,-5.5867,-5.5718,-5.5718,-5.3713,-5.2905,-5.3234,-5.2217,-5.1738,-5.1738,-5.1738,-5.1528,-5.1229,-5.1229,0.0,-5.0644,-5.0032,-4.9374,-4.876,-4.8087,-4.7608,-4.7309,-4.7309,-4.7309,-4.7309,0.0,0.0,0.0,0.0,0.0,0.0,0.0,-4.4471,-4.5114,-4.5601,-4.5078,-4.416,-4.2785,-4.1074,-3.9495,0.0,0.0,0.0,0.0,0.0,0.0,0.0,0.0,0.0,-3.9015,0.0,0.0,-3.8958,-3.9571,0.0,0.0,0.0,0.0,0.0,-3.8697,-3.8508,-3.8138,-3.7984,-3.7707,0.0,0.0,-3.8138,0.0,0.0,0.0,0.0,0.0,-3.86,-3.9797,-4.0474,-4.2355,-4.4825,-4.7188,-4.9506,-5.2079,-5.6036,-5.8146,-5.966,-6.1987,-6.266,-6.2246,-6.0141,-5.6795,-5.2875,-4.8626,-4.4717,-4.1422,-3.9409,-3.8661,-3.8601,-3.929,-3.9828,-4.0696,-4.2312,-4.321,-4.4945,-4.861,-5.0182,-5.1798,-5.3952,-5.5478,-5.6316,-5.6248,-5.6615,0.0,-5.6017,0.0,0.0,-5.5209,-5.5688,-5.5957,-5.5957,-5.5957,-5.6017,-5.6218,-5.4341,-5.3683,-5.4192,-5.2845,-5.2127,-5.2007,-5.2007,-5.1708,-5.1229,-5.1229,0.0,0.0,-5.0465,-4.9853,-4.9239,-4.8536,-4.7878,-4.7309,-4.7459,-4.7429,-4.7339,0.0,0.0,0.0,0.0,0.0,0.0,0.0,-4.5202,-4.633,-4.8357,-4.7956,-4.7214,-4.6401,-4.3386,-4.1093,0.0,0.0,0.0,0.0,0.0,0.0,0.0,0.0,0.0,0.0,0.0,0.0,-4.112,-4.1701,0.0,0.0,0.0,0.0,0.0,0.0,-3.9705,-4.0166,-3.9551,0.0,0.0,0.0,0.0,0.0,0.0,0.0,0.0,0.0,-3.9244,-4.0505,-4.1247,-4.2479,-4.3963,-4.5403,-4.8764,-5.2826,-5.5927,-5.8267,-6.0266,-6.2329,-6.3105,-6.2551,-5.9123,-5.5777,-5.1917,-4.6741,-4.297,-4.0008,-3.8003,-3.8033,-3.8601,-3.929,-3.9433,-4.0337,-4.2781,-4.2342,-4.321,-4.7728,-4.9494,-5.1242,-5.3892,-5.5867,-5.6795,-5.6226,-5.6278,-5.5987,-5.5329,0.0,0.0,-5.5179,-5.5239,-5.5269,-5.5269,-5.5269,-5.5568,-5.6166,-5.479,-5.4162,-5.4192,-5.2845,-5.1887,-5.1319,-5.1319,-5.1289,-5.1229,-5.1229,0.0,0.0,-5.0465,-4.9853,-4.9239,-4.8536,-4.7878,-4.7369,-4.7967,-4.7818,-4.7399,0.0,0.0,0.0,0.0,0.0,0.0,-4.5119,-4.5559,-4.665,-4.9323,-4.9018,-4.8443,-4.8173,-4.6498,-4.4212,-4.1317,0.0,0.0,0.0,0.0,0.0,0.0,0.0,0.0,0.0,0.0,-4.3375,-4.2609,-4.2841,0.0,0.0,0.0,0.0,0.0,0.0,-4.0228,-4.0474,-4.0197,0.0,0.0,0.0,0.0,0.0,0.0,0.0,0.0,0.0,0.0,-4.0474,-4.0385,-4.1247,-4.2417,-4.2509,-4.4895,-4.848,-5.2575,-5.5787,-5.8563,-6.0768,-6.2536,-6.295,-5.9325,-5.578,-5.1917,-4.704,-4.2761,-3.9589,-3.8781,-3.8182,-3.8123,-3.9194,-3.9373,-3.9732,-4.0778,-4.0546,-4.1414,-4.4855,-4.6112,-4.8237,-5.2486,-5.4401,-5.5718,-5.6645,0.0,-5.6915,-5.5867,0.0,0.0,-5.5179,-5.5179,-5.5179,-5.5179,-5.5179,-5.5329,-5.5598,-5.4251,-5.3803,-5.4192,-5.2845,-5.2067,-5.1798,-5.1798,-5.1588,-5.1229,-5.1229,0.0,0.0,-5.0883,-5.0451,-4.9823,-4.9553,-4.8805,-4.7967,-4.8626,-4.8446,-4.7997,0.0,0.0,0.0,0.0,0.0,-4.3754,-4.5493,-4.5715,-4.6752,-4.9695,-4.9458,-4.9018,-4.9018,-4.8342,-4.6574,-4.328,-4.2638,0.0,0.0,0.0,0.0,0.0,0.0,0.0,0.0,0.0,-4.5081,-4.4067,-4.4067,-4.3487,0.0,0.0,-4.2142,-4.1709,0.0,0.0,0.0,0.0,0.0,0.0,0.0,0.0,0.0,0.0,0.0,0.0,0.0,0.0,0.0,0.0,0.0,-4.1186,-4.0659,-4.1832,-4.4233,-4.8604,-5.2729,-5.6375,-5.8593,-6.1195,-6.2348,-5.8715,-5.526,-5.149,-4.6701,-4.2539,-3.9589,-3.9272,-3.8577,-3.8302,-3.926,-3.9373,-3.9373,-3.9373,-3.9373,-4.0277,-4.2731,-4.3958,-4.6202,-5.0511,-5.2396,-5.4012,-5.5777,-5.6735,-5.6885,0.0,0.0,0.0,0.0,-5.5179,-5.5179,-5.5179,-5.4999,-5.4999,-5.5179,-5.3862,-5.3414,-5.3892,-5.2755,-5.2097,-5.1917,-5.1917,-5.1648,-5.1229,0.0,0.0,0.0,-5.1229,-5.0794,-5.0166,-5.0032,-4.9374,-4.8626,-4.9149,-4.903,-4.8686,0.0,0.0,0.0,0.0,0.0,0.0,-4.5351,-4.5703,-4.6752,-4.9695,-4.9458,-4.9018,-4.9018,-4.8342,-4.7597,-4.6819,-4.6752,0.0,0.0,0.0,0.0,0.0,0.0,0.0,0.0,0.0,-4.7164,-4.5684,-4.5684,-4.5277,-4.4583,-4.4614,-4.462,-4.4517,0.0,0.0,0.0,0.0,0.0,0.0,0.0,0.0,0.0,0.0,0.0,0.0,0.0,0.0,0.0,0.0,0.0,0.0,0.0,-4.0505,-4.1212,-4.4664,-4.9497,-5.4114,-5.5852,-5.8828,-6.0547,-5.6829,-5.3814,-5.0336,-4.5192,-4.2138,-4.0044,-3.8938,-3.9067,-3.9373,-3.9373,-3.9373,-3.9373,-3.9373,-3.9373,-4.0098,-4.2141,-4.4047,-4.6052,-4.8087,-5.0062,-5.1768,-5.3084,-5.4431,-5.5209,0.0,0.0,0.0,0.0,-5.5179,-5.5179,-5.5179,-5.4551,-5.4521,-5.5179,-5.3862,-5.3174,-5.3174,-5.2516,-5.1858,-5.1229,-5.1229,-5.1229,0.0,0.0,0.0,0.0,-5.1229,-5.0794,-5.0136,-4.9523,-4.9299,-4.9299,-4.9299,-4.9299,-4.9389,0.0,0.0,0.0,0.0,0.0,0.0,0.0,-4.6447,-4.7327,-4.9763,-4.9458,-4.9187,-4.9695,-4.9086,-4.8578,-4.8308,-4.7361,0.0,0.0,0.0,0.0,0.0,0.0,0.0,0.0,-4.8178,-4.7405,-4.6451,-4.6451,-4.6074,-4.5345,-4.5377,-4.5362,-4.5332,-4.4631,-4.4434,0.0,0.0,0.0,0.0,0.0,0.0,0.0,0.0,0.0,0.0,0.0,0.0,0.0,0.0,0.0,0.0,0.0,0.0,0.0,-4.1801,-4.5311,-4.9147,-5.0629,-5.304,-5.4504,-5.2017,-4.9789,-4.7335,-4.4031,-4.1519,-3.9805,-3.9455,-3.9149,-3.9013,-3.9349,-3.9517,-3.9553,-3.9409,-4.0016,-4.0781,-4.161,-4.3508,-4.601,-4.9224,-5.2576,-5.476,0.0,0.0,0.0,0.0,0.0,0.0,0.0,-5.5628,-5.5448,-5.4551,-5.4311,-5.4072,-5.3832,-5.2965,-5.2725,-5.3174,-5.2067,-5.1648,-5.1887,-5.1439,0.0,0.0,0.0,0.0,0.0,-5.1229,-5.1079,-5.0853,-5.069,-5.0331,-4.9972,-5.0451,-5.0331,-5.0032,0.0,0.0,0.0,0.0,0.0,0.0,0.0,-4.6786,-4.7496,-4.9424,-4.9289,-4.9187,-4.9627,-4.9289,-4.9018,-4.9018,-4.8173,0.0,0.0,0.0,0.0,0.0,0.0,0.0,-4.8576,-4.7869,-4.7238,-4.6828,-4.7087,-4.6702,-4.5697,-4.6275,-4.6063,-4.529,-4.5104,-4.4874,0.0,0.0,0.0,0.0,0.0,0.0,-4.4579,0.0,0.0,0.0,0.0,0.0,0.0,0.0,0.0,0.0,0.0,0.0,0.0,0.0,-4.2289,-4.4756,-4.6911,-4.9339,-5.0835,-4.909,-4.7372,-4.5556,-4.3282,-4.1255,-3.9803,-3.9803,-3.9436,-3.9143,-3.9385,-3.9553,-3.9625,-3.9409,-4.0094,-4.0813,-4.1423,-4.3296,-4.5902,-4.9434,-5.2725,0.0,0.0,-5.507,0.0,0.0,0.0,0.0,0.0,-5.5619,-5.5179,-5.3862,-5.4072,-5.3892,-5.3204,-5.2276,-5.2037,-5.2426,-5.1618,-5.1439,-5.1828,-5.1409,0.0,0.0,0.0,0.0,0.0,-5.1229,-5.1229,-5.1199,-5.0913,-5.0704,-5.0584,-5.0734,-5.0704,-5.0614,0.0,0.0,0.0,0.0,0.0,0.0,0.0,-4.6921,-4.7428,-4.8815,-4.9018,-4.9018,-4.9018,-4.9018,-4.9018,-4.9018,0.0,0.0,0.0,0.0,0.0,0.0,0.0,0.0,-4.7803,-4.7137,-4.6828,-4.6828,-4.751,-4.7126,-4.5805,-4.7194,-4.6733,-4.4799,-4.5405,-4.529,-4.461,0.0,0.0,0.0,-4.461,-4.461,0.0,0.0,0.0,0.0,0.0,0.0,0.0,0.0,0.0,0.0,0.0,0.0,0.0,0.0,0.0,0.0,0.0,-4.7096,-4.8727,-4.7434,-4.6015,-4.4527,-4.2842,-4.1179,0.0,-4.0011,-3.9874,-3.9661,-3.9445,-3.9589,-3.9661,-3.9445,-3.9858,-4.0521,-4.1579,-4.3615,-4.6082,-4.9194,-5.1229,0.0,-5.2276,0.0,0.0,0.0,0.0,0.0,0.0,-5.542,-5.467,-5.3354,-5.3892,-5.3832,-5.3054,-5.1828,-5.1229,-5.1289,-5.1229,-5.1229,-5.1289,-5.1229,0.0,0.0,0.0,0.0,0.0,-5.1229,-5.1229,-5.1169,-5.0495,-5.0644,-5.1139,-5.0495,-5.0644,-5.1229,0.0,0.0,0.0,0.0,0.0,0.0,0.0,0.0,0.0,0.0,-4.9018,-4.9018,-4.9018,-4.9018,-4.9018,0.0,0.0,0.0,0.0,0.0,0.0,0.0,0.0,0.0,-4.7069,-4.6896,-4.6828,-4.6828,-4.6989,-4.6853,-4.655,-4.692,-4.6784,-4.6269,-4.5877,-4.529,-4.461,-4.461,0.0,0.0,-4.461,-4.461,0.0,0.0,0.0,0.0,-4.3778,-4.3501,0.0,0.0,0.0,0.0,0.0,0.0,0.0,0.0,-4.0505,-4.0659,-4.1458,0.0,-4.2565,-4.2227,-4.1812,-4.1403,0.0,-4.0611,-4.0187,-4.0046,-4.0086,-3.998,-3.9481,-3.9803,-4.0051,-3.9696,-4.0969,-4.1979,-4.1954,-4.5656,-4.9267,-5.1539,-5.3391,-5.4121,-5.3266,0.0,0.0,0.0,0.0,0.0,0.0,-5.608,-5.5568,-5.476,-5.4401,-5.3414,-5.1708,-5.1379,-5.1468,-5.1977,-5.1468,-5.1468,-5.1947,-5.1439,0.0,0.0,0.0,0.0,-5.1229,-5.1229,-5.1229,-5.1199,-5.105,-5.1079,-5.1199,-5.1003,-5.1079,-5.1229,0.0,0.0,0.0,0.0,0.0,0.0,0.0,0.0,0.0,0.0,0.0,-4.9018,-4.9018,-4.9018,0.0,0.0,0.0,0.0,0.0,0.0,0.0,0.0,0.0,-4.7539,-4.6828,-4.6828,-4.6828,-4.6828,-4.7496,-4.7463,-4.6828,-4.7496,-4.7257,-4.6269,-4.5515,-4.4955,-4.461,-4.461,-4.461,-4.461,-4.461,0.0,0.0,0.0,0.0,0.0,-4.4086,-4.387,0.0,-4.3525,-4.331,-4.294,0.0,0.0,0.0,0.0,-4.0505,-4.0505,-4.0505,-4.0505,-4.0505,-4.0505,-4.047,-4.0401,-4.0505,-4.0436,-4.0331,-4.0046,-4.0187,-4.0121,-3.9625,-3.9945,-4.0314,-4.0298,-4.1326,-4.2677,-4.4173,-4.7297,-5.0516,-5.333,-5.4387,-5.4969,0.0,0.0,0.0,0.0,0.0,0.0,0.0,-5.56,-5.497,-5.4281,-5.3623,-5.2755,-5.1678,-5.1379,-5.1409,-5.1738,-5.1379,-5.1409,-5.1738,-5.1379,-5.1229,0.0,0.0,0.0,-5.1229,-5.1229,-5.1229,-5.1229,-5.1229,-5.1229,-5.1229,-5.1229,-5.1229,-5.1229,0.0,0.0,0.0,0.0,0.0,0.0,0.0,0.0,0.0,0.0,0.0,0.0,0.0,0.0,0.0,0.0,0.0,0.0,0.0,0.0,0.0,0.0,-4.7901,-4.7506,-4.6655,-4.683,-4.6931,-4.6828,-4.816,-4.8193,-4.6989,-4.8222,-4.7742,-4.5818,-4.5092,-4.4723,-4.461,-4.461,-4.461,-4.461,-4.461,0.0,0.0,0.0,0.0,0.0,0.0,0.0,0.0,-4.4302,-4.4148,-4.3655,-4.2971,0.0,0.0,0.0,0.0,0.0,-4.0505,-4.0505,-4.0505,-4.0505,-4.0505,-4.0505,-4.0505,-4.0566,-4.0523,-4.0081,-4.0248,-4.0344,-3.9954,-4.0294,-4.0812,-4.1267,-4.2015,-4.3782,-4.7465,-4.9072,-5.1088,-5.4539,-5.4763,0.0,0.0,0.0,0.0,0.0,0.0,0.0,0.0,-5.47,-5.3892,-5.3253,-5.2594,-5.2252,-5.2162,-5.1546,-5.1229,-5.1229,-5.1229,-5.1229,-5.1229,-5.1229,-5.1229,0.0,0.0,0.0,-5.1229,-5.1229,-5.1229,-5.1229,-5.1229,-5.1229,-5.1229,-5.1229,-5.1229,-5.1229,0.0,0.0,0.0,0.0,0.0,0.0,0.0,0.0,0.0,0.0,0.0,0.0,0.0,0.0,0.0,0.0,0.0,0.0,0.0,0.0,0.0,-4.7934,-4.7901,-4.7272,-4.5913,-4.7103,-4.7406,-4.6828,-4.761,-4.7867,-4.7664,-4.7832,-4.7432,-4.6513,-4.5803,-4.5179,-4.461,-4.461,-4.461,-4.461,-4.461,0.0,0.0,0.0,0.0,0.0,0.0,0.0,0.0,-4.3932,-4.4086,-4.4332,-4.3685,0.0,0.0,0.0,0.0,0.0,-4.0505,-4.0505,-4.0505,-4.0505,-4.0505,-4.0505,-4.0505,-4.1001,-4.1172,-4.0203,-4.0751,-4.1219,-4.0649,-4.1498,-4.24,-4.286,-4.5033,-4.7814,0.0,0.0,-5.3067,-5.4992,0.0,0.0,0.0,0.0,0.0,0.0,0.0,0.0,0.0,-5.4799,-5.3991,-5.3574,-5.2911,-5.2403,-5.2015,-5.1476,-5.1229,-5.1229,-5.1229,-5.1229,-5.1229,-5.1229,-5.1229,0.0,0.0,-5.1229,-5.1229,-5.1229,-5.1229,-5.1229,-5.1229,-5.1229,-5.1229,-5.1229,-5.1229,-5.1229,0.0,0.0,0.0,0.0,0.0,0.0,0.0,0.0,0.0,0.0,0.0,0.0,0.0,0.0,0.0,0.0,0.0,0.0,0.0,0.0,-4.8257,-4.7901,-4.8257,-4.7999,-4.6932,-4.8331,-4.8728,-4.7963,-4.9008,-4.9124,-4.8375,-4.7548,-4.6797,-4.6134,-4.5415,-4.4918,-4.461,-4.461,-4.461,-4.461,0.0,0.0,0.0,0.0,0.0,0.0,0.0,0.0,0.0,0.0,-4.4363,-4.4486,-4.3809,0.0,0.0,0.0,0.0,0.0,-4.0505,-4.0505,-4.0659,-4.1427,-4.137,-4.1217,-4.152,-4.1925,-4.1976,-4.1351,-4.1439,-4.1694,-4.2034,-4.2689,-4.3796,-4.5839,-4.849,-5.0869,-5.2303,-5.2872,-5.3863,0.0,0.0,0.0,0.0,0.0,0.0,0.0,0.0,0.0,0.0,0.0,-5.3742,-5.3079,-5.2557,-5.2167,-5.2002,-5.1602,-5.1416,-5.1386,-5.1276,-5.1229,-5.1229,-5.1229,-5.1229,-5.1229,0.0,-5.1229,-5.1229,-5.1229,-5.102,-5.0644,-5.0644,-5.0644,-5.0644,-5.0644,-5.0644,-5.0644,0.0,0.0,0.0,0.0,0.0,0.0,0.0,0.0,0.0,0.0,0.0,0.0,0.0,0.0,0.0,0.0,0.0,0.0,0.0,-4.8161,-4.8161,-4.8161,-4.8513,-4.8549,-4.8166,-4.9421,-4.9758,-4.922,-5.0386,-5.0241,-4.8797,-4.7372,-4.6316,-4.5656,-4.4936,-4.461,-4.461,-4.461,-4.461,-4.461,0.0,0.0,0.0,0.0,0.0,0.0,0.0,0.0,0.0,0.0,0.0,0.0,0.0,0.0,0.0,-4.2202,-4.1463,-4.0751,-4.0751,-4.0628,-4.0782,-4.2048,-4.2109,-4.2048,-4.2879,-4.331,-4.3359,-4.2873,-4.2763,-4.2996,-4.3631,-4.4458,-4.5865,-4.845,-5.1436,-5.3406,-5.3406,-5.3867,-5.4874,0.0,0.0,0.0,0.0,0.0,0.0,0.0,0.0,0.0,0.0,0.0,-5.3412,-5.2574,-5.2245,-5.2109,-5.2185,-5.1926,-5.1711,-5.1572,-5.1323,-5.1229,-5.1323,-5.1229,-5.1229,-5.1323,-5.1229,-5.1139,-5.099,-5.099,-5.0554,-5.0002,-5.0002,-5.0076,-5.0196,-5.0196,-5.0285,-5.0435,0.0,0.0,0.0,0.0,0.0,0.0,0.0,0.0,0.0,0.0,0.0,0.0,0.0,0.0,0.0,0.0,0.0,0.0,0.0,-4.8923,-4.8923,-4.8923,-4.8322,-4.8265,-4.8895,-4.9557,-4.9906,-4.9844,-5.0491,-5.0043,-4.8584,-4.7247,-4.622,-4.5611,-4.4887,-4.461,-4.461,-4.461,-4.461,-4.461,-4.461,0.0,0.0,0.0,0.0,0.0,0.0,0.0,0.0,0.0,0.0,0.0,0.0,0.0,-4.3531,-4.347,-4.2509,-4.1524,-4.1524,-4.1032,-4.0689,-4.1494,-4.2109,-4.2879,-4.4141,-4.5403,-4.5918,-4.4427,-4.5287,-4.6041,-4.5284,-4.7405,-4.9312,-4.9558,-5.2914,-5.5468,-5.5468,0.0,0.0,0.0,0.0,0.0,0.0,0.0,0.0,0.0,0.0,0.0,0.0,0.0,0.0,-5.2352,-5.2291,-5.2427,-5.2684,-5.2352,-5.2033,-5.1572,-5.1323,-5.1323,-5.1572,-5.1323,-5.1369,-5.1572,-5.1323,-5.0823,-5.0255,-5.0255,-4.9912,-4.9389,-4.9389,-4.9703,-5.0196,-5.0196,-5.0584,-5.1139,0.0,0.0,0.0,0.0,0.0,0.0,0.0,0.0,0.0,0.0,0.0,0.0,0.0,0.0,0.0,0.0,0.0,0.0,0.0,-4.9018,-4.8798,-4.8354,-4.8064,-4.8232,-4.8903,-4.9551,-5.0314,-5.1215,-5.0978,-5.0078,-4.8573,-4.7219,-4.6018,-4.4979,-4.4733,-4.461,-4.461,-4.461,-4.461,-4.461,-4.461,-4.461,0.0,0.0,0.0,0.0,0.0,0.0,0.0,0.0,-4.4394,-4.461,-4.461,-4.4148,-4.3531,-4.3094,-4.2633,-4.2048,-4.1155,-4.1648,-4.2571,-4.3279,-4.3956,-4.4603,-4.5095,-4.6911,-4.8112,-4.6677,-4.7517,-4.8173,-4.6944,-4.9055,-5.1067,-5.1498,-5.4268,-5.6467,-5.6721,0.0,0.0,0.0,0.0,0.0,0.0,0.0,0.0,0.0,0.0,0.0,0.0,0.0,0.0,-5.2306,-5.2442,-5.2608,-5.2698,-5.2442,-5.2215,-5.2033,-5.1834,-5.1741,-5.1834,-5.1741,-5.1649,-5.1572,-5.1058,-5.0589,-5.0166,-4.9793,-4.9254,-4.87,-4.87,-4.9045,-4.9643,-4.9643,-5.0062,-5.0554,0.0,0.0,0.0,0.0,0.0,0.0,0.0,0.0,0.0,0.0,0.0,0.0,0.0,0.0,0.0,0.0,0.0,0.0,-4.8639,-4.8639,-4.8322,-4.7572,-4.7339,-4.7617,-4.8469,-4.8946,-5.009,-5.1987,-5.0997,-4.9739,-4.8266,-4.6911,-4.5772,-4.4949,-4.4949,-4.4949,-4.4949,-4.4949,-4.4795,-4.461,-4.461,-4.461,0.0,0.0,0.0,0.0,0.0,0.0,0.0,0.0,-4.461,-4.461,-4.461,-4.4302,-4.384,-4.3371,-4.3063,-4.2663,-4.1494,-4.2202,-4.3371,-4.3833,-4.4787,-4.5803,-4.6696,-4.8327,-4.9528,-4.9004,-4.9651,-4.9897,-4.8429,-5.01,-5.173,0.0,-5.4652,-5.6867,0.0,0.0,0.0,0.0,0.0,0.0,0.0,0.0,0.0,0.0,0.0,0.0,0.0,0.0,0.0,0.0,-5.2608,-5.2698,-5.2698,-5.2518,-5.2442,-5.2397,-5.2078,-5.1972,-5.2109,-5.1805,-5.1622,-5.144,-5.0668,-5.011,-4.9764,-4.9269,-4.8699,-4.8085,-4.8251,-4.8686,-4.9329,-4.9494,-4.9972,-5.0495,0.0,0.0,0.0,0.0,0.0,0.0,0.0,0.0,0.0,0.0,0.0,0.0,0.0,0.0,0.0,0.0,0.0,0.0,-4.7967,-4.7934,-4.7572,-4.6862,-4.6092,-4.6329,-4.7643,-4.7619,-4.9025,-5.1881,-5.0454,-4.8974,-4.7558,-4.6234,-4.5588,-4.5588,-4.5588,-4.5588,-4.5588,-4.5588,-4.5218,-4.4641,-4.4641,-4.4641,-4.4641,0.0,0.0,0.0,0.0,0.0,0.0,0.0,-4.461,-4.461,-4.461,-4.461,-4.461,-4.461,-4.4148,-4.347,-4.2786,-4.2633,-4.2633,-4.2633,-4.4141,-4.6326,-4.9066,-4.9682,-5.0082,-5.1436,-5.1713,-5.1225,-4.9598,-5.066,-5.141,-5.0455,-5.3945,-5.6779,0.0,0.0,0.0,0.0,0.0,0.0,0.0,0.0,0.0,0.0,0.0,0.0,0.0,0.0,0.0,0.0,-5.2698,-5.2698,-5.2698,-5.2698,-5.2698,-5.2698,-5.2021,-5.1888,-5.2276,-5.1409,-5.1105,-5.1222,-5.0108,-4.9384,-4.8953,-4.8706,-4.8183,-4.7671,-4.8115,-4.8686,-4.9389,-5.0002,-5.0614,-5.1199,0.0,0.0,0.0,0.0,0.0,0.0,0.0,0.0,0.0,0.0,0.0,0.0,0.0,0.0,0.0,0.0,0.0,0.0,-4.7967,-4.8386,-4.8096,-4.6862,-4.6588,-4.6649,-4.6987,-4.7886,-4.9019,-5.0381,-4.9901,-4.8727,-4.688,-4.648,-4.6049,-4.5618,-4.608,-4.6296,-4.6265,-4.5803,-4.5741,-4.5957,-4.5464,-4.528,-4.528,0.0,0.0,0.0,0.0,0.0,0.0,0.0,0.0,0.0,-4.461,-4.461,-4.4517,-4.4055,-4.4086,-4.4018,-4.291,-4.3987,-4.5311,-4.4818,-4.6234,-4.8173,-4.9989,-5.0389,-5.079,-5.2144,-5.279,-5.253,-5.0641,-5.1454,-5.2315,-5.2055,-5.3853,0.0,0.0,0.0,0.0,0.0,0.0,0.0,0.0,0.0,0.0,0.0,0.0,0.0,0.0,0.0,0.0,0.0,-5.2236,-5.2236,-5.2698,-5.1775,-5.1528,-5.199,-5.1313,-5.13,-5.1826,-5.1107,-5.0713,-5.0564,-4.9761,-4.9235,-4.8923,-4.8222,-4.8032,-4.8273,-4.7785,-4.8267,-4.9329,-4.9494,-4.9972,-5.0554,0.0,0.0,0.0,0.0,0.0,0.0,0.0,0.0,0.0,0.0,-4.9018,-4.9018,0.0,0.0,0.0,0.0,0.0,0.0,0.0,-4.7572,-4.7272,-4.641,-4.6375,-4.6482,-4.6671,-4.7714,-4.8195,-4.805,-4.8327,-4.7681,-4.6203,-4.648,-4.6388,-4.6018,-4.6973,-4.7096,-4.6573,-4.6172,-4.608,-4.6172,-4.5741,-4.5588,-4.5588,0.0,0.0,0.0,0.0,0.0,0.0,0.0,0.0,0.0,-4.461,-4.461,-4.4548,-4.4117,-4.4486,-4.4756,-4.3679,-4.4972,-4.6573,-4.6419,-4.7742,-4.9404,-5.079,-5.1929,-5.3006,-5.4083,-5.4422,-5.4099,-5.2809,-5.2823,0.0,-5.3331,0.0,0.0,0.0,0.0,0.0,0.0,0.0,0.0,0.0,0.0,0.0,0.0,0.0,0.0,0.0,0.0,0.0,0.0,-5.1652,-5.1498,-5.1898,-5.1097,-5.0882,-5.1282,-5.0605,-5.0513,-5.0882,-5.0482,-5.0181,-4.999,-4.9316,-4.8913,-4.87,-4.8019,-4.7994,-4.8326,-4.7859,-4.8177,-4.897,-4.9209,-4.9673,-5.0255,0.0,0.0,-4.8984,-4.8917,0.0,0.0,0.0,0.0,0.0,0.0,-4.9018,-4.9018,0.0,0.0,0.0,0.0,0.0,0.0,0.0,-4.634,-4.5949,-4.5805,-4.5868,-4.6144,-4.6654,-4.7302,-4.6978,-4.5588,-4.6265,-4.6234,-4.5526,-4.6326,-4.6665,-4.6665,-4.8019,-4.7896,-4.6665,-4.6542,-4.6234,-4.5772,-4.5711,-4.568,-4.568,-4.568,0.0,0.0,0.0,0.0,0.0,0.0,0.0,0.0,-4.461,-4.461,-4.461,-4.461,-4.5003,-4.5372,-4.4856,-4.5618,-4.6788,-4.7527,-4.885,-5.0297,-5.159,-5.3806,-5.5745,-5.6317,-5.6084,-5.5712,-5.5398,-5.4467,-5.3868,-5.4357,0.0,0.0,0.0,0.0,0.0,0.0,0.0,0.0,0.0,0.0,0.0,0.0,0.0,0.0,0.0,0.0,0.0,-5.159,-5.0944,-5.0636,-5.0697,-5.0574,-5.0543,0.0,-4.9897,-4.9589,-4.9589,-4.9589,-4.9589,-4.9558,-4.8881,-4.851,-4.8343,-4.8133,-4.8049,-4.8025,-4.8156,-4.8251,-4.8311,-4.897,-4.9553,-5.0016,0.0,0.0,-4.8815,-4.824,0.0,0.0,0.0,0.0,0.0,0.0,0.0,0.0,0.0,0.0,0.0,0.0,0.0,0.0,0.0,-4.8064,-4.777,-4.6588,-4.7136,-4.7171,-4.6601,-4.7426,-4.7098,-4.5588,-4.6265,-4.5988,-4.4856,-4.6573,-4.7096,-4.6665,-4.8019,-4.8173,-4.7311,-4.6265,-4.6326,-4.7127,-4.6603,-4.6388,-4.6388,-4.6388,0.0,0.0,0.0,0.0,0.0,0.0,0.0,0.0,-4.461,-4.461,-4.461,-4.461,-4.4702,-4.4918,-4.5249,-4.5957,-4.688,-4.8112,-5.0236,-5.2267,-5.3098,-5.4145,-5.4668,-5.3775,-5.5161,-5.6207,-5.5036,-5.4222,-5.3883,0.0,0.0,0.0,0.0,0.0,0.0,0.0,0.0,0.0,0.0,0.0,0.0,0.0,0.0,0.0,0.0,0.0,0.0,-5.0913,-5.0266,-5.0143,-5.0697,-4.9589,-4.9343,0.0,-4.9189,-4.885,-4.885,-4.885,-4.885,-4.885,-4.8696,-4.8563,-4.8521,-4.8343,-4.826,-4.8175,-4.786,-4.7748,-4.7795,-4.8355,-4.8596,-4.8775,0.0,0.0,0.0,0.0,0.0,0.0,0.0,0.0,0.0,0.0,0.0,0.0,0.0,-4.9018,0.0,0.0,-4.845,-4.8161,-4.7406,-4.7737,-4.7935,-4.7863,-4.8169,-4.8115,-4.7713,-4.7719,-4.7063,-4.5588,-4.5926,-4.5588,-4.4633,-4.6665,-4.725,-4.6665,-4.8019,-4.805,-4.7065,-4.6018,-4.5988,-4.6603,-4.6265,-4.6111,-4.6111,-4.6111,-4.5464,-4.461,-4.461,0.0,0.0,0.0,0.0,0.0,0.0,0.0,-4.461,-4.461,-4.4856,-4.5218,-4.5895,-4.6573,-4.7558,-4.9589,-5.1405,-5.2975,-5.3914,-5.4191,-5.4099,-5.3775,-5.4822,-5.5561,-5.4806,-5.4406,-5.4283,0.0,0.0,0.0,0.0,0.0,0.0,0.0,0.0,0.0,0.0,0.0,0.0,0.0,0.0,0.0,0.0,-5.0236,-4.9866,-5.0205,-4.9528,-4.9343,-4.9682,-4.8974,-4.8789,-4.9158,-4.8789,-4.8604,-4.8604,-4.8604,-4.8604,-4.8604,-4.8604,-4.8604,-4.8563,-4.8355,-4.8301,-4.826,-4.7794,-4.7581,-4.7641,-4.7785,-4.8027,-4.8327,0.0,0.0,0.0,0.0,0.0,0.0,0.0,0.0,0.0,0.0,0.0,0.0,0.0,-4.9018,-4.9018,0.0,0.0,0.0,-4.7237,-4.7035,-4.7531,-4.876,-4.8698,-4.8655,-4.8694,-4.7997,-4.704,-4.5772,-4.5772,-4.5403,-4.4825,-4.6696,-4.725,-4.6634,-4.7896,-4.7681,-4.6388,-4.5711,-4.5495,-4.5588,-4.5588,-4.5588,-4.5588,-4.5588,-4.5157,-4.461,-4.461,-4.461,-4.461,-4.461,0.0,0.0,0.0,0.0,-4.461,-4.461,-4.501,-4.5557,-4.6234,-4.7096,-4.8389,-5.0913,-5.1959,-5.2729,-5.4037,-5.3868,-5.3514,-5.4191,-5.4437,-5.4529,-5.4652,-5.4498,0.0,0.0,0.0,0.0,0.0,0.0,0.0,0.0,0.0,0.0,0.0,0.0,0.0,0.0,0.0,0.0,-5.0513,-4.9312,-4.8881,-4.9497,-4.8912,-4.8604,-4.8604,-4.8604,-4.8604,-4.8604,-4.8604,-4.8604,-4.8604,-4.8604,-4.8604,-4.8604,-4.8604,-4.8604,-4.8563,-4.8427,-4.8343,-4.826,-4.7837,-4.7624,-4.7581,-4.7396,-4.7638,-4.8117,0.0,0.0,0.0,0.0,0.0,0.0,0.0,0.0,0.0,0.0,-4.9018,-4.9018,-4.9018,-4.9018,-4.9018,-4.9018,-4.8892,-4.8798,-4.8704,0.0,0.0,-4.7937,-4.8031,-4.796,-4.7765,-4.7777,-4.7355,-4.6449,-4.6449,-4.6111,-4.5495,-4.6942,-4.725,-4.6634,-4.7404,-4.7004,-4.568,-4.5041,-4.5064,-4.5588,-4.5588,-4.5588,-4.5588,-4.5588,-4.5157,-4.461,-4.461,-4.461,-4.461,-4.461,-4.461,0.0,0.0,0.0,-4.461,-4.461,-4.4671,-4.4887,-4.5526,-4.7065,-4.885,-5.0451,-5.0882,-5.1313,-5.2667,-5.2452,-5.2175,-5.2852,-5.3437,-5.3976,-5.456,0.0,0.0,0.0,0.0,0.0,0.0,0.0,0.0,0.0,0.0,0.0,0.0,0.0,0.0,0.0,0.0,0.0,-4.9805,-4.9066,-4.8666,-4.8758,-4.8666,-4.8604,-4.8604,-4.8604,-4.8604,-4.8604,-4.8604,-4.8604,-4.8604,-4.8604,-4.8604,-4.8604,-4.8604,-4.8604,-4.8604,-4.8563,-4.8469,-4.8301,-4.8049,-4.7794,-4.7581,-4.7396,-4.7369,-4.7429,0.0,0.0,0.0,0.0,0.0,0.0,0.0,0.0,0.0,0.0,0.0,-4.9018,-4.9018,-4.9018,-4.9018,-4.9018,-4.9018,-4.8829,-4.8418,-4.7664,-4.7435,-4.7864,-4.7822,-4.7749,-4.7723,-4.7325,-4.678,-4.6018,-4.6419,-4.6449,-4.6172,-4.7157,-4.7434,-4.7188,-4.7465,-4.7065,-4.6111,-4.5434,-4.5095,-4.5033,-4.5033,-4.5033,-4.5033,-4.5033,-4.4849,-4.461,-4.461,-4.461,-4.461,-4.461,-4.461,-4.461,-4.461,0.0,0.0,0.0,-4.461,-4.4764,-4.5403,-4.7065,-4.8758,-4.9374,-5.0389,-5.1405,-5.2021,-5.1929,-5.1898,-5.2575,-5.2637,-5.279,-5.3468,0.0,0.0,0.0,0.0,0.0,0.0,0.0,0.0,0.0,0.0,0.0,0.0,0.0,0.0,0.0,0.0,-4.9497,-4.9097,-4.8789,-4.8604,-4.8604,-4.8604,-4.8604,-4.8604,-4.8604,-4.8604,-4.8604,-4.8604,-4.8604,-4.8604,-4.8604,-4.8604,-4.8604,-4.8604,-4.8604,-4.8604,-4.8604,-4.848,-4.8301,-4.8091,-4.7922,-4.7794,-4.7538,-4.7482,-4.7512,0.0,0.0,0.0,0.0,0.0,0.0,0.0,0.0,0.0,0.0,0.0,-4.9018,-4.9018,0.0,0.0,0.0,-4.8736,-4.8418,-4.7638,-4.7036,-4.6929,-4.7326,-4.7257,-4.7227,-4.7233,-4.6648,-4.608,-4.5588,-4.6265,-4.6603,-4.6603,-4.7281,-4.7681,-4.7865,-4.7681,-4.7219,-4.6542,-4.5865,-4.5311,-4.4856,-4.4671,-4.461,-4.461,-4.461,-4.461,-4.461,-4.461,-4.4733,-4.4856,-4.4671,-4.4733,-4.4787,-4.4671,-4.461,0.0,0.0,0.0,-4.4764,-4.5403,-4.6696,-4.7958,-4.8481,-4.9651,-5.079,-5.1313,-5.1313,-5.1374,0.0,-5.1805,-5.159,0.0,0.0,0.0,0.0,0.0,0.0,0.0,0.0,0.0,0.0,0.0,0.0,0.0,0.0,0.0,0.0,0.0,-4.9189,-4.8635,-4.8604,-4.8604,-4.8604,-4.8604,-4.8604,-4.8604,-4.8604,-4.8604,-4.8604,-4.8604,-4.8604,-4.8604,-4.8604,-4.8604,-4.8604,-4.8604,-4.8604,-4.8604,-4.8604,-4.848,-4.8301,-4.8133,-4.8049,-4.7964,-4.7794,-4.7709,-4.777,0.0,0.0,0.0,0.0,0.0,0.0,0.0,0.0,0.0,0.0,0.0,-4.9018,-4.9018,-4.9018,-4.8736,-4.8032,-4.7967,-4.7638,-4.6931,-4.6825,-4.6477,-4.5868,-4.5828,0.0,-4.5735,-4.5688,-4.5618,-4.5588,-4.6265,-4.6603,-4.6603,-4.7281,-4.7958,-4.8543,-4.7896,-4.7219,-4.6542,-4.5865,-4.5557,-4.5464,-4.4887,-4.461,-4.461,-4.461,-4.461,-4.461,-4.461,-4.5003,-4.5434,-4.4825,-4.5003,-4.5434,-4.4825,-4.461,-4.461,0.0,0.0,0.0,-4.5403,-4.568,-4.6203,-4.8142,-4.8204,-4.8327,-5.0297,-5.0266,-4.9989,-5.0667,-5.0759,-5.0759,0.0,0.0,0.0,0.0,0.0,0.0,0.0,0.0,0.0,0.0,0.0,0.0,0.0,0.0,0.0,0.0,0.0,-4.8666,-4.8604,-4.8604,-4.8604,-4.8604,-4.8604,-4.8604,-4.8604,-4.8604,-4.8604,-4.8604,-4.8604,-4.8604,-4.8604,-4.8604,-4.8604,-4.8604,-4.8604,-4.8604,-4.8604,-4.8604,-4.848,-4.8301,-4.8301,-4.8175,-4.8007,-4.7964,-4.7964,-4.7964,0.0,0.0,0.0,0.0,0.0,0.0,0.0,0.0,0.0,0.0,0.0,0.0,0.0,-4.9018,-4.8892,-4.8608,-4.7737,-4.7069,-4.6828,-4.6702,-4.6573,-4.6355,-4.6278,-4.6083,-4.5626,-4.5157,-4.4941,-4.4941,-4.5618,-4.5957,-4.5988,-4.7096,-4.7742,-4.7989,-4.8173,-4.7865,-4.7219,-4.7004,-4.6634,-4.6203,-4.5957,-4.5865,-4.5865,-4.5865,-4.5865,-4.5926,-4.6357,-4.6665,-4.6911,-4.7096,-4.6757,-4.6203,-4.5957,-4.528,-4.461,-4.461,-4.461,-4.4671,-4.4918,-4.5249,-4.5772,-4.648,-4.7127,-4.7804,-4.8543,-4.885,-4.9189,-4.9897,-5.0051,0.0,0.0,0.0,0.0,0.0,0.0,0.0,0.0,0.0,0.0,0.0,0.0,0.0,0.0,0.0,0.0,0.0,0.0,0.0,-4.8604,-4.8604,-4.8604,-4.8604,-4.8604,-4.8604,-4.8604,-4.8604,-4.8604,-4.8604,-4.8604,-4.8604,-4.8604,-4.8604,-4.8604,-4.8604,-4.8604,-4.8604,-4.8604,-4.8604,-4.848,-4.8301,-4.8301,-4.826,-4.8218,-4.8218,-4.8218,-4.8236,0.0,0.0,0.0,-4.7669,0.0,-4.8443,-4.8951,-4.9018,-4.8892,-4.8639,0.0,0.0,0.0,0.0,-4.8513,-4.829,-4.6898,-4.6056,-4.6056,-4.6202,-4.616,-4.5978,-4.6137,-4.5926,-4.5249,-4.4856,-4.461,-4.461,-4.5033,-4.5372,-4.5618,-4.6511,-4.7065,-4.7281,-4.7742,-4.7927,-4.7958,-4.7958,-4.7558,-4.6911,-4.6696,-4.6603,-4.6603,-4.685,-4.6942,-4.7065,-4.7989,-4.8296,-4.8358,-4.882,-4.8204,-4.7188,-4.6726,-4.568,-4.461,-4.461,-4.461,-4.461,-4.461,-4.4949,-4.5311,-4.5526,-4.6265,-4.7004,-4.7219,-4.7804,-4.8419,-4.8881,-4.9158,0.0,0.0,0.0,0.0,0.0,0.0,0.0,0.0,0.0,0.0,0.0,0.0,0.0,0.0,0.0,0.0,0.0,0.0,0.0,-4.8604,-4.8604,-4.8604,-4.8604,-4.8604,-4.8604,-4.8604,-4.8604,-4.8604,-4.8604,-4.8604,-4.8604,-4.8604,-4.8604,-4.8604,-4.8604,-4.8604,-4.8604,-4.8604,-4.8604,-4.8521,-4.8427,-4.8427,-4.8427,-4.8427,-4.8427,-4.8427,-4.8488,0.0,-4.6312,-4.7022,-4.78,-4.8545,-4.9018,-4.9018,-4.9018,-4.8767,-4.8032,0.0,0.0,0.0,0.0,0.0,-4.6862,-4.5442,-4.4648,-4.4648,-4.5257,-4.5318,-4.4671,-4.5287,-4.528,-4.4641,-4.4641,-4.4641,-4.4641,-4.4641,-4.4949,-4.5588,-4.5588,-4.5926,-4.6573,-4.6634,-4.7373,-4.8543,-4.8573,-4.8235,-4.7619,-4.6973,-4.6726,-4.6819,-4.7496,-4.7742,-4.7927,-4.9312,-4.9805,-4.9805,-4.9805,-4.9312,-4.8419,-4.7004,-4.5649,-4.461,-4.461,-4.461,-4.461,0.0,0.0,0.0,-4.5403,-4.5557,-4.5741,-4.6419,-4.7065,-4.7558,-4.7588,-4.8112,0.0,0.0,0.0,0.0,0.0,0.0,0.0,0.0,0.0,0.0,0.0,0.0,0.0,0.0,0.0,0.0,0.0,0.0,-4.8604,-4.8604,-4.8604,-4.8604,-4.8604,-4.8604,-4.8604,-4.8604,-4.8604,-4.8604,-4.8604,-4.8604,-4.8604,-4.8604,-4.8604,-4.8604,-4.8604,-4.8604,-4.8604,-4.8604,-4.8604,-4.8604,-4.8604,-4.8635,-4.8635,-4.8635,-4.8635,-4.8635,-4.8635,-4.6244,-4.665,-4.7192,-4.8477,-4.8883,-4.9018,-4.9018,-4.9018,-4.8923,0.0,0.0,0.0,-4.7901,-4.7406,-4.6795,-4.6092,-4.5624,-4.54,-4.54,-4.5532,-4.5765,-4.6084,-4.5773,-4.5495,-4.5311,-4.4856,-4.4856,-4.5311,-4.4856,-4.4949,-4.5588,-4.5588,-4.568,-4.5926,-4.7404,-4.7711,-4.7188,-4.7681,-4.8358,-4.9127,-4.9435,-4.9866,-5.0359,-5.1036,-5.1313,-5.1405,-5.2298,-5.2606,-5.2606,-5.2606,-5.1498,-4.962,-4.6757,-4.528,-4.461,-4.461,-4.461,-4.461,-4.461,0.0,0.0,0.0,0.0,0.0,-4.5711,-4.6018,-4.6419,-4.7404,-4.7742,0.0,0.0,0.0,0.0,0.0,0.0,0.0,0.0,0.0,0.0,0.0,0.0,0.0,0.0,0.0,0.0,0.0,-4.8604,-4.8604,-4.8604,-4.8604,-4.8604,-4.8604,-4.8604,-4.8604,-4.8604,-4.8604,-4.8604,-4.8604,-4.8604,-4.8604,-4.8604,-4.8604,-4.8604,-4.8604,-4.8604,-4.8604,-4.8604,-4.8604,-4.8604,-4.8666,-4.9189,-4.9404,-4.9404,-4.9404,-4.9404,-4.9312,-4.6109,-4.6583,-4.7158,-4.8342,-4.8815,-4.8892,-4.8576,-4.8545,-4.8322,0.0,0.0,0.0,-4.6967,-4.6588,-4.6163,-4.5733,-4.5405,-4.5253,-4.5253,-4.5456,-4.5665,-4.5809,-4.5703,-4.5464,-4.5187,-4.4825,-4.4795,-4.5157,-4.4795,-4.4825,-4.5157,-4.5157,-4.5157,-4.5218,-4.6419,-4.6634,-4.6234,-4.6911,-4.7989,-4.9281,-4.9989,-5.0667,-5.1374,-5.2359,-5.2698,-5.2883,-5.4114,-5.436,-5.4145,-5.4145,-5.2606,-5.0205,-4.7342,-4.5957,-4.5372,-4.5095,-4.4787,-4.461,-4.461,-4.461,-4.461,-4.461,0.0,0.0,-4.5064,-4.5372,-4.5895,0.0,-4.7188,0.0,0.0,0.0,0.0,0.0,0.0,0.0,0.0,0.0,0.0,0.0,0.0,0.0,0.0,0.0,0.0,-4.8604,-4.8604,-4.8604,-4.8604,-4.8604,-4.8604,-4.8604,-4.8604,-4.8604,-4.8604,-4.8604,-4.8604,-4.8604,-4.8604,-4.8604,-4.8604,-4.8604,-4.8604,-4.8604,-4.8604,-4.8604,-4.8635,-4.8943,-4.9066,-4.9097,-4.9528,-4.9682,-4.9682,-4.9682,-4.9497,-4.9189,0.0,-4.6287,-4.7005,-4.7646,-4.8394,-4.8647,-4.7968,-4.7869,-4.7436,0.0,-4.5832,-4.566,-4.5588,-4.5588,-4.5588,-4.5588,-4.4955,-4.461,-4.461,-4.5157,-4.5218,-4.4641,-4.5157,-4.5187,-4.4641,-4.461,-4.4641,-4.4733,-4.4641,-4.4641,-4.4733,-4.4603,-4.461,-4.461,-4.4702,-4.4972,-4.5526,-4.6357,-4.7404,-4.8604,-4.962,-5.0482,-5.1282,-5.2637,-5.316,-5.3406,-5.5161,-5.5407,-5.4745,-5.4437,-5.276,-5.0359,-4.8358,-4.725,-4.6603,-4.5988,-4.528,-4.4733,-4.4733,-4.4671,-4.461,-4.461,-4.461,0.0,-4.4664,-4.5095,-4.568,-4.6449,-4.6542,0.0,0.0,0.0,0.0,0.0,0.0,0.0,0.0,0.0,0.0,0.0,0.0,0.0,0.0,-4.8604,-4.8604,-4.8604,-4.8604,-4.8604,-4.8604,-4.8604,-4.8604,-4.8604,-4.8604,-4.8604,-4.8604,-4.8604,-4.8604,-4.8604,-4.8604,-4.8604,-4.8604,-4.8604,-4.8604,-4.8604,-4.8604,-4.8604,-4.8666,-4.9312,-4.9558,-4.9589,-4.9743,-4.9743,-4.9682,-4.9682,-4.9281,-4.8727,-4.5669,-4.627,-4.6866,-4.6999,-4.7572,-4.7983,-4.7844,-4.7844,-4.774,-4.7423,-4.6407,-4.5478,-4.488,-4.4836,-4.4836,-4.4836,-4.4685,-4.461,-4.461,-4.4695,-4.4764,-4.461,-4.4733,-4.4726,-4.461,-4.461,-4.4849,-4.5372,-4.4849,-4.4887,-4.5372,-4.4856,-4.461,-4.4641,-4.5157,-4.5157,-4.488,-4.6665,-4.7558,-4.805,-5.0944,-5.2852,-5.4083,-5.5468,-5.6009,-5.607,-5.6471,-5.6115,-5.5191,-5.3006,-5.159,-5.042,0.0,0.0,0.0,-4.725,-4.6357,-4.5372,-4.5372,-4.5003,-4.461,0.0,0.0,0.0,-4.528,-4.5064,-4.5126,0.0,-4.6172,0.0,0.0,0.0,0.0,0.0,0.0,0.0,0.0,0.0,0.0,0.0,0.0,0.0,0.0,-4.8604,-4.8604,-4.8604,-4.8604,-4.8604,-4.8604,-4.8604,-4.8604,-4.8604,-4.8604,-4.8604,-4.8604,-4.8604,-4.8604,-4.8604,-4.8604,-4.8604,-4.8604,-4.8604,-4.8604,-4.8604,-4.8604,-4.8604,-4.8635,-4.8758,-4.882,-4.8943,-5.0051,-5.0174,-4.9682,-4.9682,-4.9589,-4.9466,-4.4589,-4.5549,-4.6282,-4.6258,-4.7403,-4.8109,-4.7365,-4.7257,-4.7112,-4.674,-4.5808,-4.4993,-4.4648,-4.461,-4.461,-4.461,-4.461,-4.461,-4.461,-4.461,-4.461,-4.461,-4.461,-4.4764,-4.5064,-4.5095,-4.5249,-4.5588,-4.5249,-4.5095,-4.5064,-4.4764,-4.461,-4.4641,-4.4941,-4.488,-4.4726,-4.6757,-4.7804,-4.8358,-5.1097,-5.2821,-5.3899,-5.5592,-5.6238,-5.6269,-5.6686,-5.6347,-5.5376,-5.3375,-5.2267,0.0,-5.0082,-4.8943,-4.8112,0.0,-4.7157,-4.608,0.0,0.0,0.0,-4.5588,0.0,0.0,0.0,-4.5064,-4.4918,-4.5895,-4.5557,-4.5318,0.0,0.0,0.0,0.0,0.0,0.0,0.0,0.0,0.0,0.0,0.0,0.0,0.0,-4.8604,-4.8604,-4.8604,-4.8604,-4.8604,-4.8604,-4.8604,-4.8604,-4.8604,-4.8604,-4.8604,-4.8604,-4.8604,-4.8604,-4.8604,-4.8604,-4.8604,-4.8604,-4.8604,-4.8604,-4.8604,-4.8604,-4.8604,-4.8635,-4.9004,-4.8943,-4.8727,-4.9774,-4.9989,-4.9682,-4.9682,-4.9466,-4.9158,-4.3396,-4.469,-4.557,-4.5495,-4.7125,-4.7993,-4.6665,-4.6605,-4.6378,-4.555,-4.5033,-4.4856,-4.4941,-4.501,-4.5164,-4.5565,-4.5226,-4.5033,-4.5157,-4.4949,-4.4726,-4.461,-4.461,-4.4856,-4.5372,-4.5403,-4.5403,-4.5403,-4.5403,-4.5126,-4.461,-4.461,-4.461,-4.461,-4.4726,-4.4849,-4.5095,-4.7004,-4.8204,-4.9004,-5.1221,-5.2329,-5.2944,-5.4914,-5.553,-5.5376,-5.5961,-5.5807,-5.5099,-5.3775,-5.3067,-5.2483,-5.1128,-4.9928,0.0,0.0,0.0,0.0,0.0,0.0,0.0,0.0,0.0,-4.5588,0.0,0.0,0.0,0.0,0.0,0.0,0.0,0.0,0.0,0.0,0.0,0.0,0.0,0.0,0.0,0.0,0.0,0.0,0.0,-4.8543,-4.8604,-4.8604,-4.8604,-4.8604,-4.8604,-4.8604,-4.8604,-4.8604,-4.8604,-4.8604,-4.8604,-4.8604,-4.8604,-4.8604,-4.8604,-4.8604,-4.8604,-4.8604,-4.8604,-4.8604,-4.8604,-4.8604,-4.8666,-4.9251,-4.9127,-4.8696,-4.9404,-4.9589,-4.9497,-4.9497,-4.9097,-4.8666,-4.3202,-4.4257,-4.4805,-4.4725,-4.5884,-4.6586,-4.5843,-4.6237,-4.6167,-4.4887,-4.5157,-4.5711,-4.6296,-4.6357,-4.7096,-4.8943,-4.7434,-4.6634,-4.7219,-4.6142,-4.5218,-4.4641,-4.461,-4.4641,-4.4733,-4.4733,-4.4733,-4.4733,-4.4733,-4.4702,-4.461,-4.461,-4.461,-4.4641,-4.5218,-4.5803,-4.6449,-4.7896,-4.8912,-4.9805,-5.2421,-5.3191,-5.2944,-5.4914,-5.4976,-5.396,-5.4022,-5.4022,-5.3745,0.0,-5.2267,-5.2483,0.0,-5.0574,-5.0328,-4.9743,0.0,0.0,0.0,0.0,0.0,0.0,-4.608,0.0,0.0,0.0,-4.4641,-4.4702,0.0,0.0,0.0,0.0,0.0,0.0,0.0,0.0,0.0,0.0,0.0,0.0,0.0,0.0,0.0,0.0,-4.8604,-4.8604,-4.8604,-4.8604,-4.8604,-4.8604,-4.8604,-4.8604,-4.8604,-4.8604,-4.8604,-4.8604,-4.8604,-4.8604,-4.8604,-4.8604,-4.8604,-4.8604,-4.8604,-4.8604,-4.8604,-4.8604,-4.8635,-4.8696,-4.8696,-4.8696,-4.9404,-4.9281,-4.8727,-4.8727,-4.8696,-4.8789,-4.2761,-4.3605,-4.4232,-4.4543,-4.5765,-4.6406,-4.5696,-4.5834,-4.568,-4.4695,-4.4856,-4.5403,-4.648,-4.6234,-4.6819,-4.8881,-4.7896,-4.7465,-4.8142,-4.6911,-4.6388,-4.6911,-4.5403,-4.5126,-4.6296,-4.5557,-4.5157,-4.5157,-4.5157,-4.501,-4.461,-4.461,-4.4825,-4.5187,-4.5865,-4.6542,-4.7311,-4.9066,-4.9774,-4.9897,-5.2206,-5.2729,-5.2421,-5.5253,-5.5961,-5.5499,-5.5499,-5.5222,-5.473,0.0,-5.3129,0.0,0.0,0.0,0.0,-5.0236,0.0,0.0,0.0,0.0,0.0,0.0,0.0,0.0,-4.685,0.0,-4.5157,0.0,0.0,0.0,0.0,0.0,0.0,0.0,-4.4764,0.0,0.0,0.0,0.0,0.0,0.0,0.0,0.0,0.0,0.0,0.0,0.0,-4.845,-4.805,-4.8389,-4.8604,-4.8604,-4.8604,-4.8604,-4.8604,-4.8604,-4.8604,-4.8604,-4.8604,-4.8604,-4.8604,-4.8604,-4.8604,-4.8604,-4.8604,-4.8604,-4.8604,-4.8604,-4.8604,-4.8635,-4.8943,-4.8881,-4.8604,-4.8604,-4.8881,-4.9312,-4.2725,-4.3287,-4.3845,-4.4469,-4.559,-4.6247,-4.5704,-4.5434,-4.5126,-4.4671,-4.491,-4.5649,-4.7004,-4.7373,-4.8358,-5.0389,-4.9928,-4.9682,-4.9989,-4.8389,-4.7804,-4.8573,-4.6542,-4.6111,-4.7558,-4.6449,-4.5772,-4.5588,-4.5403,-4.5249,-4.5126,-4.4756,-4.5126,-4.6172,-4.6665,-4.7373,-4.8296,-5.0174,-5.0913,-5.0913,-5.239,-5.279,-5.276,-5.4853,-5.5869,-5.6146,-5.5776,-5.5315,-5.4791,-5.433,-5.3529,0.0,-5.2483,0.0,-5.0297,0.0,0.0,0.0,-4.9805,0.0,0.0,0.0,0.0,0.0,0.0,0.0,0.0,0.0,0.0,0.0,0.0,0.0,-4.4548,-4.4787,0.0,-4.4579,0.0,0.0,0.0,0.0,0.0,0.0,0.0,0.0,0.0,-4.6665,-4.7681,-4.805,-4.7373,-4.7958,-4.8419,-4.8604,-4.8604,-4.8604,-4.8604,-4.8604,-4.8604,-4.8604,-4.8604,-4.8604,-4.8604,-4.8604,-4.8604,-4.8604,-4.8604,-4.8604,-4.8604,-4.8604,-4.8604,-4.8635,-4.882,-4.8912,-4.8912,-4.8912,-4.9251,-4.9774,-4.3439,-4.3562,-4.3815,-4.4486,-4.5164,-4.5626,-4.5588,-4.5033,-4.4641,-4.461,-4.5711,-4.7065,-4.8389,-5.0913,-5.3283,-5.5284,-5.4884,-5.4191,-5.3591,-5.1067,-4.9281,-4.8635,-4.7896,-4.7527,-4.7619,-4.6911,-4.6234,-4.5588,-4.4941,-4.528,-4.6511,-4.5187,-4.5649,-4.7558,-4.7558,-4.8327,-4.9712,-5.1097,-5.2421,-5.3591,-5.3652,-5.4037,-5.4468,0.0,-5.3652,-5.4591,-5.3314,0.0,0.0,-5.279,-5.276,0.0,0.0,0.0,0.0,0.0,0.0,0.0,0.0,0.0,0.0,-5.0513,0.0,0.0,0.0,0.0,-4.5772,0.0,0.0,0.0,0.0,0.0,-4.6296,-4.5649,-4.5526,0.0,0.0,0.0,0.0,0.0,0.0,0.0,0.0,0.0,0.0,-4.6696,-4.725,-4.7342,-4.6665,-4.7281,-4.7927,-4.8604,-4.8604,-4.8604,-4.8604,-4.8604,-4.8604,-4.8604,-4.8604,-4.8604,-4.8604,-4.8604,-4.8604,-4.8604,-4.8604,-4.8604,-4.8604,-4.8604,-4.8604,-4.8696,-4.9374,-4.9651,-4.9651,-4.9651,-4.9682,-4.9959,-4.3562,-4.3963,-4.4332,-4.4579,-4.4795,-4.4949,-4.4949,-4.4764,-4.5403,-4.765,-4.8358,-5.002,-5.3622,-5.4422,-5.5499,-5.7562,-5.67,-5.5992,-5.5745,-5.3191,-5.1775,-5.199,-4.9589,-4.8512,-4.8974,-4.7865,-4.6726,-4.5588,-4.5372,-4.5495,-4.5895,-4.5003,-4.5434,-4.6973,-4.7404,-4.8389,-4.9774,-5.1128,-5.1959,-5.2421,-5.2883,-5.3468,-5.3976,0.0,0.0,-5.4621,-5.416,-5.3775,0.0,-5.3375,-5.3098,-5.2667,-5.2452,-5.2082,-5.1652,-5.1436,-5.1036,0.0,0.0,0.0,-5.1067,-5.1313,0.0,0.0,0.0,0.0,0.0,0.0,0.0,0.0,0.0,-4.6603,-4.6357,-4.5711,-4.5588,-4.5495,0.0,0.0,0.0,0.0,0.0,0.0,0.0,0.0,0.0,-4.5341,-4.5895,-4.6172,0.0,-4.7004,-4.7927,-4.8604,-4.8604,-4.8604,-4.8604,-4.8604,-4.8604,-4.8604,-4.8604,-4.8604,-4.8604,-4.8604,-4.8604,-4.8604,-4.8604,-4.8604,-4.8604,-4.8604,-4.8604,-4.8696,-4.9404,-4.9959,-5.042,-5.0851,-5.1313,-5.1929,-4.3963,-4.4302,-4.461,-4.461,-4.461,-4.461,-4.461,-4.5657,-4.7096,-4.9035,-5.0759,-5.2975,-5.6053,-5.7069,-5.8054,-5.9378,-5.9131,-5.8393,-5.7241,-5.5499,-5.4268,-5.3699,-5.1621,-5.0543,0.0,0.0,0.0,-4.6665,-4.5926,-4.5957,-4.6634,-4.5464,-4.5803,-4.7342,-4.7773,-4.845,-4.9404,-5.1005,-5.1836,-5.2082,-5.2544,-5.2821,0.0,0.0,-5.356,-5.4283,0.0,-5.3745,-5.3375,-5.3375,-5.3067,-5.2698,-5.2698,-5.2421,-5.2052,-5.2052,-5.1744,-5.1498,-5.1959,-5.1898,0.0,-5.2021,-5.0851,0.0,-5.0605,0.0,0.0,0.0,0.0,0.0,0.0,0.0,-4.7004,-4.608,-4.5957,-4.5526,0.0,-4.4671,0.0,0.0,0.0,0.0,0.0,0.0,-4.5618,-4.3987,-4.4941,-4.5495,0.0,0.0,-4.7681,-4.8573,-4.8604,-4.8604,-4.8604,-4.8604,-4.8604,-4.8604,-4.8604,-4.8604,-4.8604,-4.8604,-4.8604,-4.8604,-4.8604,-4.8604,-4.8604,-4.8604,-4.8604,-4.8696,-4.9682,-5.0451,-5.1128,-5.1805,-5.279,-5.3899,-4.461,-4.461,-4.461,-4.461,-4.461,-4.461,-4.461,-4.7465,-4.9435,-4.8943,-5.2944,-5.5899,-5.6084,-5.9039,-6.1009,-6.1009,-6.2148,-6.1502,-5.8239,-5.798,-5.67,0.0,-5.3822,-5.3498,-5.276,0.0,0.0,0.0,-4.6665,-4.6665,-4.8512,-4.6542,-4.6665,-4.8512,-4.8573,-4.8604,-4.8758,-5.079,-5.2052,-5.2667,-5.2698,-5.2329,-5.1744,-5.1744,-5.2544,-5.3591,-5.2944,-5.2698,-5.2698,-5.2698,-5.2698,-5.2698,-5.2698,-5.2698,-5.2698,-5.2698,-5.2698,-5.2698,-5.2698,-5.2236,-5.1898,-5.2544,0.0,0.0,0.0,0.0,-5.0636,0.0,0.0,0.0,0.0,0.0,0.0,-4.6819,-4.6542,-4.5834,-4.3932,0.0,0.0,0.0,0.0,0.0,0.0,-4.7127,-4.6142,-4.294,-4.4449,-4.5249,0.0,0.0,-4.7219,-4.8573,-4.8604,-4.8604,-4.8604,-4.8604,-4.8604,-4.8604,-4.8604,-4.8604,-4.8604,-4.8604,-4.8604,-4.8604,-4.8604,-4.8604,-4.8604,-4.8604,-4.8604,-4.8758,-5.0143,-5.1159,-5.1929,-5.2606,-5.4083,-5.5745,-4.461,-4.461,-4.461,-4.461,-4.461,-4.461,-4.461,-4.7034,-4.9743,-5.2113,-5.5653,-5.8947,-6.1471,-6.301,-6.3841,-6.3841,-6.3687,-6.2979,-6.1625,-6.0116,0.0,-5.7531,-5.5992,-5.4637,-5.3498,-5.1959,-5.0605,-4.9404,-4.7835,-4.7342,-4.7835,-4.6819,-4.6603,-4.7157,-4.8173,-4.8604,-4.8727,-5.0297,-5.1344,-5.2021,-5.2513,-5.2606,-5.2452,0.0,-5.2667,-5.2944,-5.276,-5.2698,-5.2698,-5.2698,-5.2698,-5.2698,-5.2698,-5.2698,-5.2698,-5.2698,-5.2698,-5.2698,-5.2698,-5.2575,-5.2483,-5.2667,-5.1559,-5.0697,0.0,0.0,0.0,0.0,0.0,0.0,0.0,0.0,0.0,-4.6726,-4.5741,-4.491,-4.4425,0.0,0.0,-4.6203,0.0,0.0,0.0,-4.6142,-4.5003,-4.4141,-4.4117,0.0,0.0,0.0,0.0,-4.8573,-4.8604,-4.8604,-4.8604,-4.8604,-4.8604,-4.8604,-4.8604,-4.8604,-4.8604,-4.8604,-4.8604,-4.8604,-4.8604,-4.8604,-4.8604,-4.8604,-4.8604,-4.8758,-5.0143,-5.2021,-5.4022,-5.4699,-5.5592,-5.6532,-4.461,-4.461,-4.461,-4.461,-4.5663,-4.6593,-4.6775,-4.8358,-5.0636,-5.3699,-5.7377,-6.027,-6.1902,-6.3749,-6.4888,-6.4888,-6.4518,0.0,-6.2025,0.0,0.0,-5.8423,-5.7223,-5.5961,-5.4607,-5.2698,0.0,-5.0574,0.0,-4.7927,-4.8481,-4.7496,-4.688,-4.6665,-4.8327,-4.8758,-4.8296,-5.0297,-5.1344,-5.1744,-5.2113,-5.2267,0.0,-5.2267,-5.2452,-5.2698,-5.2698,-5.2698,-5.2698,-5.2698,-5.2698,-5.2698,-5.2698,-5.2698,-5.2698,-5.2698,-5.2698,-5.2698,-5.2698,-5.2698,-5.2698,-5.2698,-5.2144,-5.1744,-5.2421,-5.199,-5.1374,0.0,0.0,0.0,0.0,0.0,0.0,-4.6757,-4.5711,-4.5033,0.0,0.0,0.0,0.0,-4.6696,0.0,0.0,-4.5865,-4.4664,-4.3771,0.0,0.0,0.0,0.0,0.0,-4.8142,-4.8758,-4.8789,-4.8173,-4.8789,-4.8912,-4.8604,-4.8604,-4.8604,-4.8604,-4.8604,-4.8604,-4.8604,-4.8604,-4.8604,-4.8635,-4.8943,-4.9097,-4.9281,-5.1251,-5.3314,-5.5222,-5.5899,-5.6471,-5.681,-4.4641,-4.461,-4.4641,-4.4733,-4.7004,-4.9182,-5.0302,-5.1166,0.0,-5.4945,0.0,-6.0978,-6.0393,-6.3041,-6.4888,-6.4888,-6.4888,-6.3872,-6.1502,-6.2271,-6.1502,-5.8547,-5.8134,-5.7303,-5.5869,-5.3283,-5.1836,0.0,0.0,-4.8266,-4.9251,-4.8142,-4.7281,-4.6819,-4.8881,-4.9189,-4.8296,-5.0605,-5.1621,-5.1713,-5.1805,-5.1836,-5.1836,-5.1836,-5.2206,-5.2698,-5.2698,-5.2698,-5.2698,-5.2698,-5.2698,-5.2698,-5.2698,-5.2698,-5.2698,-5.2698,-5.2698,-5.2698,-5.2698,-5.2698,-5.2698,-5.2698,-5.2698,-5.2852,-5.3468,-5.3591,-5.3406,-5.2729,-5.2113,-5.1313,0.0,0.0,0.0,-4.6696,0.0,0.0,0.0,0.0,0.0,0.0,0.0,0.0,0.0,0.0,0.0,0.0,0.0,0.0,0.0,0.0,0.0,-4.7742,-4.882,0.0,-4.8019,0.0,-4.9312,-4.8881,-4.8696,-4.8604,-4.8604,-4.8604,-4.8604,-4.8604,-4.8604,-4.8666,-4.8789,-4.9435,-4.9835,-5.0328,-5.2852,-5.4607,-5.5776,-5.6532,-5.681,-5.681,-4.4733,-4.461,-4.4756,-4.5311,-4.6762,-4.9398,-5.396,-5.5921,-5.7152,-5.7968,-6.1132,-6.3256,-6.3133,-6.418,-6.4888,-6.4888,-6.4888,0.0,0.0,0.0,0.0,-6.1963,-5.9809,-5.7962,-5.6656,-5.4483,-5.2544,0.0,0.0,-4.7989,-4.7157,-4.7465,-4.7558,-4.7527,-4.9589,-5.0697,-5.0974,-5.0913,0.0,-5.1744,-5.2298,-5.2544,-5.2544,-5.2544,-5.2606,-5.2698,-5.2698,-5.2698,-5.2698,-5.2698,-5.2698,-5.2698,-5.2698,-5.2698,-5.2698,-5.2698,-5.2698,-5.2698,-5.2698,-5.2698,-5.2698,-5.2698,-5.2698,-5.2729,-5.2852,-5.2883,-5.2698,-5.2021,-5.1775,-5.1467,-5.0667,0.0,0.0,0.0,0.0,0.0,0.0,0.0,0.0,0.0,0.0,-4.7558,0.0,0.0,0.0,0.0,0.0,0.0,0.0,0.0,0.0,0.0,-4.8142,0.0,0.0,0.0,-4.9312,-5.0328,-4.9158,-4.8604,-4.8604,-4.8604,-4.8604,-4.8604,-4.8604,-4.8943,-4.9497,-4.962,-5.0667,-5.2329,-5.3883,-5.5007,-5.5776,-5.6532,-5.681,-5.681,-4.4671,-4.461,-4.5041,-4.6388,-4.8746,0.0,0.0,-5.909,-6.0554,-5.993,-6.1255,-6.224,-6.224,-6.3841,-6.4764,-6.4364,-6.4334,-6.4057,-6.3349,-6.2671,-6.1994,-6.1286,-5.9655,-5.7962,-5.6286,-5.4576,-5.2883,-5.1221,0.0,-4.8635,-4.765,-4.7989,-4.7742,-4.7188,-4.9251,-5.0759,-5.1713,0.0,0.0,-5.2267,-5.2575,-5.2698,-5.2698,-5.2698,-5.2698,-5.2698,-5.2698,-5.2698,-5.2698,-5.2698,-5.2698,-5.2698,-5.2698,-5.2698,-5.2698,-5.2698,-5.2698,-5.2698,-5.2698,-5.2698,-5.2698,-5.2698,-5.2698,-5.2698,-5.2698,-5.2698,-5.2637,-5.2298,-5.1682,-5.0974,-5.0297,-4.9035,0.0,0.0,0.0,0.0,0.0,0.0,0.0,0.0,0.0,0.0,0.0,0.0,0.0,0.0,0.0,0.0,0.0,0.0,0.0,0.0,0.0,0.0,0.0,0.0,0.0,-4.9589,-4.8943,-4.882,-4.9158,-4.9158,-4.9374,-4.9682,-4.9682,-5.0082,-5.079,-5.1498,-5.276,-5.433,-5.4976,-5.5653,-5.63,-5.6686,-5.681,-5.681,-4.5596,-4.5719,-4.6462,-4.8624,-5.1738,-5.4939,-5.7862,-6.0896,-6.2569,-6.1791,-6.1532,-6.144,-6.144,-6.3256,-6.4241,-6.3656,-6.3626,-6.3164,-6.2086,-6.1902,-6.1255,-6.0055,-5.9224,-5.7869,-5.5961,-5.4607,-5.3221,0.0,0.0,0.0,0.0,-4.8481,-4.8204,0.0,0.0,0.0,0.0,0.0,-5.2575,-5.2698,-5.2698,-5.2698,-5.2698,-5.2698,-5.2698,-5.2698,-5.2698,-5.2698,-5.2698,-5.2698,-5.2698,-5.2698,-5.2698,-5.2698,-5.2698,-5.2698,-5.2698,-5.2698,-5.2698,-5.2698,-5.2698,-5.2698,-5.2698,-5.2698,-5.2698,-5.2698,-5.2698,-5.2698,-5.1744,-5.0697,-5.002,-4.9189,0.0,0.0,0.0,0.0,0.0,0.0,0.0,0.0,0.0,0.0,-4.7958,0.0,0.0,0.0,0.0,0.0,0.0,0.0,0.0,0.0,0.0,-4.8912,-4.8266,0.0,-4.9312,0.0,-4.8912,-4.9127,-4.9682,-4.9835,-5.0266,-5.0913,-5.0913,-5.1374,-5.2236,-5.3591,-5.476,-5.5715,-5.5869,-5.6269,-5.681,-5.681,-5.681,-5.681,-4.8727,-4.9443,-5.0422,0.0,0.0,-5.7439,-5.9649,-6.1057,-6.2562,-6.4272,-6.3933,-6.3533,-6.3533,-6.3225,-6.2979,-6.2918,-6.2918,-6.2856,-6.2733,-6.2148,-6.1471,-6.0732,-5.947,-5.8165,-5.6748,-5.5315,-5.3683,0.0,0.0,0.0,0.0,0.0,0.0,0.0,0.0,0.0,0.0,-5.2021,-5.2144,-5.2698,-5.2698,-5.2698,-5.2698,-5.2698,-5.2698,-5.2698,-5.2698,-5.2698,-5.2698,-5.2698,-5.2698,-5.2698,-5.2698,-5.2698,-5.2698,-5.2698,-5.2698,-5.2698,-5.2698,-5.2698,-5.2698,-5.2698,-5.2698,-5.2698,-5.2698,-5.2698,-5.2698,-5.2698,-5.2113,-5.1405,-5.0728,-4.9528,-4.8604,0.0,0.0,0.0,0.0,0.0,-4.9035,-4.7742,0.0,0.0,0.0,-4.9158,0.0,0.0,0.0,0.0,0.0,0.0,0.0,-4.8481,0.0,-4.8635,-5.0389,-4.9281,0.0,-5.0482,-4.9866,-4.962,-4.9712,-5.0328,-5.0974,-5.1621,-5.1621,-5.2329,-5.3652,-5.4945,-5.5592,-5.5745,-5.6471,-5.6748,-5.681,-5.681,-5.681,-5.681,0.0,0.0,0.0,0.0,0.0,0.0,0.0,-6.2173,-6.3121,-6.4371,-6.3756,-6.3225,-6.3225,-6.2979,-6.2641,-6.224,-6.221,-6.2025,-6.1625,-6.1348,-6.0732,-5.9624,-5.907,-5.7777,-5.5592,-5.5007,-5.3745,0.0,0.0,0.0,0.0,0.0,0.0,0.0,0.0,-5.159,-5.2113,-5.2236,-5.2452,-5.2698,-5.2698,-5.2698,-5.2698,-5.2698,-5.2698,-5.2698,-5.2698,-5.2698,-5.2698,-5.2698,-5.2698,-5.2698,-5.2698,-5.2698,-5.2698,-5.2698,-5.2698,-5.2698,-5.2698,-5.2698,-5.2698,-5.2698,-5.2698,-5.2698,-5.2698,-5.2698,-5.2698,-5.2698,-5.2175,-5.1498,-5.082,-5.0236,-4.9589,0.0,0.0,0.0,0.0,0.0,0.0,-4.7127,0.0,-4.9528,0.0,0.0,0.0,0.0,0.0,0.0,0.0,0.0,0.0,-4.8604,0.0,-4.882,-5.0082,-4.9528,-4.9743,-5.0697,-5.042,-5.0728,-5.1498,-5.1775,-5.2513,-5.3529,-5.3929,-5.4391,-5.4976,-5.593,-5.6378,-5.6409,-5.6686,-5.681,-5.681,-5.681,-5.681,-5.681,-5.5954,0.0,-5.7723,0.0,-6.042,-6.171,-6.2588,-6.3285,-6.3789,-6.3975,-6.3441,-6.2924,-6.254,-6.2333,-6.2025,-6.1563,-6.1502,-6.1317,-6.0824,-6.0609,-5.9993,-5.8824,-5.8577,0.0,-5.5376,-5.4898,-5.3976,-5.2606,-5.1713,0.0,0.0,0.0,0.0,0.0,-5.1282,-5.1805,-5.2021,-5.2513,-5.2698,-5.2698,-5.2698,-5.2698,-5.2698,-5.2698,-5.2698,-5.2698,-5.2698,-5.2698,-5.2698,-5.2698,-5.2698,-5.2698,-5.2698,-5.2698,-5.2698,-5.2698,-5.2698,-5.2698,-5.2698,-5.2698,-5.2698,-5.2698,-5.2698,-5.2698,-5.2698,-5.2698,-5.2698,-5.2698,-5.2175,-5.1559,-5.1067,-5.082,-5.0359,-4.9374,0.0,0.0,0.0,0.0,0.0,0.0,-4.845,-4.9374,-4.8974,-4.8943,0.0,0.0,0.0,0.0,0.0,0.0,0.0,0.0,0.0,0.0,0.0,-4.9897,-5.0328,-5.1005,-5.1374,-5.2082,-5.3037,-5.3406,-5.4114,-5.5037,-5.5715,-5.5992,-5.6053,-5.6594,-5.681,-5.681,-5.681,-5.681,-5.681,-5.681,-5.681,-5.681,-5.9069,-6.0459,-6.1742,-6.3759,-6.4708,-6.4811,-6.3844,-6.4317,-6.4433,-6.3463,-6.3613,-6.3276,-6.1927,-6.1225,-6.0824,-6.0824,-6.0824,-6.0824,-6.0794,-6.0178,-5.9501,0.0,0.0,-5.7518,-5.681,-5.5407,-5.4683,-5.4652,0.0,0.0,-5.0697,0.0,-5.0389,-5.1682,-5.1682,-5.2082,-5.2698,-5.2698,-5.2698,-5.2698,-5.2698,-5.2698,-5.2698,-5.2698,-5.2698,-5.2698,-5.2698,-5.2698,-5.2698,-5.2698,-5.2698,-5.2698,-5.2698,-5.2698,-5.2698,-5.2698,-5.2698,-5.2698,-5.2698,-5.2698,-5.2698,-5.2698,-5.2698,-5.2698,-5.2698,-5.2698,-5.2698,-5.2698,-5.2175,-5.1713,-5.1682,-5.1159,-5.0697,-5.0667,0.0,0.0,0.0,0.0,0.0,0.0,-4.9989,-5.1128,-4.9805,0.0,0.0,0.0,0.0,0.0,0.0,0.0,0.0,-4.765,-4.8266,0.0,-4.9682,-5.0359,-5.1005,-5.1713,-5.3037,-5.3637,-5.3745,-5.5068,-5.5653,-5.5715,-5.6502,-5.681,-5.681,-5.681,-5.681,-5.681,-5.681,-5.681,-5.681,-5.681,-5.681,-5.681,-6.2958,-6.4112,-6.4975,-6.4995,-6.5678,-6.5975,-6.4934,-6.4963,-6.5036,-6.4714,-6.358,-6.2629,-6.2186,-6.1979,-6.1853,0.0,-6.1175,-6.0794,0.0,-6.0609,-5.9963,-5.8824,-5.8577,-5.75,-5.5407,-5.4945,-5.4222,-5.3345,0.0,0.0,0.0,-5.0728,-5.1036,-5.1036,-5.1498,-5.2082,-5.2698,-5.2698,-5.2698,-5.2698,-5.2698,-5.2698,-5.2698,-5.2698,-5.2698,-5.2698,-5.2698,-5.2698,-5.2698,-5.2698,-5.2698,-5.2698,-5.2698,-5.2698,-5.2698,-5.2698,-5.2698,-5.2698,-5.2698,-5.2698,-5.2698,-5.2698,-5.2698,-5.2698,-5.2698,-5.2698,-5.2698,-5.2698,-5.2544,-5.2236,-5.1775,-5.1159,-5.0389,-4.9435,-4.8912,0.0,0.0,0.0,0.0,0.0,-4.8389,-4.8912,0.0,-4.8943,0.0,0.0,0.0,0.0,0.0,0.0,0.0,0.0,-4.922,0.0,-5.1744,-5.1959,-5.2637,-5.3775,-5.416,-5.4637,-5.5099,-5.6023,-5.6471,-5.6471,-5.6717,-5.681,-5.681,-5.681,-5.681,-5.681,-5.681,-5.681,-5.681,-5.681,-5.681,-5.681,-6.4275,-6.5155,-6.5867,-6.5507,-6.596,-6.6145,-6.5393,-6.5636,-6.5492,-6.4482,-6.3594,-6.2794,-6.2189,-6.1772,0.0,-6.1396,-6.0803,-6.0301,-6.0055,-5.9809,-5.9285,-5.8423,-5.8146,-5.7223,-5.553,0.0,0.0,-5.3468,-5.2544,-5.1652,-5.0851,-5.1682,-5.1867,-5.1467,-5.1898,-5.2329,-5.2698,-5.2698,-5.2698,-5.2698,-5.2698,-5.2698,-5.2698,-5.2698,-5.2698,-5.2698,-5.2698,-5.2698,-5.2698,-5.2698,-5.2698,-5.2698,-5.2698,-5.2698,-5.2698,-5.2698,-5.2698,-5.2698,-5.2698,-5.2698,-5.2698,-5.2698,-5.2698,-5.2698,-5.2698,-5.2698,-5.2698,-5.2698,-5.2698,-5.2513,-5.1836,-5.1374,-5.0636,-4.9251,-4.9004,-4.8543,-4.7157,0.0,0.0,0.0,0.0,0.0,0.0,-4.9251,0.0,0.0,0.0,0.0,0.0,0.0,0.0,-4.9281,-4.9805,0.0,-5.2698,-5.2975,-5.3775,-5.5099,-5.5376,-5.5715,-5.6115,-5.6594,-5.681,-5.681,-5.681,-5.681,-5.681,-5.681,-5.681,-5.681,-5.681,-5.681,-5.681,-5.681,-5.681,-5.684,-6.3599,-6.4174,0.0,0.0,-6.5764,0.0,-6.5415,-6.6192,-6.5914,-6.3382,-6.3824,-6.3738,-6.2126,-6.1052,-6.0309,-5.9897,0.0,0.0,0.0,-5.8227,-5.7857,-5.7826,-5.721,-5.681,-5.6686,-5.5376,-5.4621,-5.4529,-5.3283,-5.2637,-5.2637,-5.2544,-5.2544,-5.2637,-5.2606,-5.2637,-5.2698,-5.2698,-5.2698,-5.2698,-5.2698,-5.2698,-5.2698,-5.2698,-5.2698,-5.2698,-5.2698,-5.2698,-5.2698,-5.2698,-5.2698,-5.2698,-5.2698,-5.2698,-5.2698,-5.2698,-5.2698,-5.2698,-5.2698,-5.2698,-5.2698,-5.2698,-5.2698,-5.2698,-5.2698,-5.2698,-5.2698,-5.2698,-5.2698,-5.2513,-5.1898,-5.1744,-5.1282,-4.9959,-4.9712,-4.9189,-4.7804,0.0,0.0,0.0,0.0,0.0,0.0,-5.0266,-5.0082,0.0,0.0,0.0,0.0,0.0,-4.9528,-4.885,-5.0143,-5.1498,-5.2852,-5.3529,-5.4483,-5.5776,-5.6502,-5.681,-5.681,-5.681,-5.681,-5.681,-5.681,-5.681,-5.681,-5.681,-5.681,-5.681,-5.681,-5.681,-5.681,-5.681,-5.681,-5.6902,0.0,0.0,-6.5662,-6.6406,-6.6542,-6.6525,-6.6449,-6.6686,-6.6576,-6.5914,-6.537,-6.4674,-6.376,-6.2731,-6.1684,-6.0508,-5.9558,-5.8947,-5.8793,-5.8639,-5.83,-5.7857,-5.7672,-5.6792,-5.5253,-5.4837,-5.4191,-5.3191,-5.2359,-5.1959,-5.1929,-5.0882,-5.0944,-5.1929,-5.1405,-5.1744,-5.2698,-5.2698,-5.2698,-5.2698,-5.2698,-5.2698,-5.2698,-5.2698,-5.2698,-5.2698,-5.2698,-5.2698,-5.2698,-5.2698,-5.2698,-5.2698,-5.2698,-5.2698,-5.2698,-5.2698,-5.2698,-5.2698,-5.2698,-5.2698,-5.2698,-5.2698,-5.2698,-5.2698,-5.2698,-5.2698,-5.2698,-5.2698,-5.2698,-5.2667,-5.2513,-5.2052,-5.1436,-5.0605,-5.002,-4.9189,-4.7804,-4.7742,0.0,0.0,-4.8573,-4.9251,-4.9651,-4.9835,-4.9774,0.0,0.0,0.0,0.0,-5.0359,-5.1159,-5.0974,-5.1805,-5.2883,-5.4191,-5.4884,-5.5653,-5.6563,-5.6717,-5.681,-5.681,-5.681,-5.681,-5.681,-5.681,-5.681,-5.681,-5.681,-5.681,-5.681,-5.681,-5.681,-5.681,-5.681,-5.681,-5.684,-6.4613,-6.4918,-6.5425,-6.617,-6.6305,-6.6406,-6.6779,-6.6812,-6.6508,-6.5755,-6.488,-6.3903,-6.2738,-6.1813,-6.0967,-6.019,-5.9816,-5.9523,-5.9207,-5.9176,-5.8829,-5.8009,-5.8009,-5.7242,-5.5684,-5.5037,-5.4006,-5.2698,-5.2021,-5.1713,-5.1682,-5.0636,-5.0697,-5.1682,-5.1313,-5.1744,-5.2698,-5.2698,-5.2698,-5.2698,-5.2698,-5.2698,-5.2698,-5.2698,-5.2698,-5.2698,-5.2698,-5.2698,-5.2698,-5.2698,-5.2698,-5.2698,-5.2698,-5.2698,-5.2698,-5.2698,-5.2698,-5.2698,-5.2698,-5.2698,-5.2698,-5.2698,-5.2698,-5.2698,-5.2698,-5.2698,-5.2698,-5.2698,-5.2698,-5.2513,-5.1898,-5.1498,-5.0913,-4.9897,-4.9189,-4.8481,-4.7711,-4.7619,0.0,-4.8019,-4.8943,-4.9712,-5.0112,-5.042,-5.0482,-5.0174,0.0,0.0,-5.002,-5.1097,-5.1559,-5.1251,-5.2513,-5.3683,-5.4683,-5.5684,-5.6409,-5.681,-5.681,-5.681,-5.681,-5.681,-5.681,-5.681,-5.681,-5.681,-5.681,-5.681,-5.681,-5.681,-5.681,-5.681,-5.681,-5.681,-5.681,-5.6902,-6.4749,-6.4783,-6.4986,-6.573,-6.5865,-6.6068,-6.6711,-6.6711,-6.612,-6.4724,-6.3862,-6.2832,-6.1295,-6.0544,-6.0152,-6.0054,-6.0533,-6.0455,-5.9476,-5.9266,-5.8818,-5.8026,-5.798,-5.7512,-5.6502,-5.513,-5.3868,-5.2698,-5.2144,-5.1867,-5.1836,-5.1159,-5.1221,-5.1867,-5.1744,-5.2082,-5.2698,-5.2698,-5.2698,-5.2698,-5.2698,-5.2698,-5.2698,-5.2698,-5.2698,-5.2698,-5.2698,-5.2698,-5.2698,-5.2698,-5.2698,-5.2698,-5.2698,-5.2698,-5.2698,-5.2698,-5.2698,-5.2698,-5.2698,-5.2698,-5.2698,-5.2698,-5.2698,-5.2698,-5.2698,-5.2698,-5.2698,-5.2698,-5.2698,-5.2359,-5.1221,-5.1005,-5.0574,-4.9281,-4.8419,-4.7896,-4.7773,0.0,-4.7958,-4.8543,-4.9928,-5.0851,-5.0851,-5.1374,-5.1467,-5.0882,-5.0851,-5.1067,0.0,-5.1836,-5.1682,-5.1005,-5.2852,-5.4237,-5.5037,-5.6176,-5.681,-5.681,-5.6717,-5.6717,-5.681,-5.6686,-5.6717,-5.681,-5.681,-5.681,-5.681,-5.681,-5.681,-5.681,-5.681,-5.681,-5.681,-5.681,-5.6871,-5.7118,-6.5392,-6.5527,-6.5764,-6.6508,-6.6643,-6.6677,-6.6779,-6.6271,-6.579,-6.553,-6.4814,-6.4065,-6.3161,-6.2959,-6.2623,-6.2018,-6.2051,-6.1077,-5.8578,-5.7653,-5.7163,-5.7019,-5.705,-5.6398,-5.5068,-5.3714,-5.2914,-5.2698,-5.2606,-5.2544,-5.2544,-5.1867,-5.1898,-5.2544,-5.1959,-5.2082,-5.2698,-5.2698,-5.2698,-5.2698,-5.2698,-5.2698,-5.2698,-5.2698,-5.2698,-5.2698,-5.2698,-5.2698,-5.2698,-5.2698,-5.2698,-5.2698,-5.2698,-5.2698,-5.2698,-5.2698,-5.2698,-5.2698,-5.2698,-5.2698,-5.2698,-5.2698,-5.2698,-5.2698,-5.2698,-5.2698,-5.2698,-5.2698,-5.2698,-5.2637,-5.2452,-5.239,-5.2144,-5.1344,-5.0174,-4.9158,-4.8543,0.0,-4.8481,-4.8604,-5.0359,-5.1559,-5.1559,-5.1652,-5.1652,-5.1559,-5.1559,-5.1344,-5.0882,-5.2483,-5.3098,-5.2421,-5.3806,-5.5191,-5.6471,-5.6717,-5.681,-5.681,-5.6146,-5.6176,-5.6779,-5.6146,-5.6176,-5.681,-5.681,-5.681,-5.681,-5.681,-5.681,-5.681,-5.681,-5.681,-5.681,-5.681,-5.7179,-5.7703,-6.6237,-6.6305,-6.6406,-6.6745,-6.6474,-6.6203,-6.6203,-6.5595,-6.5256,-6.5628,-6.4715,-6.4174,-6.4647,-6.4005,-6.3531,-6.3565,-6.3127,-6.2107,-6.039,-6.0,-5.9587,-5.91,-5.8703,-5.7572,-5.5569,-5.453,-5.3997,-5.4094,-5.2784,-5.241,-5.2828,-5.1698,-5.1528,-5.2144,-5.1836,-5.2082,-5.2698,-5.2698,-5.2698,-5.2698,-5.2698,-5.2698,-5.2698,-5.2698,-5.2698,-5.2698,-5.2698,-5.2698,-5.2698,-5.2698,-5.2698,-5.2698,-5.2698,-5.2698,-5.2698,-5.2698,-5.2698,-5.2698,-5.2698,-5.2698,-5.2698,-5.2698,-5.2698,-5.2698,-5.2698,-5.2698,-5.2698,-5.2698,-5.2698,-5.2606,-5.2236,-5.2175,-5.1682,-5.0266,-4.9528,0.0,0.0,-4.8142,-4.8758,-4.9158,-5.0697,-5.1836,-5.2206,-5.2236,-5.2236,-5.2236,-5.2236,-5.2113,-5.1805,-5.3006,-5.3591,-5.3283,-5.4545,-5.5745,-5.681,-5.681,-5.6625,-5.6176,-5.6286,-5.6053,-5.5684,-5.6084,-5.6238,-5.6207,-5.6656,-5.681,-5.681,-5.681,-5.681,-5.681,-5.681,-5.681,-5.681,-5.681,-5.7241,-5.7857,-6.6812,-6.6812,-6.6812,-6.6812,-6.6339,-6.5967,-6.5967,-6.5189,-6.4783,-6.5358,-6.4309,-6.3937,-6.5053,-6.4343,-6.4005,-6.4546,-6.376,-6.3015,-6.2449,-6.2394,-6.1803,-6.0472,-5.9531,-5.8183,-5.6339,-5.5474,-5.5154,-5.5312,-5.3428,-5.2688,-5.2976,-5.1786,-5.1407,-5.1713,-5.1713,-5.2082,-5.2698,-5.2698,-5.2698,-5.2698,-5.2698,-5.2698,-5.2698,-5.2698,-5.2698,-5.2698,-5.2698,-5.2698,-5.2698,-5.2698,-5.2698,-5.2698,-5.2698,-5.2698,-5.2698,-5.2698,-5.2698,-5.2698,-5.2698,-5.2698,-5.2698,-5.2698,-5.2698,-5.2698,-5.2698,-5.2698,-5.2698,-5.2698,-5.2698,-5.2544,-5.2021,-5.1929,-5.1405,-4.9835,0.0,0.0,0.0,-4.8543,-4.9374,-5.0082,-5.1221,-5.2144,-5.2667,-5.2698,-5.2698,-5.2698,-5.2852,-5.2944,-5.2944,-5.3745,-5.4268,-5.4422,-5.5253,-5.5961,-5.6563,-5.6563,-5.6146,-5.5468,-5.5869,-5.5684,-5.4929,-5.5869,-5.6146,-5.5961,-5.6563,-5.681,-5.681,-5.681,-5.681,-5.681,-5.681,-5.681,-5.681,-5.681,-5.7241,-5.7919,-6.6812,-6.6812,-6.6812,-6.6812,-6.6779,-6.6745,-6.6745,-6.5527,-6.4613,-6.4681,-6.4005,-6.3565,-6.3666,-6.4174,-6.4546,-6.4613,-6.389,-6.3444,-6.3377,-6.2781,-6.1294,-5.8787,-5.7297,-5.6478,-5.6307,-5.5619,-5.5263,-5.5312,-5.5125,-5.4319,-5.2976,-5.2902,-5.2426,-5.1713,-5.1713,-5.2082,-5.2698,-5.2698,-5.2698,-5.2698,-5.2698,-5.2698,-5.2698,-5.2698,-5.2698,-5.2698,-5.2698,-5.2698,-5.2698,-5.2698,-5.2698,-5.2698,-5.2698,-5.2698,-5.2698,-5.2698,-5.2698,-5.2698,-5.2698,-5.2698,-5.2698,-5.2698,-5.2698,-5.2698,-5.2698,-5.2698,-5.2698,-5.2698,-5.2698,-5.2698,-5.2637,-5.2637,-5.2575,-5.2421,0.0,0.0,-5.1251,-5.0882,-5.079,-5.1467,-5.2206,-5.2667,-5.2698,-5.2698,-5.2698,-5.2698,-5.3283,-5.3652,-5.3652,-5.4853,-5.5869,-5.6563,-5.5992,-5.5715,-5.5776,-5.5776,-5.5438,-5.4745,-5.4206,-5.4545,-5.5592,-5.5099,-5.553,-5.6717,-5.6779,-5.681,-5.681,-5.681,-5.681,-5.681,-5.681,-5.681,-5.681,-5.681,-5.7241,-5.7919,-6.6812,-6.6812,-6.6812,-6.6812,-6.644,-6.6102,-6.6102,-6.5256,-6.4749,-6.5222,-6.4647,-6.4546,-6.5459,-6.5392,-6.5459,-6.5933,-6.529,-6.4681,-6.4208,-6.3497,-6.2239,-6.0317,-5.9718,-5.8946,-5.8014,-5.7212,-5.6849,-5.692,-5.5836,-5.5272,-5.5212,-5.4112,-5.3427,-5.3114,-5.2564,-5.2483,-5.2698,-5.2698,-5.2698,-5.2698,-5.2698,-5.2698,-5.2698,-5.2698,-5.2698,-5.2698,-5.2698,-5.2698,-5.2698,-5.2698,-5.2698,-5.279,-5.3221,-5.3345,-5.3406,-5.3837,-5.3914,-5.3914,-5.3914,-5.3345,-5.2698,-5.2698,-5.2698,-5.2698,-5.2698,-5.2698,-5.2698,-5.2698,-5.2698,-5.2698,-5.2698,-5.2698,-5.2452,-5.159,0.0,-5.1128,-5.0543,-5.0944,-5.1405,-5.1682,-5.2298,-5.2698,-5.2698,-5.2698,-5.2883,-5.3314,-5.3191,-5.3468,-5.4252,-5.5191,-5.5807,-5.6084,-5.6269,-5.6146,-5.5684,-5.5684,-5.5376,-5.4683,-5.5345,-5.5438,-5.513,-5.5715,-5.6023,-5.6115,-5.6625,-5.681,-5.681,-5.681,-5.681,-5.681,-5.681,-5.681,-5.6871,-5.7272,-5.7808,-5.8485,-6.6812,-6.6812,-6.6812,-6.6812,-6.6373,-6.6034,-6.6034,-6.5425,-6.5121,-6.5628,-6.5256,-6.5256,-6.6034,-6.6068,-6.617,-6.644,-6.5764,-6.5121,-6.4647,-6.37,-6.2618,-6.1366,-6.1061,-6.0317,-5.9032,-5.8437,-5.8031,-5.7881,-5.6696,-5.6021,-5.5863,-5.463,-5.3788,-5.3263,-5.2626,-5.2513,-5.2698,-5.2698,-5.2698,-5.2698,-5.2698,-5.2698,-5.2698,-5.2698,-5.2698,-5.2698,-5.2698,-5.2698,-5.2698,-5.2698,-5.2852,-5.3098,-5.356,-5.3822,-5.4068,-5.456,-5.4683,-5.4683,-5.4683,-5.4052,-5.3345,-5.3345,-5.3345,-5.3283,-5.3067,-5.3037,-5.2975,-5.276,-5.2698,-5.2698,-5.2698,-5.2698,-5.2421,-5.1467,-5.1713,-5.1682,-5.0759,-5.1436,-5.2021,-5.2021,-5.2421,-5.2698,-5.2698,-5.2698,-5.3006,-5.3683,-5.3283,-5.3622,-5.4945,-5.5653,-5.6023,-5.6023,-5.6317,-5.6176,-5.5684,-5.5684,-5.5376,-5.4683,-5.5684,-5.5745,-5.5068,-5.5992,-5.6269,-5.6053,-5.6594,-5.681,-5.681,-5.681,-5.6933,-5.7118,-5.7118,-5.7241,-5.7487,-5.7931,-5.8442,-5.8885,-6.6812,-6.6812,-6.6812,-6.6812,-6.6812,-6.6812,-6.6812,-6.617,-6.5696,-6.5696,-6.5696,-6.5425,-6.4681,-6.5933,-6.6508,-6.5764,-6.5019,-6.4613,-6.458,-6.3193,-6.2076,-6.1332,-6.0554,-5.9776,-5.9032,-5.9032,-5.866,-5.7881,-5.7881,-5.6667,-5.4323,-5.4323,-5.3382,-5.1713,-5.1713,-5.2082,-5.2698,-5.2698,-5.2698,-5.2698,-5.2698,-5.2698,-5.2698,-5.2698,-5.2698,-5.2698,-5.2729,-5.2698,-5.2698,-5.2729,-5.316,-5.3714,-5.3745,-5.416,-5.4714,-5.4714,-5.4714,-5.4714,-5.4714,-5.4714,-5.4683,-5.4683,-5.4683,-5.4498,-5.3853,-5.3745,-5.3529,-5.2852,-5.2729,-5.2729,-5.2698,-5.2698,-5.2698,-5.2698,-5.2698,-5.2698,-5.2729,-5.2729,-5.2729,-5.2729,-5.2729,-5.2729,-5.2729,-5.2729,-5.3006,-5.3683,-5.3699,-5.4299,-5.5622,-5.6409,-5.681,-5.681,-5.6084,-5.5684,-5.5684,-5.5684,-5.5376,-5.4683,-5.4683,-5.5068,-5.5715,-5.5715,-5.6084,-5.681,-5.681,-5.681,-5.681,-5.681,-5.721,-5.7826,-5.7826,-5.8177,-5.8793,-5.8793,-5.8793,-5.8885,-6.6812,-6.6812,-6.6812,-6.6812,-6.6812,-6.6812,-6.6812,-6.6609,-6.6474,-6.6474,-6.6474,-6.6203,-6.5425,-6.6237,-6.6305,-6.5019,-6.4715,-6.4174,-6.3125,-6.2618,-6.2279,-6.2076,-6.1366,-6.0588,-5.981,-5.9268,-5.866,-5.7881,-5.7881,-5.723,-5.5895,-5.527,-5.4416,-5.3295,-5.2701,-5.2513,-5.2698,-5.2206,-5.2021,-5.1959,-5.1498,-5.159,-5.2021,-5.2021,-5.2298,-5.276,-5.3252,-5.3129,-5.2852,-5.3806,-5.3914,-5.3868,-5.4822,-5.5592,-5.6146,-5.6146,-5.6146,-5.6146,-5.6146,-5.6146,-5.593,-5.4929,-5.4683,-5.4621,-5.4437,-5.4375,-5.4191,-5.356,-5.3406,-5.3283,-5.279,-5.2698,-5.2698,-5.2698,-5.2698,-5.2883,-5.3345,-5.3406,-5.3591,-5.4037,-5.4068,-5.4068,-5.4068,-5.4068,-5.4391,-5.5068,-5.5561,-5.5807,-5.5684,-5.6409,-5.6594,-5.6023,-5.6347,-5.6207,-5.5684,-5.5684,-5.5592,-5.5407,-5.593,-5.6269,-5.6502,-5.6502,-5.6594,-5.681,-5.681,-5.7087,-5.7518,-5.7518,-5.7919,-5.8485,-5.8485,-5.8608,-5.8854,-5.9316,-5.9501,-5.9593,-6.6812,-6.6576,-6.6373,-6.6373,-6.6136,-6.6034,-6.6339,-6.6136,-6.6136,-6.6745,-6.6305,-6.5764,-6.529,-6.5662,-6.5459,-6.4275,-6.4174,-6.3666,-6.2482,-6.2381,-6.2381,-6.2381,-6.14,-6.0588,-6.0114,-5.9404,-5.866,-5.7881,-5.7881,-5.7293,-5.6074,-5.5555,-5.4653,-5.3477,-5.2966,-5.2852,-5.3067,-5.239,-5.2458,-5.2922,-5.1876,-5.1933,-5.2611,-5.2524,-5.276,-5.3191,-5.3822,-5.3868,-5.3622,-5.4406,-5.4637,-5.4699,-5.5776,-5.6471,-5.681,-5.681,-5.681,-5.681,-5.681,-5.681,-5.6625,-5.5745,-5.553,-5.5468,-5.5191,-5.513,-5.4914,-5.4222,-5.4068,-5.3945,-5.3591,-5.3498,-5.3498,-5.3498,-5.3498,-5.3607,-5.4006,-5.4068,-5.4222,-5.4621,-5.4683,-5.4683,-5.4683,-5.4683,-5.4837,-5.5284,-5.6207,-5.6502,-5.5745,-5.6409,-5.6625,-5.6146,-5.6594,-5.6594,-5.6115,-5.6115,-5.6115,-5.6115,-5.6594,-5.681,-5.681,-5.681,-5.681,-5.681,-5.7087,-5.7457,-5.7857,-5.8104,-5.8577,-5.9193,-5.9193,-5.9347,-5.9624,-6.0055,-6.0178,-6.024,-6.6812,-6.6271,-6.5797,-6.5797,-6.5222,-6.5019,-6.5696,-6.5222,-6.529,-6.6643,-6.5561,-6.4681,-6.4613,-6.4613,-6.4275,-6.3497,-6.3429,-6.3125,-6.2415,-6.2381,-6.2381,-6.2381,-6.0994,-6.0216,-6.0216,-5.937,-5.866,-5.8084,-5.8017,-5.7168,-5.5596,-5.5531,-5.4623,-5.3028,-5.2953,-5.3293,-5.388,-5.3183,-5.3702,-5.4905,-5.3432,-5.3284,-5.3985,-5.3858,-5.379,-5.3899,-5.4529,-5.4745,-5.4683,-5.4745,-5.5253,-5.5899,-5.6594,-5.681,-5.681,-5.681,-5.681,-5.681,-5.681,-5.681,-5.681,-5.681,-5.681,-5.6625,-5.593,-5.5776,-5.5592,-5.4945,-5.4775,-5.4745,-5.4683,-5.4683,-5.4683,-5.4683,-5.4683,-5.4714,-5.4775,-5.4775,-5.4806,-5.4868,-5.4914,-5.4914,-5.4914,-5.4914,-5.4914,-5.4914,-5.6053,-5.6532,-5.5807,-5.6471,-5.681,-5.681,-5.681,-5.681,-5.681,-5.681,-5.681,-5.681,-5.681,-5.681,-5.681,-5.6871,-5.6902,-5.6933,-5.7611,-5.7949,-5.8042,-5.8608,-5.9255,-5.987,-5.987,-6.024,-6.0794,-6.0794,-6.0794,-6.0794,-6.6812,-6.6677,-6.6576,-6.6576,-6.644,-6.6406,-6.6542,-6.644,-6.644,-6.6779,-6.6034,-6.5222,-6.4647,-6.4613,-6.4072,-6.2753,-6.2618,-6.255,-6.2415,-6.2381,-6.2381,-6.2381,-6.1535,-6.1028,-6.1028,-5.9133,-5.8626,-5.9607,-5.9032,-5.8504,-5.803,-5.747,-5.6613,-5.5547,-5.496,-5.5121,-5.5708,-5.4489,-5.4484,-5.5228,-5.4388,-5.4007,-5.4071,-5.4592,-5.4674,-5.456,-5.5253,-5.5161,-5.4775,-5.5315,-5.5961,-5.6594,-5.6748,-5.681,-5.681,-5.681,-5.681,-5.681,-5.681,-5.681,-5.681,-5.681,-5.681,-5.6779,-5.6625,-5.6594,-5.6378,-5.5622,-5.5468,-5.5315,-5.4775,-5.4683,-5.4683,-5.4683,-5.4683,-5.4868,-5.5407,-5.5468,-5.5684,-5.6317,-5.633,-5.633,-5.633,-5.633,-5.633,-5.633,-5.6656,-5.6748,-5.6594,-5.6717,-5.681,-5.681,-5.681,-5.681,-5.681,-5.681,-5.681,-5.681,-5.681,-5.681,-5.684,-5.7364,-5.7611,-5.7641,-5.827,-5.8854,-5.9378,-5.9501,-5.9963,-6.0578,-6.0578,-6.0671,-6.0794,-6.0794,-6.0794,-6.0794,-6.6812,-6.6542,-6.6271,-6.6271,-6.6,-6.5865,-6.6237,-6.5967,-6.6,-6.6711,-6.5865,-6.5155,-6.5121,-6.4512,-6.3632,-6.2482,-6.2381,-6.2381,-6.2381,-6.2381,-6.2381,-6.2381,-6.167,-6.1467,-6.1806,-5.9945,-5.9336,-6.0114,-5.9708,-5.929,-5.8807,-5.8442,-5.7771,-5.6918,-5.652,-5.6746,-5.7297,-5.5871,-5.6149,-5.7429,-5.5946,-5.5709,-5.6298,-5.6584,-5.6385,-5.5952,-5.6638,-5.6387,-5.5745,-5.6084,-5.6502,-5.681,-5.681,-5.681,-5.681,-5.681,-5.681,-5.681,-5.681,-5.681,-5.681,-5.681,-5.681,-5.681,-5.681,-5.681,-5.6717,-5.6269,-5.6207,-5.6115,-5.5776,-5.5715,-5.5715,-5.5715,-5.5715,-5.5807,-5.6146,-5.6207,-5.6378,-5.6779,-5.681,-5.681,-5.681,-5.681,-5.681,-5.681,-5.681,-5.681,-5.681,-5.681,-5.681,-5.681,-5.681,-5.681,-5.681,-5.681,-5.6964,-5.7303,-5.6964,-5.6994,-5.7303,-5.7672,-5.798,-5.83,-5.8978,-5.947,-5.9809,-6.0147,-6.0486,-6.0794,-6.0794,-6.0794,-6.0794,-6.0794,-6.0794,-6.0794,-6.6812,-6.6203,-6.573,-6.5865,-6.5155,-6.485,-6.5561,-6.5189,-6.5222,-6.6474,-6.5561,-6.5019,-6.5628,-6.4377,-6.3193,-6.2448,-6.2381,-6.2381,-6.2381,-6.2381,-6.2381,-6.2381,-6.1806,-6.1772,-6.2381,-6.1129,-6.0486,-6.0486,-6.0351,-6.0006,-5.9405,-5.9305,-5.8845,-5.8157,-5.8026,-5.8311,-5.8857,-5.7593,-5.8231,-5.9949,-5.8011,-5.796,-5.8984,-5.873,-5.8113,-5.7344,-5.7806,-5.7448,-5.681,-5.681,-5.681,-5.681,-5.681,-5.681,-5.681,-5.681,-5.681,-5.681,-5.681,-5.681,-5.681,-5.681,-5.681,-5.681,-5.681,-5.681,-5.681,-5.681,-5.681,-5.681,-5.681,-5.681,-5.681,-5.681,-5.681,-5.681,-5.681,-5.681,-5.681,-5.681,-5.681,-5.681,-5.681,-5.681,-5.681,-5.681,-5.681,-5.681,-5.681,-5.681,-5.681,-5.681,-5.681,-5.681,-5.681,-5.681,-5.7148,-5.7795,-5.7241,-5.7333,-5.798,-5.8104,-5.8423,-5.9008,-5.9655,-5.9963,-5.9993,-6.0578,-6.0794,-6.0794,-6.0794,-6.0794,-6.0794,-6.0794,-6.0794,-6.0794,-6.6812,-6.6203,-6.5899,-6.6542,-6.5527,-6.485,-6.5561,-6.5595,-6.5595,-6.5797,-6.5662,-6.5561,-6.5662,-6.4377,-6.3193,-6.2448,-6.2381,-6.2381,-6.2381,-6.2381,-6.2381,-6.2381,-6.2279,-6.2279,-6.2381,-6.2178,-6.2076,-6.2076,-6.1467,-6.1429,-6.1886,-6.1278,-6.0897,-6.0785,-6.0078,-6.0213,-6.0847,-5.9977,-6.0184,-6.1071,-6.079,-6.0291,-5.9737,-5.9545,-5.8883,-5.7993,-5.7227,-5.6906,-5.681,-5.681,-5.681,-5.681,-5.681,-5.681,-5.681,-5.681,-5.681,-5.681,-5.681,-5.681,-5.681,-5.681,-5.681,-5.681,-5.681,-5.681,-5.681,-5.681,-5.681,-5.681,-5.681,-5.681,-5.681,-5.681,-5.681,-5.681,-5.681,-5.681,-5.681,-5.681,-5.681,-5.681,-5.681,-5.681,-5.681,-5.681,-5.681,-5.681,-5.681,-5.681,-5.681,-5.681,-5.681,-5.681,-5.681,-5.681,-5.7148,-5.7826,-5.7734,-5.8042,-5.867,-5.9255,-5.9562,-5.9686,-6.0363,-6.0671,-6.0671,-6.0763,-6.0794,-6.0794,-6.0794,-6.0794,-6.0794,-6.0794,-6.0794,-6.0794,-6.5561,-6.5324,-6.5324,-6.6068,-6.5628,-6.5459,-6.6203,-6.6305,-6.6305,-6.6305,-6.6305,-6.6305,-6.6305,-6.5019,-6.3835,-6.3091,-6.2618,-6.2381,-6.2381,-6.2381,-6.2381,-6.2381,-6.2381,-6.2381,-6.2381,-6.2381,-6.2381,-6.2381,-6.2076,-6.1873,-6.1772,-6.1873,-6.1704,-6.1298,-6.1366,-6.1569,-6.1873,-6.1095,-6.1197,-6.1873,-6.1467,-6.1301,-6.1281,-6.1176,-6.0269,-5.8773,-5.7353,-5.681,-5.681,-5.681,-5.681,-5.681,-5.681,-5.681,-5.681,-5.681,-5.681,-5.681,-5.681,-5.7087,-5.7272,-5.6902,-5.7087,-5.7272,-5.6902,-5.681,-5.681,-5.681,-5.681,-5.681,-5.681,-5.681,-5.681,-5.681,-5.681,-5.681,-5.681,-5.681,-5.681,-5.681,-5.681,-5.681,-5.681,-5.681,-5.681,-5.681,-5.681,-5.681,-5.681,-5.681,-5.681,-5.681,-5.681,-5.681,-5.681,-5.681,-5.7148,-5.7826,-5.8196,-5.8701,-5.9347,-5.9655,-5.9993,-6.0363,-6.0671,-6.0794,-6.0794,-6.0794,-6.0794,-6.0794,-6.0794,-6.0794,-6.0794,-6.0794,-6.0794,-6.0794]},{"header":{"parameterUnit":"m.s-1","parameterCategory":1,"la1":30.6,"la2":28.766,"lo1":-90.7593,"lo2":-88.6598,"dy":0.0162,"dx":0.0183,"nx":116,"ny":114,"refTime":"2024-03-05T06:00:00:Z","depth":0,"parameterNumber":3,"parameterNumberName":"V-component_of_WINDS"},"data":[0.0,0.0,0.0,0.0,0.0,0.0,0.0,0.0,0.0,0.0,0.0,0.0,0.0,0.0,0.0,0.0,0.0,0.0,0.0,0.0,0.0,0.0,0.0,0.0,0.0,0.0,0.0,0.0,0.0,0.0,0.0,0.0,0.0,0.0,0.0,0.0,0.0,0.0,0.0,0.0,0.0,0.0,0.0,0.0,0.0,0.0,0.0,0.0,0.0,0.0,0.0,0.0,0.0,0.0,0.0,0.0,0.0,0.0,0.0,0.0,0.0,0.0,0.0,0.0,0.0,0.0,0.0,0.0,0.0,0.0,0.0,0.0,0.0,0.0,0.0,0.0,0.0,0.0,0.0,0.0,0.0,0.0,0.0,0.0,0.0,0.0,0.0,0.0,0.0,0.0,0.0,0.0,0.0,0.0,0.0,0.0,0.0,0.0,0.0,0.0,0.0,0.0,0.0,0.0,0.0,0.0,0.0,0.0,0.0,0.0,0.0,0.0,0.0,0.0,0.0,0.0,0.0,0.0,0.0,0.0,0.0,0.0,0.0,0.0,0.0,0.0,0.0,0.0,0.0,0.0,0.0,0.0,0.0,0.0,0.0,0.0,0.0,0.0,0.0,0.0,0.0,0.0,0.0,0.0,0.0,0.0,0.0,0.0,0.0,0.0,0.0,0.0,0.0,0.0,0.0,0.0,0.0,0.0,0.0,0.0,0.0,0.0,0.0,0.0,0.0,0.0,0.0,0.0,0.0,0.0,0.0,0.0,0.0,0.0,0.0,0.0,0.0,0.0,0.0,0.0,0.0,0.0,0.0,0.0,0.0,0.0,0.0,0.0,0.0,0.0,0.0,0.0,0.0,0.0,0.0,0.0,0.0,0.0,0.0,0.0,0.0,0.0,0.0,0.0,0.0,0.0,0.0,0.0,0.0,0.0,0.0,0.0,0.0,0.0,0.0,0.0,0.0,0.0,0.0,0.0,0.0,0.0,0.0,0.0,0.0,0.0,0.0,0.0,0.0,0.0,0.0,0.0,0.0,0.0,0.0,0.0,0.0,0.0,0.0,0.0,0.0,0.0,0.0,0.0,0.0,0.0,0.0,0.0,0.0,0.0,0.0,0.0,0.0,0.0,0.0,0.0,0.0,0.0,0.0,0.0,0.0,0.0,0.0,0.0,0.0,0.0,0.0,0.0,0.0,0.0,0.0,0.0,0.0,0.0,0.0,0.0,0.0,0.0,0.0,0.0,0.0,0.0,0.0,0.0,0.0,0.0,0.0,0.0,0.0,0.0,0.0,0.0,0.0,0.0,0.0,0.0,0.0,0.0,0.0,0.0,0.0,0.0,0.0,0.0,0.0,0.0,0.0,0.0,0.0,0.0,0.0,0.0,0.0,0.0,0.0,0.0,0.0,0.0,0.0,0.0,0.0,0.0,0.0,0.0,0.0,0.0,0.0,0.0,0.0,0.0,0.0,0.0,0.0,0.0,0.0,0.0,0.0,0.0,0.0,0.0,0.0,0.0,0.0,0.0,0.0,0.0,0.0,0.0,0.0,0.0,0.0,0.0,0.0,0.0,0.0,0.0,0.0,0.0,0.0,0.0,0.0,0.0,0.0,0.0,0.0,0.0,0.0,0.0,0.0,0.0,0.0,0.0,0.0,0.0,0.0,0.0,0.0,0.0,0.0,0.0,0.0,0.0,0.0,0.0,0.0,0.0,0.0,0.0,0.0,0.0,0.0,0.0,0.0,0.0,0.0,0.0,0.0,0.0,0.0,0.0,0.0,0.0,0.0,0.0,0.0,0.0,0.0,0.0,0.0,0.0,0.0,0.0,0.0,0.0,0.0,0.0,0.0,0.0,0.0,0.0,0.0,0.0,0.0,0.0,0.0,0.0,0.0,0.0,0.0,0.0,0.0,0.0,0.0,0.0,0.0,0.0,0.0,0.0,0.0,0.0,0.0,0.0,0.0,0.0,0.0,0.0,0.0,0.0,0.0,0.0,0.0,0.0,0.0,0.0,0.0,0.0,0.0,0.0,0.0,0.0,0.0,0.0,0.0,0.0,0.0,0.0,0.0,0.0,0.0,0.0,0.0,0.0,0.0,0.0,0.0,0.0,0.0,0.0,0.0,0.0,0.0,0.0,0.0,0.0,0.0,0.0,0.0,0.0,0.0,0.0,0.0,0.0,0.0,0.0,0.0,0.0,0.0,0.0,0.0,0.0,0.0,0.0,0.0,0.0,0.0,0.0,0.0,0.0,0.0,0.0,0.0,0.0,0.0,0.0,0.0,0.0,0.0,0.0,0.0,0.0,0.0,0.0,0.0,0.0,0.0,0.0,0.0,0.0,0.0,0.0,0.0,0.0,0.0,0.0,0.0,0.0,0.0,0.0,0.0,0.0,0.0,0.0,0.0,0.0,0.0,0.0,0.0,0.0,0.0,0.0,0.0,0.0,0.0,0.0,0.0,0.0,0.0,0.0,0.0,0.0,0.0,0.0,0.0,0.0,0.0,0.0,0.0,0.0,0.0,0.0,0.0,0.0,0.0,0.0,0.0,0.0,0.0,0.0,0.0,0.0,0.0,0.0,0.0,0.0,0.0,0.0,0.0,0.0,0.0,0.0,0.0,0.0,0.0,0.0,0.0,0.0,0.0,0.0,0.0,0.0,0.0,0.0,0.0,0.0,0.0,0.0,0.0,0.0,0.0,0.0,0.0,0.0,0.0,0.0,0.0,0.0,0.0,0.0,0.0,0.0,0.0,0.0,0.0,0.0,0.0,0.0,0.0,0.0,0.0,0.0,0.0,0.0,0.0,0.0,0.0,0.0,0.0,0.0,0.0,0.0,0.0,0.0,0.0,0.0,0.0,0.0,0.0,0.0,0.0,0.0,0.0,0.0,0.0,0.0,0.0,0.0,0.0,0.0,0.0,0.0,0.0,0.0,0.0,0.0,0.0,0.0,0.0,0.0,0.0,0.0,0.0,0.0,0.0,0.0,0.0,0.0,0.0,0.0,0.0,0.0,0.0,0.0,0.0,0.0,0.0,0.0,0.0,0.0,0.0,0.0,0.0,0.0,0.0,0.0,0.0,0.0,0.0,0.0,0.0,0.0,0.0,0.0,0.0,0.0,0.0,0.0,0.0,0.0,0.0,0.0,0.0,0.0,0.0,0.0,0.0,0.0,0.0,0.0,0.0,0.0,0.0,0.0,0.0,0.0,0.0,0.0,0.0,0.0,0.0,0.0,0.0,0.0,0.0,0.0,0.0,0.0,0.0,0.0,0.0,0.0,0.0,0.0,0.0,0.0,0.0,0.0,0.0,0.0,0.0,0.0,0.0,0.0,0.0,0.0,0.0,0.0,0.0,0.0,0.0,0.0,0.0,0.0,0.0,0.0,0.0,0.0,0.0,0.0,0.0,0.0,0.0,0.0,0.0,0.0,0.0,0.0,0.0,0.0,0.0,0.0,0.0,0.0,0.0,0.0,0.0,0.0,0.0,0.0,0.0,0.0,0.0,0.0,0.0,0.0,0.0,0.0,0.0,0.0,0.0,0.0,0.0,0.0,0.0,0.0,0.0,0.0,0.0,0.0,0.0,0.0,0.0,0.0,0.0,0.0,0.0,0.0,0.0,0.0,0.0,0.0,0.0,0.0,0.0,0.0,0.0,0.0,0.0,0.0,0.0,0.0,0.0,0.0,0.0,0.0,0.0,0.0,0.0,0.0,0.0,0.0,0.0,0.0,0.0,0.0,0.0,0.0,0.0,0.0,0.0,0.0,0.0,0.0,0.0,0.0,0.0,0.0,0.0,0.0,0.0,0.0,0.0,0.0,0.0,0.0,0.0,0.0,0.0,0.0,0.0,0.0,0.0,0.0,0.0,0.0,0.0,0.0,0.0,0.0,0.0,0.0,0.0,0.0,0.0,0.0,0.0,0.0,0.0,0.0,0.0,0.0,0.0,0.0,0.0,0.0,0.0,0.0,0.0,0.0,0.0,0.0,0.0,0.0,0.0,0.0,0.0,0.0,0.0,0.0,0.0,0.0,0.0,0.0,0.0,0.0,0.0,0.0,0.0,0.0,0.0,0.0,0.0,0.0,0.0,0.0,0.0,0.0,0.0,0.0,0.0,0.0,0.0,0.0,0.0,0.0,0.0,0.0,0.0,0.0,0.0,0.0,0.0,0.0,0.0,0.0,0.0,0.0,0.0,0.0,0.0,0.0,0.0,0.0,0.0,0.0,0.0,0.0,0.0,0.0,0.0,0.0,0.0,0.0,0.0,0.0,0.0,0.0,0.0,0.0,0.0,0.0,0.0,0.0,0.0,0.0,0.0,0.0,0.0,0.0,0.0,0.0,0.0,0.0,0.0,0.0,0.0,0.0,0.0,0.0,0.0,0.0,0.0,0.0,0.0,0.0,0.0,0.0,0.0,0.0,0.0,0.0,0.0,0.0,0.0,0.0,0.0,0.0,0.0,0.0,0.0,0.0,0.0,0.0,0.0,0.0,0.0,0.0,0.0,0.0,0.0,0.0,0.0,0.0,0.0,0.0,0.0,0.0,0.0,0.0,0.0,0.0,0.0,0.0,0.0,0.0,0.0,0.0,0.0,0.0,0.0,0.0,0.0,0.0,0.0,0.0,0.0,0.0,0.0,0.0,0.0,0.0,0.0,0.0,0.0,0.0,0.0,0.0,0.0,0.0,0.0,0.0,0.0,0.0,0.0,0.0,0.0,0.0,0.0,0.0,0.0,0.0,0.0,0.0,0.0,0.0,0.0,0.0,0.0,0.0,0.0,0.0,0.0,0.0,0.0,0.0,0.0,0.0,0.0,0.0,0.0,0.0,0.0,0.0,0.0,0.0,0.0,0.0,0.0,0.0,0.0,0.0,0.0,0.0,0.0,0.0,0.0,0.0,0.0,0.0,0.0,0.0,0.0,0.0,0.0,0.0,0.0,0.0,0.0,0.0,0.0,0.0,0.0,0.0,0.0,0.0,0.0,0.0,0.0,0.0,0.0,0.0,0.0,0.0,0.0,0.0,0.0,0.0,0.0,0.0,0.0,0.0,0.0,0.0,0.0,0.0,0.0,0.0,0.0,0.0,0.0,0.0,0.0,0.0,0.0,0.0,0.0,0.0,0.0,0.0,0.0,0.0,0.0,0.0,0.0,0.0,0.0,0.0,0.0,0.0,0.0,0.0,0.0,0.0,0.0,0.0,0.0,0.0,0.0,0.0,0.0,0.0,0.0,0.0,0.0,0.0,0.0,0.0,0.0,0.0,0.0,0.0,0.0,0.0,0.0,0.0,0.0,0.0,0.0,0.0,0.0,0.0,0.0,0.0,0.0,0.0,0.0,0.0,0.0,0.0,0.0,0.0,0.0,0.0,0.0,0.0,0.0,0.0,0.0,0.0,0.0,0.0,0.0,0.0,0.0,0.0,0.0,0.0,0.0,0.0,0.0,0.0,0.0,0.0,0.0,0.0,0.0,0.0,0.0,0.0,0.0,0.0,0.0,0.0,0.0,0.0,0.0,0.0,0.0,0.0,0.0,0.0,0.0,0.0,0.0,0.0,0.0,0.0,0.0,0.0,0.0,0.0,0.0,0.0,0.0,0.0,0.0,0.0,0.0,0.0,0.0,0.0,0.0,0.0,0.0,0.0,0.0,0.0,0.0,0.0,0.0,0.0,0.0,0.0,0.0,0.0,0.0,0.0,0.0,0.0,0.0,0.0,0.0,0.0,0.0,0.0,0.0,0.0,0.0,0.0,0.0,0.0,0.0,0.0,0.0,0.0,0.0,0.0,0.0,0.0,0.0,0.0,0.0,0.0,0.0,0.0,0.0,0.0,0.0,0.0,0.0,0.0,0.0,0.0,0.0,0.0,0.0,0.0,0.0,0.0,0.0,0.0,0.0,0.0,0.0,0.0,0.0,0.0,0.0,0.0,0.0,0.0,0.0,0.0,0.0,0.0,0.0,0.0,0.0,0.0,0.0,0.0,0.0,0.0,0.0,0.0,0.0,0.0,0.0,0.0,0.0,0.0,0.0,0.0,0.0,0.0,0.0,0.0,0.0,0.0,0.0,0.0,0.0,0.0,0.0,0.0,0.0,0.0,0.0,0.0,0.0,0.0,3.4869,0.0,0.0,0.0,0.0,0.0,0.0,0.0,0.0,0.0,0.0,0.0,0.0,0.0,0.0,0.0,0.0,0.0,0.0,0.0,0.0,0.0,0.0,0.0,0.0,0.0,0.0,0.0,0.0,0.0,0.0,0.0,0.0,0.0,0.0,0.0,2.8976,2.874,2.8924,2.9631,2.9964,3.0929,3.2417,3.3428,3.3701,3.3311,0.0,0.0,0.0,0.0,0.0,0.0,0.0,0.0,0.0,0.0,0.0,0.0,0.0,0.0,0.0,0.0,0.0,0.0,0.0,0.0,0.0,0.0,0.0,0.0,0.0,0.0,0.0,0.0,0.0,0.0,0.0,0.0,0.0,0.0,0.0,0.0,0.0,0.0,0.0,0.0,0.0,0.0,0.0,0.0,0.0,0.0,0.0,0.0,0.0,0.0,0.0,0.0,0.0,0.0,0.0,0.0,0.0,0.0,0.0,0.0,0.0,0.0,0.0,0.0,0.0,0.0,0.0,0.0,0.0,0.0,0.0,3.5035,0.0,0.0,0.0,0.0,0.0,0.0,0.0,0.0,0.0,0.0,0.0,0.0,0.0,0.0,0.0,0.0,0.0,0.0,0.0,0.0,0.0,0.0,0.0,2.9327,2.9377,2.9063,2.9327,2.9503,0.0,0.0,0.0,0.0,0.0,2.7996,2.8097,2.8021,2.8286,2.8912,2.9188,3.0727,3.341,3.47,3.5002,3.4441,3.4489,0.0,0.0,0.0,0.0,0.0,0.0,0.0,0.0,0.0,0.0,0.0,0.0,0.0,0.0,0.0,0.0,0.0,0.0,0.0,0.0,0.0,0.0,0.0,0.0,0.0,0.0,0.0,0.0,0.0,0.0,0.0,0.0,0.0,0.0,0.0,0.0,0.0,0.0,0.0,0.0,0.0,0.0,0.0,0.0,0.0,0.0,0.0,0.0,0.0,0.0,0.0,0.0,0.0,0.0,0.0,0.0,0.0,0.0,0.0,0.0,0.0,0.0,0.0,3.6664,3.7244,3.7825,3.8289,3.8647,3.8684,3.7113,3.6283,3.5966,0.0,0.0,0.0,0.0,0.0,0.0,0.0,0.0,0.0,0.0,0.0,0.0,0.0,0.0,0.0,0.0,0.0,0.0,0.0,0.0,0.0,0.0,2.8875,2.8699,2.9603,2.885,2.8323,2.8323,0.0,2.7494,2.7494,2.7419,2.762,2.8097,2.7645,2.7691,2.8243,3.0119,3.2791,3.6102,3.7338,3.8571,3.966,3.639,3.5666,3.6809,0.0,0.0,0.0,0.0,0.0,0.0,0.0,0.0,0.0,0.0,0.0,0.0,0.0,0.0,0.0,0.0,0.0,0.0,0.0,0.0,0.0,0.0,0.0,0.0,0.0,0.0,0.0,0.0,0.0,0.0,0.0,0.0,0.0,0.0,0.0,0.0,0.0,0.0,0.0,0.0,0.0,3.4457,3.4516,0.0,0.0,0.0,0.0,0.0,0.0,0.0,0.0,0.0,0.0,0.0,0.0,0.0,3.6344,3.6925,3.8028,3.8609,3.8696,3.9305,3.9654,3.9741,3.9799,4.0294,4.1017,4.0207,0.0,3.7464,3.6845,0.0,0.0,0.0,0.0,0.0,0.0,0.0,0.0,0.0,0.0,0.0,0.0,0.0,0.0,0.0,0.0,0.0,0.0,0.0,0.0,0.0,2.9428,2.9578,2.9779,3.0482,3.0507,2.9578,2.9302,2.8725,2.7795,2.7178,2.6977,2.7203,2.7278,2.8147,2.9955,3.2164,3.4386,3.6501,3.7664,3.8826,3.9887,3.8165,3.7702,3.8061,3.6114,0.0,0.0,0.0,0.0,0.0,0.0,0.0,0.0,0.0,0.0,0.0,0.0,0.0,0.0,0.0,0.0,0.0,0.0,0.0,0.0,0.0,0.0,0.0,0.0,0.0,0.0,0.0,0.0,0.0,0.0,0.0,0.0,0.0,0.0,0.0,0.0,0.0,0.0,0.0,3.5038,3.5357,3.498,3.5503,3.5648,0.0,0.0,0.0,0.0,0.0,0.0,0.0,0.0,0.0,3.7476,3.8115,3.8754,3.9421,4.035,4.1192,4.1889,4.215,4.2673,4.334,4.334,4.3396,4.3423,4.3481,4.2597,4.0949,3.8936,3.7451,3.6403,0.0,0.0,0.0,0.0,0.0,3.6626,0.0,0.0,0.0,0.0,0.0,0.0,0.0,0.0,0.0,0.0,0.0,0.0,2.9515,3.0353,3.0954,3.106,3.229,3.2566,3.1336,3.0583,2.9553,2.8172,2.7077,2.6499,2.6499,2.7605,2.9352,3.1813,3.4198,3.6121,3.767,3.8856,4.0008,4.1063,4.1325,4.0714,3.9395,3.7433,3.6061,3.4986,0.0,0.0,0.0,0.0,0.0,0.0,0.0,0.0,0.0,0.0,0.0,0.0,0.0,0.0,0.0,0.0,0.0,0.0,0.0,0.0,0.0,0.0,0.0,0.0,0.0,0.0,0.0,0.0,0.0,0.0,0.0,0.0,0.0,0.0,0.0,0.0,0.0,3.5648,3.6257,3.5479,3.6373,3.6664,0.0,0.0,0.0,0.0,0.0,0.0,3.6983,3.7186,3.8086,3.9886,4.0699,4.1395,4.2063,4.2905,4.3776,4.4734,4.4879,4.5459,4.6359,4.6359,4.6231,4.6001,4.6305,4.5858,4.4693,4.1548,3.9476,3.8216,3.7699,3.7075,3.6567,3.7045,3.7734,3.8482,0.0,0.0,0.0,0.0,0.0,0.0,0.0,0.0,0.0,0.0,0.0,2.9128,3.1044,3.1581,3.2536,3.4304,3.3621,3.3043,3.3011,3.0482,2.8712,2.8122,2.7077,2.6499,2.6499,2.9076,3.1286,3.2993,3.573,3.8403,4.1013,4.2663,4.4266,4.5797,4.689,4.5098,4.1075,3.9201,3.8241,3.775,3.5259,0.0,0.0,0.0,0.0,0.0,0.0,0.0,0.0,0.0,0.0,0.0,0.0,0.0,0.0,0.0,0.0,0.0,0.0,0.0,0.0,0.0,0.0,0.0,0.0,0.0,0.0,0.0,0.0,0.0,0.0,0.0,0.0,0.0,0.0,0.0,0.0,0.0,0.0,3.5537,3.7535,0.0,0.0,0.0,0.0,3.7157,3.7157,3.7709,3.8986,3.9596,4.0525,4.1918,4.3166,4.4095,4.4676,4.5953,4.6575,4.6662,4.7288,4.7637,4.7695,4.7695,4.8126,4.8858,4.8226,4.8072,4.8024,4.4709,4.2515,4.1115,4.0457,3.9798,3.9194,3.926,4.0098,4.1175,0.0,0.0,0.0,0.0,0.0,0.0,0.0,0.0,2.8909,2.9184,2.9732,3.0521,3.1589,3.3221,3.4465,3.5157,3.5554,3.5278,3.4198,3.1863,3.0105,2.9227,2.748,2.7178,2.8574,3.0959,3.3345,3.573,3.814,4.0181,4.1841,4.319,4.4084,4.4645,4.5391,4.4838,4.3181,4.1827,4.0223,3.8439,3.6296,3.4902,0.0,0.0,0.0,0.0,0.0,0.0,0.0,0.0,0.0,0.0,0.0,0.0,0.0,0.0,0.0,0.0,0.0,0.0,0.0,0.0,0.0,0.0,0.0,0.0,0.0,0.0,0.0,0.0,0.0,0.0,0.0,0.0,0.0,0.0,0.0,0.0,0.0,3.7941,4.0089,0.0,3.9538,3.9596,3.9741,3.9741,4.0147,4.0931,4.2208,4.2498,4.3369,4.5082,4.5982,4.6911,4.7956,4.842,4.8885,4.9291,4.9088,4.9001,4.9001,4.9001,4.8933,4.8854,4.9058,4.8916,4.8466,4.77,4.5927,4.3567,4.2652,4.2162,4.1884,4.1884,4.2491,4.3269,0.0,0.0,0.0,0.0,0.0,0.0,0.0,0.0,2.8787,2.9337,3.0441,3.1653,3.2959,3.5144,3.6639,3.6887,3.7086,3.6483,3.4826,3.229,3.0357,2.9277,2.7996,2.8348,3.0557,3.3011,3.5454,3.804,4.0074,4.153,4.2514,4.3812,4.4387,4.4438,4.5551,4.6039,4.5787,4.4633,4.2673,4.0154,3.8195,3.708,3.646,0.0,0.0,0.0,0.0,0.0,0.0,0.0,0.0,0.0,0.0,0.0,0.0,0.0,0.0,0.0,0.0,0.0,0.0,0.0,0.0,0.0,0.0,0.0,0.0,0.0,0.0,0.0,0.0,0.0,0.0,0.0,0.0,0.0,0.0,0.0,4.1279,4.0873,4.305,4.4095,4.2847,4.2702,4.2702,4.2702,4.3137,4.3921,4.5198,4.5256,4.6156,4.8072,4.8537,4.9146,5.0017,5.0066,5.0182,5.0386,4.9872,4.9717,4.9717,4.9717,4.9436,4.9059,4.9494,4.9445,4.9063,4.9363,4.822,4.6146,4.5132,4.4407,4.3947,4.3947,4.4407,4.4945,0.0,0.0,0.0,0.0,0.0,0.0,0.0,2.8065,2.8294,2.9803,3.0758,3.2406,3.519,3.7318,3.8865,3.962,3.8191,3.6508,3.4806,3.1637,2.9302,2.8172,2.8662,3.0016,3.2265,3.5027,3.7586,3.9747,4.1458,4.2539,4.3067,4.4716,4.55,4.5607,4.7909,4.8865,4.8701,4.7541,4.5622,4.3128,4.1006,4.0503,4.0561,0.0,0.0,0.0,0.0,0.0,0.0,0.0,0.0,0.0,0.0,0.0,0.0,0.0,0.0,0.0,0.0,0.0,0.0,0.0,0.0,0.0,0.0,0.0,0.0,0.0,0.0,0.0,0.0,0.0,0.0,0.0,0.0,0.0,3.9305,4.2063,4.4095,4.4153,4.6359,4.7404,4.6185,4.604,4.604,4.604,4.604,4.6592,4.784,4.7898,4.8769,5.0705,5.0714,5.0714,5.0714,5.0685,5.0336,4.9698,4.9746,4.9717,4.9717,4.9717,4.9717,4.9717,4.9717,4.9892,5.0076,4.9698,4.9284,4.8803,4.776,4.6531,4.5364,4.5364,4.5783,4.6262,0.0,0.0,0.0,0.0,0.0,0.0,2.8522,2.8378,2.8586,2.9383,3.118,3.3137,3.5132,3.7736,3.947,3.996,3.8465,3.6844,3.5382,3.1863,2.9478,2.8687,3.0382,3.234,3.453,3.7362,3.9471,4.0824,4.2534,4.3413,4.3589,4.4915,4.569,4.6095,4.7163,4.7795,4.8163,4.8244,4.8169,4.7563,4.3006,4.0491,3.9173,0.0,0.0,0.0,0.0,0.0,0.0,0.0,0.0,0.0,0.0,0.0,0.0,0.0,0.0,0.0,0.0,0.0,0.0,0.0,0.0,0.0,0.0,0.0,0.0,0.0,0.0,0.0,0.0,0.0,0.0,0.0,4.0437,4.1308,4.1308,4.4037,4.6563,4.7956,4.9146,4.993,5.0017,4.964,4.9349,4.9349,4.9785,5.0191,5.054,5.0569,5.0801,5.1352,5.1352,5.1352,5.1352,5.0917,5.0598,5.0394,4.9901,4.9717,4.9717,4.9717,4.9717,4.9717,4.9717,4.999,5.0375,5.0246,4.9838,4.9104,4.8356,4.7489,4.6741,4.6741,4.689,4.695,0.0,0.0,0.0,0.0,0.0,0.0,2.8522,2.8522,2.8803,2.9632,3.1763,3.3942,3.5868,3.8001,3.9414,3.9677,3.7568,3.5503,3.3878,3.106,2.9565,2.9799,3.2231,3.4605,3.6885,3.9421,4.1254,4.2359,4.3564,4.4141,4.4166,4.5296,4.5999,4.6351,4.7129,4.7883,4.8624,4.8472,4.9075,4.9677,4.5584,4.3559,4.2732,4.0128,3.8635,3.7688,3.6542,3.6327,3.6383,3.5319,0.0,0.0,0.0,0.0,0.0,0.0,0.0,0.0,0.0,0.0,0.0,0.0,0.0,0.0,0.0,0.0,0.0,0.0,0.0,0.0,0.0,0.0,0.0,0.0,4.3282,4.5053,4.665,4.8014,4.9553,5.1468,5.2281,5.2804,5.3181,5.2862,5.2543,5.231,5.2368,5.2426,5.2426,5.1904,5.1875,5.2397,5.2165,5.202,5.202,5.1381,5.1062,5.1062,5.0133,4.9863,5.0075,4.9814,4.9717,0.0,4.9378,4.9533,4.9886,4.9651,4.9373,0.0,0.0,0.0,0.0,0.0,4.7309,4.7219,0.0,0.0,0.0,0.0,0.0,0.0,2.8522,2.8522,2.8964,3.0209,3.222,3.4405,3.6578,3.7905,3.8696,3.8929,3.6031,3.3319,3.1395,2.9952,2.9949,3.1555,3.4445,3.7063,3.9295,4.1408,4.2911,4.389,4.4443,4.4744,4.4844,4.5899,4.6476,4.6627,4.7581,4.8611,4.9515,4.8535,4.9026,5.0338,4.8372,4.7943,4.8138,4.4505,4.2834,4.2141,4.0292,3.8777,3.7563,3.6786,0.0,0.0,0.0,0.0,0.0,0.0,0.0,0.0,0.0,0.0,0.0,0.0,0.0,0.0,0.0,0.0,0.0,0.0,0.0,0.0,0.0,0.0,0.0,0.0,4.6621,4.9611,5.3326,5.3007,5.2978,5.4633,5.5184,5.5445,5.5503,5.5445,5.5184,5.4662,5.4052,5.3704,5.3617,0.0,0.0,0.0,0.0,5.2601,5.2507,5.1962,5.1614,5.1381,5.0307,5.0046,5.0589,4.9979,4.9717,4.9688,4.9088,4.897,4.915,4.8623,4.861,4.8951,4.9104,4.8386,4.7309,4.7309,4.7309,0.0,0.0,0.0,0.0,0.0,0.0,0.0,2.857,2.8522,2.8883,3.0025,3.1665,3.3208,3.4462,3.5959,3.6979,3.7234,3.4862,3.2487,3.0562,3.0795,3.2228,3.4959,3.7717,4.0165,4.2133,4.3463,4.4242,4.4468,4.5045,4.5547,4.5999,4.6652,4.7456,4.8309,4.851,4.8962,4.959,4.9364,5.0054,5.1272,5.0732,4.9022,4.6546,4.4463,4.3099,4.2095,4.0744,4.0972,4.151,3.934,3.906,3.909,3.6332,3.4936,0.0,0.0,0.0,0.0,0.0,0.0,0.0,0.0,0.0,0.0,0.0,0.0,0.0,0.0,0.0,0.0,0.0,0.0,0.0,4.6621,4.9688,5.263,5.5445,5.652,5.6955,5.6781,5.5968,5.562,5.6171,5.5736,5.5358,5.5242,5.5126,5.4836,5.4342,5.4081,0.0,5.353,5.3384,5.2833,5.1817,5.2194,5.1614,5.0046,0.0,0.0,4.9921,4.9776,4.9717,4.9717,4.9553,4.964,4.9882,4.9764,4.9604,4.9343,4.8761,4.7997,4.7309,4.7309,4.7309,4.7279,0.0,0.0,0.0,0.0,0.0,0.0,2.8546,2.8522,2.8787,2.9581,3.1096,3.2394,3.3188,3.3982,3.4438,3.441,3.2127,3.0491,2.991,3.1424,3.3658,3.6653,3.9696,4.1941,4.3251,4.4994,4.5754,4.5575,4.6305,4.6828,4.7129,4.7682,4.8234,4.8786,4.9063,4.949,5.0017,5.0017,5.071,5.1779,5.1779,5.0752,4.9051,4.7733,4.6162,4.4543,4.3714,4.3413,4.3092,4.1277,4.0695,4.0236,3.8117,3.6547,3.5418,0.0,0.0,0.0,0.0,0.0,0.0,0.0,0.0,0.0,0.0,0.0,0.0,0.0,0.0,3.9911,4.2071,0.0,4.694,5.0133,5.2543,5.501,5.7884,5.8581,5.8552,5.7884,5.7245,5.6868,5.6868,5.6549,5.6345,5.6345,5.6084,5.562,5.4981,5.4691,5.4197,5.353,5.35,5.321,5.2572,5.2572,5.2129,5.117,5.083,5.0481,5.0211,4.9814,4.9717,4.9669,4.9349,4.9301,4.9397,4.9541,4.9303,4.8769,4.8518,4.8045,4.7553,4.7385,4.7309,4.7309,0.0,0.0,0.0,0.0,0.0,0.0,0.0,2.8739,2.9003,2.9532,3.085,3.1837,3.2154,3.2178,3.1882,3.1132,2.9675,2.9178,2.999,3.2576,3.5381,3.8421,4.1471,4.349,4.4238,4.6116,4.691,4.6662,4.7458,4.7833,4.7958,4.856,4.8837,4.8962,4.9389,4.9841,5.0268,5.0268,5.077,5.1624,5.1724,5.1774,5.1708,5.0895,4.9387,4.7657,4.6778,4.5321,4.3639,4.259,4.1354,4.0249,3.9572,3.8216,3.6759,3.6009,3.5474,0.0,0.0,0.0,0.0,0.0,0.0,0.0,0.0,3.6592,3.7172,3.9669,4.0547,4.1742,4.4719,4.6975,4.9559,5.325,5.4806,5.6651,5.977,5.9329,5.8664,5.8523,5.8377,5.8029,5.7361,5.7303,5.7303,5.7303,5.6868,5.6287,5.5649,5.501,5.4371,5.3733,5.3588,5.3442,5.3326,5.2949,5.263,5.2368,5.1352,5.0801,5.0705,4.9988,4.9717,4.964,4.9117,4.8914,4.8914,4.9124,4.8927,4.843,4.8429,4.8247,4.7866,4.736,4.7179,4.7222,0.0,0.0,0.0,0.0,0.0,0.0,0.0,0.0,3.011,3.0639,3.1308,3.1548,3.1096,3.1091,3.017,2.7926,2.9479,3.0955,3.169,3.5332,3.879,4.1834,4.4074,4.5635,4.6497,4.6819,4.6918,4.6855,4.7282,4.7706,4.8266,4.8634,4.9038,4.9515,4.9565,4.9615,4.969,4.969,4.9766,4.9916,5.0419,5.0594,5.0569,5.0449,5.0273,4.9791,4.7757,4.5648,4.3639,4.259,4.1157,3.9923,4.0802,3.9923,3.8391,3.7312,3.5927,3.4584,3.3783,3.4206,3.4498,3.2854,3.3808,3.5325,0.0,3.6277,3.7176,3.9984,4.1186,4.2758,4.6048,4.8616,5.132,5.463,5.5659,5.7009,5.9823,5.8109,5.7215,5.8956,5.8668,5.8029,5.7361,5.7303,5.7303,5.7303,5.7245,5.6926,5.6316,5.5678,5.5039,5.4429,5.382,5.3239,5.2688,5.3181,5.2833,5.173,5.1585,5.1207,5.0705,4.9988,4.9717,4.9717,4.9611,4.9582,4.9582,4.9601,4.9572,4.9446,4.85,4.8143,4.7955,4.7022,4.68,4.6931,0.0,0.0,0.0,0.0,0.0,0.0,0.0,0.0,0.0,3.0398,3.0657,3.0663,3.0446,2.9581,2.8249,2.6275,2.7888,3.0103,3.2602,3.5739,3.9183,4.295,4.4984,4.6284,4.6754,4.7547,4.7758,4.7564,4.7887,4.8229,4.8451,4.8645,4.8809,4.9032,4.9202,4.9506,4.9831,5.0353,5.0569,5.0645,5.1523,5.1498,5.0896,5.0544,4.9213,4.7305,4.5397,4.3489,0.0,4.0224,3.9496,3.9346,4.0149,3.9245,3.7788,3.6983,3.5303,3.3708,3.3361,3.3508,3.3788,3.3669,3.4812,3.6237,3.7598,3.8347,3.9625,4.2545,4.3833,4.5416,4.8491,5.0449,5.2439,5.4939,5.549,5.6139,5.7679,5.6053,5.4852,5.501,5.4202,5.4488,5.6582,5.5736,5.5243,5.5652,5.5303,5.5131,5.531,5.4008,5.3332,5.3431,5.2094,5.1644,5.2088,5.2345,5.2378,5.2165,5.1788,5.1294,5.0705,4.9988,4.9717,4.9717,4.9717,4.9717,4.9717,4.9717,4.9465,4.903,4.8225,4.7333,4.6451,4.6546,4.6624,4.6712,0.0,0.0,0.0,0.0,0.0,0.0,0.0,0.0,0.0,0.0,3.0398,3.0182,2.9893,2.8595,2.7162,2.5877,2.7224,2.9484,3.2635,3.5713,3.9176,4.312,4.5247,4.6504,4.692,4.7856,4.8182,4.7828,4.8248,4.8445,4.8445,4.851,4.86,4.86,4.8985,4.9314,4.9562,5.0398,5.078,5.083,5.1547,5.1389,5.0538,4.9275,4.6853,4.3966,4.2735,4.0752,3.8492,3.7111,3.6709,3.6985,3.8015,3.7487,3.6358,3.5701,3.4042,3.2441,3.2566,3.3068,3.3746,3.468,3.6132,3.7758,3.944,4.0668,4.2135,4.483,4.607,4.747,4.9956,5.1203,5.2516,5.4507,5.4495,5.4564,5.5627,5.3678,5.1997,5.1598,4.9727,4.9882,5.34,5.3042,5.2924,5.3715,5.3421,5.3549,5.4157,5.2791,5.2072,5.2407,5.0925,5.0459,5.1182,5.1182,5.1423,5.1885,5.1005,5.0406,4.9972,4.9473,4.9198,4.9248,4.9571,4.9522,4.9248,4.9368,4.9146,4.8605,4.784,4.6782,4.5732,4.5888,4.5837,4.5673,0.0,0.0,0.0,0.0,0.0,0.0,0.0,0.0,0.0,0.0,0.0,0.0,0.0,2.8378,2.745,2.6898,2.833,2.9941,3.1645,3.5691,3.9448,4.2699,4.4804,4.6415,4.7449,4.7497,4.7497,4.7497,4.7828,4.8026,4.8026,4.8445,4.86,4.8625,4.9116,4.9067,4.8649,4.9166,4.9387,4.9338,4.924,4.9147,4.8774,4.5845,4.3087,4.0651,4.0601,3.7789,3.3997,3.342,3.2516,3.1989,3.4173,3.4851,3.4575,3.3495,3.1989,3.0809,3.1311,3.3018,3.4756,3.5332,3.7563,3.9873,4.0978,4.2509,4.4166,4.5908,4.7115,4.8303,4.9698,5.0229,5.1178,5.3288,5.241,5.2166,5.4329,5.0819,4.8669,5.0148,4.6573,4.4793,0.0,4.9036,5.0726,5.1785,5.2321,5.2919,5.3489,5.2886,5.2262,5.1723,5.101,5.0441,4.9985,4.9958,4.9958,4.9987,4.879,4.8192,4.8192,4.8093,4.8072,4.8122,4.9198,4.905,4.8094,4.8537,4.874,4.8547,4.73,4.6807,4.6553,4.4986,4.3862,4.3361,0.0,0.0,0.0,0.0,0.0,0.0,0.0,0.0,0.0,0.0,0.0,0.0,0.0,0.0,0.0,0.0,2.8595,3.0278,3.2587,3.504,3.7685,4.0547,4.3024,4.4515,4.4852,4.6247,4.6968,4.6968,4.7461,4.7696,4.7696,4.8191,4.8191,4.7918,4.8652,4.8931,4.8809,4.9222,4.8944,4.8256,4.8278,4.7181,4.5303,4.2871,3.9801,3.6551,0.0,3.2914,3.1035,3.0105,2.9779,3.003,3.1512,3.1738,3.1386,3.1009,3.126,3.1964,3.3244,3.5504,3.7789,3.9019,4.0927,4.271,4.384,4.5095,4.6075,4.6276,4.6301,4.6194,4.5882,4.5615,4.607,4.7913,4.8375,4.8875,5.0002,4.8553,4.6787,4.5141,4.3623,4.2565,0.0,0.0,0.0,4.8122,4.8994,4.9785,5.0565,4.988,4.9603,4.9982,4.8544,4.8068,4.8731,4.8334,4.8602,4.936,4.8165,4.7323,4.6916,4.6876,4.6867,4.6919,4.728,4.7229,4.6892,4.7059,4.6656,4.5928,4.5511,4.4407,4.2988,4.2457,4.1667,4.1069,0.0,0.0,0.0,0.0,0.0,0.0,0.0,0.0,0.0,0.0,0.0,0.0,0.0,0.0,0.0,0.0,0.0,3.0398,3.2298,3.3909,3.5809,3.807,4.0355,4.1653,4.1822,4.3192,4.389,4.389,4.4227,4.4491,4.4683,4.5213,4.5501,4.5549,4.6335,4.6706,4.673,4.6963,4.6392,4.5428,4.4963,4.3404,4.1072,3.8622,3.5815,0.0,3.0415,2.9209,2.8675,2.7821,2.7871,2.8499,2.9428,2.9754,2.9829,3.003,3.1386,3.3219,3.5102,3.7638,4.0149,4.1806,4.3313,4.4644,4.5573,4.6326,4.6627,4.5874,4.5271,4.4418,4.2911,4.2509,4.2735,4.384,4.492,4.5899,4.6627,4.5924,4.4568,4.2464,4.1685,4.0852,3.9798,0.0,0.0,4.5356,4.6594,4.7698,4.8636,4.8201,4.8165,4.8636,4.7481,4.6999,4.7191,4.7011,4.7028,4.7166,4.6425,4.5926,4.5714,4.5714,4.5714,4.5767,4.611,4.6057,4.5741,4.573,4.5234,4.4579,4.4144,4.3049,4.1716,4.1319,4.0794,4.0415,0.0,0.0,0.0,0.0,0.0,0.0,0.0,0.0,0.0,0.0,0.0,0.0,0.0,0.0,0.0,0.0,0.0,0.0,3.0831,3.2346,3.3861,3.5352,3.6964,3.807,3.8599,3.8695,3.8743,3.8743,3.8743,3.8984,3.9489,4.0042,4.0836,4.1798,4.241,4.2651,4.2602,4.2578,4.1976,4.0893,3.9631,3.8157,3.6452,3.3559,3.1434,2.9761,2.7606,2.6928,2.7044,2.6671,2.6917,2.7494,2.8021,2.895,2.9955,3.0608,3.2365,3.46,3.6784,3.9471,4.1952,4.3589,4.4794,4.5723,4.62,4.625,4.5849,4.4669,4.3915,4.2811,4.0651,4.0648,4.1025,4.115,4.2233,4.3388,4.4468,4.3363,4.2439,4.2263,4.0877,3.9923,3.9823,4.0325,0.0,4.3639,0.0,4.6677,4.7682,4.7832,4.7857,4.7857,4.7857,4.7104,4.5547,4.5974,4.5372,4.3765,4.3765,4.4082,4.4615,4.4615,4.4615,4.467,4.5714,4.5529,4.4539,4.4508,4.4455,4.4293,4.3133,4.2674,4.2501,4.1518,4.1119,4.1119,0.0,0.0,0.0,0.0,0.0,0.0,0.0,0.0,0.0,0.0,0.0,0.0,0.0,0.0,0.0,0.0,0.0,0.0,3.0831,3.1669,3.2295,3.2704,3.4583,3.5689,3.5807,3.7012,3.7613,3.7613,3.7613,3.7685,3.7829,3.8767,3.9152,3.9032,3.9994,4.0186,3.9801,3.9369,3.8815,3.8094,3.7019,3.5813,3.4535,3.2599,3.1385,3.0465,2.884,2.8309,2.824,2.7508,2.799,2.8898,2.9264,2.9854,3.0758,3.2541,3.4901,3.7437,3.9672,4.2855,4.5689,4.6175,4.6803,4.7129,4.6451,4.5347,4.389,4.1957,4.0124,3.8442,3.7012,3.6887,3.7514,3.9245,4.1806,4.384,4.4518,4.5673,4.5522,4.3062,4.3112,4.2886,4.171,4.2032,0.0,0.0,4.4593,4.5171,4.5447,4.6652,4.733,4.733,4.733,4.6928,4.61,4.4995,4.4016,4.3187,4.3187,4.328,4.3462,4.3462,4.3462,4.3462,4.3713,4.3482,4.2827,4.2846,4.2338,4.1491,4.1209,4.0824,4.0465,4.016,4.0083,4.0083,0.0,0.0,0.0,0.0,0.0,0.0,0.0,0.0,0.0,0.0,0.0,0.0,0.0,0.0,0.0,0.0,0.0,0.0,0.0,3.0481,3.0336,3.0099,3.1423,3.2062,3.1849,3.3074,3.3717,3.3717,3.3339,3.3506,3.4102,3.4766,3.5387,3.5954,3.6795,3.7012,3.6648,3.6146,3.5352,0.0,0.0,3.2202,3.11,3.0013,2.9412,2.9027,2.8255,2.844,2.9084,2.9462,3.0161,3.0959,3.1456,3.2496,3.3878,3.6016,3.8317,4.0727,4.3156,4.5588,4.7581,4.8083,4.7707,4.6853,4.5522,4.3915,4.1957,3.9245,3.7513,3.6056,3.47,3.465,3.5479,3.7511,3.9948,4.2183,4.3689,4.497,4.5246,4.3865,4.4041,4.389,4.2961,4.3162,4.3564,0.0,4.4443,4.4844,4.5347,4.625,4.6979,4.7456,4.7481,4.7205,4.6677,4.4769,4.3639,4.3338,4.3087,4.2986,4.2986,4.2986,4.2986,4.2986,0.0,4.2811,4.2539,4.2007,4.143,4.0774,4.035,3.9973,3.9697,3.9697,3.9697,3.9697,0.0,0.0,0.0,0.0,0.0,0.0,0.0,0.0,0.0,0.0,3.0037,0.0,0.0,0.0,0.0,0.0,0.0,0.0,0.0,0.0,2.8533,2.805,2.8441,2.8507,2.8194,2.8728,2.9032,2.9032,2.805,2.824,2.9492,2.9831,3.0898,3.2596,3.3191,3.343,3.3334,3.2875,3.1889,3.0591,2.9581,2.8691,2.7834,0.0,2.7258,2.7306,2.7306,2.8282,2.979,3.1699,3.2616,3.3069,3.4121,3.5858,3.7966,3.9954,4.2013,4.4091,4.6592,4.777,4.8535,4.9289,4.7883,4.5824,4.3991,4.2082,3.9798,3.6684,3.5529,3.463,3.3319,3.3596,3.46,3.6455,3.8089,4.0049,4.2811,4.3263,4.3689,4.4719,4.4418,4.4141,4.4141,4.4066,4.4242,4.4819,4.4769,4.5171,4.615,4.6276,4.6778,4.7782,4.7732,4.7481,4.7029,4.4895,4.379,4.379,4.3237,4.2986,4.2986,4.2986,4.2986,4.2986,0.0,0.0,4.2785,4.1756,4.125,4.1075,4.0099,3.9697,3.9697,3.9697,3.9697,3.9697,0.0,0.0,0.0,0.0,0.0,0.0,0.0,0.0,0.0,0.0,2.9811,3.0062,0.0,0.0,0.0,0.0,0.0,0.0,0.0,0.0,0.0,2.805,2.8096,2.8412,2.9046,2.8064,2.7568,2.7568,2.6173,2.5848,2.6482,2.7781,2.853,2.8823,3.0176,3.0543,3.0086,2.9556,2.9436,2.9508,2.8907,2.8811,2.9003,2.8931,0.0,0.0,2.9532,2.9989,3.0826,3.2051,3.3198,3.4501,3.6554,3.8306,4.0028,4.229,4.459,4.6667,4.7732,4.9307,5.0419,4.9213,4.7606,4.5623,4.3092,3.9799,3.6684,3.4726,3.352,3.2842,3.3043,3.3897,3.5429,3.8064,3.9446,4.1204,4.394,4.4744,4.5296,4.5949,4.5924,4.5874,4.5874,4.5472,0.0,0.0,0.0,4.5422,4.5623,4.6075,4.6602,4.7255,4.6828,4.6552,4.6451,4.4694,4.379,4.379,4.3237,4.2986,4.2986,4.2986,4.2986,4.2986,4.2986,0.0,4.2313,4.1605,4.1025,4.0601,3.9948,3.9697,3.9697,3.9697,3.9697,3.9697,0.0,0.0,0.0,0.0,0.0,0.0,0.0,2.8538,2.8327,2.9515,2.9639,2.9463,2.8982,2.8657,2.8298,0.0,0.0,0.0,0.0,0.0,0.0,0.0,2.6444,2.659,2.7447,2.6824,2.6464,2.6464,0.0,2.531,2.6487,2.6998,2.7752,2.8633,2.9636,2.9797,2.9292,2.9027,2.8907,2.8883,2.8907,2.9076,2.934,0.0,0.0,0.0,2.9773,3.0182,3.0999,3.1837,3.3232,3.5017,3.7248,3.9247,4.1268,4.3923,4.5982,4.7791,4.9429,5.0672,5.108,4.9902,4.7732,4.507,4.2007,3.8517,3.5479,3.3822,3.2792,3.239,3.2968,3.3746,3.4926,3.6835,3.8065,3.9747,4.2534,4.3639,4.4618,4.5748,4.6401,4.6753,4.6753,4.6753,4.6753,4.6753,0.0,4.6225,4.5924,4.6451,4.6853,4.7068,4.6878,4.6753,4.6753,4.507,4.4392,4.4669,4.3815,4.3413,4.3413,4.3413,4.3237,4.2986,4.2986,0.0,4.259,4.1982,4.143,4.0824,4.035,3.9948,3.9697,3.9697,3.9697,3.9697,0.0,0.0,0.0,0.0,0.0,0.0,0.0,2.8195,2.8054,2.9473,2.9204,2.8609,2.7785,2.8098,2.8042,0.0,0.0,0.0,0.0,0.0,0.0,0.0,0.0,0.0,2.6193,0.0,0.0,2.5786,2.4907,0.0,0.0,0.0,0.0,0.0,3.0097,3.0086,2.9797,2.9677,2.946,0.0,0.0,2.9797,0.0,0.0,0.0,0.0,0.0,3.0158,3.1163,3.1693,3.3092,3.4943,3.6867,3.9291,4.1891,4.4573,4.6563,4.8419,5.0758,5.1538,5.1426,5.0353,4.7657,4.4367,4.0802,3.7439,3.468,3.3068,3.2441,3.239,3.2968,3.342,3.4148,3.5504,3.6257,3.7713,4.0699,4.2108,4.3463,4.5271,4.6552,4.7255,4.7093,4.7506,0.0,4.7004,0.0,0.0,4.6326,4.6728,4.6954,4.6954,4.6954,4.7004,4.7068,4.5598,4.5045,4.5472,4.4342,4.374,4.3639,4.3639,4.3388,4.2986,4.2986,0.0,0.0,4.2439,4.1831,4.1225,4.0727,4.0174,3.9697,3.9823,3.9798,3.9722,0.0,0.0,0.0,0.0,0.0,0.0,0.0,2.716,2.7019,2.8272,2.8107,2.7673,2.7128,2.7573,2.7653,0.0,0.0,0.0,0.0,0.0,0.0,0.0,0.0,0.0,0.0,0.0,0.0,2.582,2.4871,0.0,0.0,0.0,0.0,0.0,0.0,3.1091,3.1452,3.097,0.0,0.0,0.0,0.0,0.0,0.0,0.0,0.0,0.0,3.073,3.1717,3.2226,3.3188,3.427,3.5473,3.8529,4.202,4.3892,4.6348,4.8912,5.0586,5.1674,5.1793,4.95,4.6803,4.3564,3.922,3.6056,3.3571,3.1888,3.1913,3.239,3.2968,3.3162,3.3847,3.5977,3.5529,3.6257,4.0049,4.153,4.3092,4.5221,4.6878,4.7657,4.7179,4.7118,4.6979,4.6426,0.0,0.0,4.6301,4.6351,4.6376,4.6376,4.6376,4.6627,4.7129,4.5974,4.5447,4.5472,4.4342,4.3539,4.3062,4.3062,4.3037,4.2986,4.2986,0.0,0.0,4.2439,4.1831,4.1225,4.0727,4.0174,3.9747,4.0249,4.0124,3.9772,0.0,0.0,0.0,0.0,0.0,0.0,2.8193,2.7172,2.6934,2.8476,2.8301,2.7969,2.7812,2.7732,2.7359,2.6385,0.0,0.0,0.0,0.0,0.0,0.0,0.0,0.0,0.0,0.0,2.6256,2.6755,2.6382,0.0,0.0,0.0,0.0,0.0,0.0,3.15,3.1693,3.1476,0.0,0.0,0.0,0.0,0.0,0.0,0.0,0.0,0.0,0.0,3.1693,3.1553,3.2226,3.314,3.3212,3.5234,3.8133,4.1076,4.388,4.6479,4.8663,5.0641,5.1432,4.9013,4.6495,4.3564,3.9471,3.5881,3.3219,3.2541,3.2039,3.1989,3.296,3.3111,3.3413,3.4293,3.4022,3.4751,3.7638,3.8693,4.0475,4.4041,4.5648,4.6753,4.7531,0.0,4.7757,4.6878,0.0,0.0,4.6301,4.6301,4.6301,4.6301,4.6301,4.6426,4.6652,4.5522,4.5146,4.5472,4.4342,4.3689,4.3463,4.3463,4.3288,4.2986,4.2986,0.0,0.0,4.2791,4.2333,4.1806,4.158,4.0953,4.0249,4.0802,4.0651,4.0275,0.0,0.0,0.0,0.0,0.0,2.7208,2.781,2.7063,2.6992,2.8691,2.8555,2.8301,2.8301,2.791,2.7298,2.6263,2.6708,0.0,0.0,0.0,0.0,0.0,0.0,0.0,0.0,0.0,2.6754,2.7737,2.7737,2.8852,0.0,0.0,3.1112,3.2587,0.0,0.0,0.0,0.0,0.0,0.0,0.0,0.0,0.0,0.0,0.0,0.0,0.0,0.0,0.0,0.0,0.0,3.2178,3.1837,3.2683,3.4559,3.7974,4.1196,4.4144,4.6503,4.9005,5.0376,4.7972,4.5654,4.2918,3.8841,3.5537,3.3219,3.2807,3.2298,3.2139,3.2943,3.3111,3.3111,3.3111,3.3111,3.3796,3.5855,3.6885,3.8768,4.2384,4.3966,4.5321,4.6803,4.7606,4.7732,0.0,0.0,0.0,0.0,4.6301,4.6301,4.6301,4.615,4.615,4.6301,4.5196,4.4819,4.5221,4.4267,4.3714,4.3564,4.3564,4.3338,4.2986,0.0,0.0,0.0,4.2986,4.2715,4.2187,4.1982,4.143,4.0802,4.115,4.105,4.0852,0.0,0.0,0.0,0.0,0.0,0.0,2.6448,2.6387,2.6992,2.8691,2.8555,2.8301,2.8301,2.791,2.748,2.7031,2.6992,0.0,0.0,0.0,0.0,0.0,0.0,0.0,0.0,0.0,2.799,2.8616,2.8616,2.9968,3.254,3.0878,3.1754,3.4703,0.0,0.0,0.0,0.0,0.0,0.0,0.0,0.0,0.0,0.0,0.0,0.0,0.0,0.0,0.0,0.0,0.0,0.0,0.0,3.1717,3.2271,3.4895,3.8671,4.2469,4.4427,4.6899,4.8377,4.6019,4.3968,4.131,3.6678,3.4736,3.3527,3.2169,3.2564,3.3111,3.3111,3.3111,3.3111,3.3111,3.3111,3.3646,3.5282,3.696,3.8642,4.035,4.2007,4.3438,4.4543,4.5673,4.6326,0.0,0.0,0.0,0.0,4.6301,4.6301,4.6301,4.5773,4.5748,4.6301,4.5196,4.4618,4.4618,4.4066,4.3514,4.2986,4.2986,4.2986,0.0,0.0,0.0,0.0,4.2986,4.2715,4.2162,4.1555,4.1275,4.1275,4.1275,4.1275,4.1351,0.0,0.0,0.0,0.0,0.0,0.0,0.0,2.6816,2.7324,2.873,2.8555,2.8398,2.8691,2.834,2.8047,2.7891,2.7344,0.0,0.0,0.0,0.0,0.0,0.0,0.0,0.0,2.8805,2.9694,3.0672,3.0672,3.1444,3.302,3.2442,3.2731,3.3697,3.3785,3.4172,0.0,0.0,0.0,0.0,0.0,0.0,0.0,0.0,0.0,0.0,0.0,0.0,0.0,0.0,0.0,0.0,0.0,0.0,0.0,3.2659,3.54,3.8484,3.9823,4.2001,4.3549,4.1655,4.0498,3.8933,3.5815,3.4074,3.2959,3.2524,3.2343,3.2446,3.3018,3.2939,3.2896,3.3068,3.3134,3.3618,3.476,3.6266,3.8266,4.1304,4.4116,4.5949,0.0,0.0,0.0,0.0,0.0,0.0,0.0,4.6677,4.6527,4.5773,4.5573,4.5372,4.5171,4.4443,4.4242,4.4618,4.3689,4.3338,4.3539,4.3162,0.0,0.0,0.0,0.0,0.0,4.2986,4.2861,4.2766,4.2534,4.2233,4.1932,4.2333,4.2233,4.1982,0.0,0.0,0.0,0.0,0.0,0.0,0.0,2.7012,2.7422,2.8535,2.8457,2.8398,2.8652,2.8457,2.8301,2.8301,2.7812,0.0,0.0,0.0,0.0,0.0,0.0,0.0,2.89,2.9984,3.0897,3.1586,3.176,3.2323,3.3201,3.2932,3.3161,3.3819,3.4066,3.4433,0.0,0.0,0.0,0.0,0.0,0.0,3.4751,0.0,0.0,0.0,0.0,0.0,0.0,0.0,0.0,0.0,0.0,0.0,0.0,0.0,3.3114,3.4968,3.6651,3.8809,4.0255,3.8873,3.802,3.6973,3.4815,3.3408,3.2593,3.2593,3.2364,3.2411,3.2975,3.2896,3.281,3.3068,3.2978,3.3271,3.4375,3.5849,3.8091,4.148,4.4242,0.0,0.0,4.6005,0.0,0.0,0.0,0.0,0.0,4.6566,4.6301,4.5196,4.5372,4.5221,4.4644,4.3865,4.3664,4.3991,4.3313,4.3162,4.3489,4.3137,0.0,0.0,0.0,0.0,0.0,4.2986,4.2986,4.2961,4.2816,4.264,4.2539,4.2665,4.264,4.2564,0.0,0.0,0.0,0.0,0.0,0.0,0.0,2.709,2.7383,2.8184,2.8301,2.8301,2.8301,2.8301,2.8301,2.8301,0.0,0.0,0.0,0.0,0.0,0.0,0.0,0.0,3.0016,3.1051,3.1586,3.1586,3.1971,3.2465,3.3051,3.2436,3.3028,3.4531,3.3598,3.3819,3.4775,0.0,0.0,0.0,3.4775,3.4775,0.0,0.0,0.0,0.0,0.0,0.0,0.0,0.0,0.0,0.0,0.0,0.0,0.0,0.0,0.0,0.0,0.0,3.6795,3.807,3.706,3.6275,3.526,3.3547,3.2755,0.0,3.24,3.2506,3.2766,3.3025,3.2853,3.2766,3.3025,3.2711,3.2887,3.4123,3.5953,3.8241,4.1096,4.2986,0.0,4.3865,0.0,0.0,0.0,0.0,0.0,0.0,4.6195,4.5874,4.4769,4.5221,4.5171,4.4518,4.3489,4.2986,4.3037,4.2986,4.2986,4.3037,4.2986,0.0,0.0,0.0,0.0,0.0,4.2986,4.2986,4.2936,4.2464,4.259,4.2911,4.2464,4.259,4.2986,0.0,0.0,0.0,0.0,0.0,0.0,0.0,0.0,0.0,0.0,2.8301,2.8301,2.8301,2.8301,2.8301,0.0,0.0,0.0,0.0,0.0,0.0,0.0,0.0,0.0,3.1154,3.1483,3.1586,3.1586,3.1695,3.1826,3.1993,3.1797,3.1929,3.2398,3.2951,3.3819,3.4775,3.4775,0.0,0.0,3.4775,3.4775,0.0,0.0,0.0,0.0,3.4126,3.391,0.0,0.0,0.0,0.0,0.0,0.0,0.0,0.0,3.1717,3.1837,3.2464,0.0,3.3331,3.3066,3.2962,3.2786,0.0,3.2087,3.2181,3.2356,3.2245,3.2376,3.2982,3.2593,3.2288,3.2723,3.2955,3.3317,3.3973,3.7469,4.0703,4.2675,4.4602,4.5313,4.4203,0.0,0.0,0.0,0.0,0.0,0.0,4.6745,4.6627,4.5949,4.5648,4.4819,4.3388,4.3112,4.3187,4.3614,4.3187,4.3187,4.3589,4.3162,0.0,0.0,0.0,0.0,4.2986,4.2986,4.2986,4.2961,4.2836,4.2861,4.2961,4.2891,4.2861,4.2986,0.0,0.0,0.0,0.0,0.0,0.0,0.0,0.0,0.0,0.0,0.0,2.8301,2.8301,2.8301,0.0,0.0,0.0,0.0,0.0,0.0,0.0,0.0,0.0,3.0432,3.1586,3.1586,3.1586,3.1586,3.1288,3.1266,3.1586,3.1288,3.1576,3.2398,3.3449,3.4262,3.4775,3.4775,3.4775,3.4775,3.4775,0.0,0.0,0.0,0.0,0.0,3.4366,3.4198,0.0,3.4006,3.3837,3.3549,0.0,0.0,0.0,0.0,3.1717,3.1717,3.1717,3.1717,3.1717,3.1717,3.1761,3.1849,3.1717,3.1805,3.1937,3.2356,3.2181,3.2201,3.281,3.2419,3.2211,3.2852,3.2946,3.3568,3.5453,3.83,4.109,4.3573,4.4933,4.5515,0.0,0.0,0.0,0.0,0.0,0.0,0.0,4.6345,4.6125,4.5547,4.4995,4.4267,4.3363,4.3112,4.3137,4.3413,4.3112,4.3137,4.3413,4.3112,4.2986,0.0,0.0,0.0,4.2986,4.2986,4.2986,4.2986,4.2986,4.2986,4.2986,4.2986,4.2986,4.2986,0.0,0.0,0.0,0.0,0.0,0.0,0.0,0.0,0.0,0.0,0.0,0.0,0.0,0.0,0.0,0.0,0.0,0.0,0.0,0.0,0.0,0.0,2.9932,3.0484,3.1841,3.1513,3.1432,3.1586,3.1127,3.1148,3.1695,3.1391,3.1976,3.3365,3.4211,3.4628,3.4775,3.4775,3.4775,3.4775,3.4775,0.0,0.0,0.0,0.0,0.0,0.0,0.0,0.0,3.4534,3.4414,3.403,3.3573,0.0,0.0,0.0,0.0,0.0,3.1717,3.1717,3.1717,3.1717,3.1717,3.1717,3.1717,3.1765,3.1946,3.2313,3.223,3.2235,3.2717,3.2484,3.2463,3.3269,3.3271,3.4438,3.784,3.9209,4.1003,4.4067,4.4843,0.0,0.0,0.0,0.0,0.0,0.0,0.0,0.0,4.5595,4.5221,4.4585,4.4034,4.3651,4.3576,4.3156,4.2986,4.2986,4.2986,4.2986,4.2986,4.2986,4.2986,0.0,0.0,0.0,4.2986,4.2986,4.2986,4.2986,4.2986,4.2986,4.2986,4.2986,4.2986,4.2986,0.0,0.0,0.0,0.0,0.0,0.0,0.0,0.0,0.0,0.0,0.0,0.0,0.0,0.0,0.0,0.0,0.0,0.0,0.0,0.0,0.0,2.988,2.9932,3.0845,3.2901,3.1103,3.0639,3.1586,3.1962,3.2211,3.2301,3.357,3.4067,3.3871,3.3584,3.3967,3.4775,3.4775,3.4775,3.4775,3.4775,0.0,0.0,0.0,0.0,0.0,0.0,0.0,0.0,3.4246,3.4366,3.4558,3.4054,0.0,0.0,0.0,0.0,0.0,3.1717,3.1717,3.1717,3.1717,3.1717,3.1717,3.1717,3.2034,3.2385,3.2411,3.2414,3.2641,3.3286,3.3231,3.3351,3.4092,3.5501,3.7525,0.0,0.0,4.2781,4.3939,0.0,0.0,0.0,0.0,0.0,0.0,0.0,0.0,0.0,4.5475,4.5103,4.4261,4.3713,4.3102,4.2404,4.2812,4.2986,4.2986,4.2986,4.2986,4.2986,4.2986,4.2986,0.0,0.0,4.2986,4.2986,4.2986,4.2986,4.2986,4.2986,4.2986,4.2986,4.2986,4.2986,4.2986,0.0,0.0,0.0,0.0,0.0,0.0,0.0,0.0,0.0,0.0,0.0,0.0,0.0,0.0,0.0,0.0,0.0,0.0,0.0,0.0,2.9355,2.9859,2.9355,2.9775,3.1359,3.0054,2.9933,3.1073,3.1902,3.2437,3.2783,3.3838,3.4078,3.3595,3.3913,3.4311,3.4775,3.4775,3.4775,3.4775,0.0,0.0,0.0,0.0,0.0,0.0,0.0,0.0,0.0,0.0,3.4583,3.4679,3.415,0.0,0.0,0.0,0.0,0.0,3.1717,3.1717,3.1837,3.244,3.2322,3.2202,3.2512,3.2755,3.2943,3.304,3.2741,3.2795,3.3811,3.3805,3.4294,3.6056,3.8056,3.9833,4.1233,4.215,4.3037,0.0,0.0,0.0,0.0,0.0,0.0,0.0,0.0,0.0,0.0,0.0,4.4302,4.3755,4.3037,4.2527,4.211,4.2538,4.2762,4.2737,4.293,4.2986,4.2986,4.2986,4.2986,4.2986,0.0,4.2986,4.2986,4.2986,4.2811,4.259,4.259,4.259,4.259,4.259,4.259,4.259,0.0,0.0,0.0,0.0,0.0,0.0,0.0,0.0,0.0,0.0,0.0,0.0,0.0,0.0,0.0,0.0,0.0,0.0,0.0,2.9513,2.9513,2.9513,2.9006,2.9099,3.0024,2.9695,3.012,3.1356,3.2721,3.3649,3.4168,3.4418,3.4272,3.3784,3.4481,3.4775,3.4775,3.4775,3.4775,3.4775,0.0,0.0,0.0,0.0,0.0,0.0,0.0,0.0,0.0,0.0,0.0,0.0,0.0,0.0,0.0,3.2971,3.2394,3.191,3.191,3.1813,3.1934,3.2851,3.2899,3.2851,3.3501,3.3837,3.4028,3.395,3.3712,3.3668,3.4628,3.4969,3.5833,3.7853,4.0186,4.1725,4.1725,4.2656,4.3649,0.0,0.0,0.0,0.0,0.0,0.0,0.0,0.0,0.0,0.0,0.0,4.3349,4.2955,4.2307,4.1915,4.1883,4.2142,4.2344,4.2513,4.2874,4.2986,4.2874,4.2986,4.2986,4.2874,4.2986,4.2911,4.2785,4.2785,4.2514,4.1957,4.1957,4.2112,4.2213,4.2213,4.2288,4.2414,0.0,0.0,0.0,0.0,0.0,0.0,0.0,0.0,0.0,0.0,0.0,0.0,0.0,0.0,0.0,0.0,0.0,0.0,0.0,2.8388,2.8388,2.8388,2.9323,3.0013,3.0553,3.1042,3.2024,3.3541,3.5766,3.7115,3.7618,3.6665,3.5949,3.5396,3.4991,3.4775,3.4775,3.4775,3.4775,3.4775,3.4775,0.0,0.0,0.0,0.0,0.0,0.0,0.0,0.0,0.0,0.0,0.0,0.0,0.0,3.3934,3.3886,3.3212,3.2442,3.2442,3.2058,3.1862,3.2418,3.2899,3.3501,3.4487,3.5473,3.5956,3.526,3.5621,3.6052,3.594,3.7287,3.8527,3.8719,4.1341,4.3337,4.3337,0.0,0.0,0.0,0.0,0.0,0.0,0.0,0.0,0.0,0.0,0.0,0.0,0.0,0.0,4.1736,4.1688,4.1516,4.1254,4.1549,4.1948,4.2513,4.2874,4.2874,4.2513,4.2874,4.2818,4.2513,4.2874,4.274,4.2263,4.2263,4.1882,4.1351,4.1351,4.1706,4.2213,4.2213,4.2539,4.2911,0.0,0.0,0.0,0.0,0.0,0.0,0.0,0.0,0.0,0.0,0.0,0.0,0.0,0.0,0.0,0.0,0.0,0.0,0.0,2.8301,2.8601,2.927,2.967,3.058,3.2062,3.2642,3.354,3.479,3.6362,3.7395,3.795,3.6892,3.5954,3.5063,3.4871,3.4775,3.4775,3.4775,3.4775,3.4775,3.4775,3.4775,0.0,0.0,0.0,0.0,0.0,0.0,0.0,0.0,3.4607,3.4775,3.4775,3.4414,3.3934,3.3669,3.3308,3.2851,3.2154,3.2539,3.326,3.3813,3.4342,3.4847,3.5232,3.6651,3.7589,3.6633,3.7208,3.7637,3.6925,3.8412,3.9898,4.0234,4.2399,4.4216,4.4715,0.0,0.0,0.0,0.0,0.0,0.0,0.0,0.0,0.0,0.0,0.0,0.0,0.0,0.0,4.1606,4.1435,4.1287,4.1172,4.1435,4.172,4.1948,4.2256,4.2369,4.2256,4.2369,4.2481,4.2513,4.2276,4.2168,4.2187,4.1781,4.1329,4.0774,4.0774,4.1153,4.1656,4.1656,4.2007,4.2514,0.0,0.0,0.0,0.0,0.0,0.0,0.0,0.0,0.0,0.0,0.0,0.0,0.0,0.0,0.0,0.0,0.0,0.0,2.8794,2.8794,2.9323,3.038,3.0742,3.1741,3.3546,3.4432,3.5318,3.6149,3.7137,3.7651,3.7709,3.6651,3.5761,3.5039,3.5039,3.5039,3.5039,3.5039,3.4919,3.4775,3.4775,3.4775,0.0,0.0,0.0,0.0,0.0,0.0,0.0,0.0,3.4775,3.4775,3.4775,3.4534,3.4174,3.3885,3.3645,3.3332,3.2418,3.2971,3.3885,3.4246,3.4992,3.5785,3.6483,3.7757,3.8695,3.8286,3.8791,3.8984,3.8007,3.9231,4.0507,0.0,4.2795,4.4529,0.0,0.0,0.0,0.0,0.0,0.0,0.0,0.0,0.0,0.0,0.0,0.0,0.0,0.0,0.0,0.0,4.1287,4.1172,4.1172,4.1402,4.1435,4.1492,4.1517,4.1712,4.1915,4.1857,4.1896,4.1935,4.1582,4.14,4.1389,4.1068,4.0592,4.017,4.0398,4.0852,4.13,4.153,4.1932,4.2464,0.0,0.0,0.0,0.0,0.0,0.0,0.0,0.0,0.0,0.0,0.0,0.0,0.0,0.0,0.0,0.0,0.0,0.0,2.9828,2.988,3.038,3.1534,3.265,3.366,3.4774,3.6374,3.7364,3.778,3.8453,3.8262,3.7156,3.6122,3.5617,3.5617,3.5617,3.5617,3.5617,3.5617,3.5328,3.4799,3.4799,3.4799,3.4799,0.0,0.0,0.0,0.0,0.0,0.0,0.0,3.4775,3.4775,3.4775,3.4775,3.4775,3.4775,3.4414,3.3886,3.3428,3.3308,3.3308,3.3308,3.4487,3.6194,3.8334,3.8815,3.9128,4.0186,4.0403,4.0202,3.9364,3.9847,4.0347,4.0044,4.2431,4.4261,0.0,0.0,0.0,0.0,0.0,0.0,0.0,0.0,0.0,0.0,0.0,0.0,0.0,0.0,0.0,0.0,4.1172,4.1172,4.1172,4.1172,4.1172,4.1172,4.0643,4.0813,4.1582,4.1352,4.1107,4.0835,4.0849,4.0438,3.973,3.9972,3.9807,3.9384,4.0195,4.0852,4.1351,4.1957,4.2564,4.2961,0.0,0.0,0.0,0.0,0.0,0.0,0.0,0.0,0.0,0.0,0.0,0.0,0.0,0.0,0.0,0.0,0.0,0.0,2.9828,2.9217,2.9618,3.1534,3.1869,3.274,3.4216,3.5434,3.6855,3.8485,3.8724,3.807,3.6627,3.6314,3.5978,3.5641,3.6002,3.617,3.6146,3.5785,3.5737,3.5905,3.5521,3.5376,3.5376,0.0,0.0,0.0,0.0,0.0,0.0,0.0,0.0,0.0,3.4775,3.4775,3.4703,3.4342,3.4366,3.439,3.3525,3.4366,3.54,3.5016,3.6122,3.7637,3.9056,3.9369,3.9681,4.0739,4.1244,4.1133,3.9744,4.029,4.0965,4.0853,4.2169,0.0,0.0,0.0,0.0,0.0,0.0,0.0,0.0,0.0,0.0,0.0,0.0,0.0,0.0,0.0,0.0,0.0,4.0812,4.0812,4.1172,4.0451,4.0258,4.0619,4.009,4.017,4.0765,4.0289,4.0158,4.022,3.9848,3.9692,3.9705,3.9575,3.9683,3.9882,3.9919,4.0501,4.13,4.153,4.1932,4.2514,0.0,0.0,0.0,0.0,0.0,0.0,0.0,0.0,0.0,0.0,2.8301,2.8301,0.0,0.0,0.0,0.0,0.0,0.0,0.0,3.038,3.0845,3.2196,3.2246,3.2774,3.3986,3.5468,3.6649,3.7541,3.7757,3.7252,3.6098,3.6314,3.6242,3.5954,3.6699,3.6795,3.6386,3.6074,3.6002,3.6074,3.5737,3.5617,3.5617,0.0,0.0,0.0,0.0,0.0,0.0,0.0,0.0,0.0,3.4775,3.4775,3.4727,3.439,3.4679,3.4968,3.4126,3.5136,3.6386,3.6266,3.73,3.8599,3.9681,4.0571,4.1413,4.2254,4.2519,4.2362,4.1538,4.1456,0.0,4.1948,0.0,0.0,0.0,0.0,0.0,0.0,0.0,0.0,0.0,0.0,0.0,0.0,0.0,0.0,0.0,0.0,0.0,0.0,4.0355,4.0234,4.0547,3.9922,3.9753,4.0066,3.9537,3.9465,3.9753,3.9441,3.9382,3.9498,3.8965,3.8907,3.9173,3.9146,3.93,3.9572,3.9892,4.0425,4.1,4.12,4.1681,4.2263,0.0,0.0,2.8281,2.8242,0.0,0.0,0.0,0.0,0.0,0.0,2.8301,2.8301,0.0,0.0,0.0,0.0,0.0,0.0,0.0,3.2297,3.2851,3.3051,3.3097,3.3449,3.4208,3.5888,3.6374,3.5617,3.6146,3.6122,3.5569,3.6194,3.6459,3.6459,3.7517,3.7421,3.6459,3.6362,3.6122,3.5761,3.5713,3.5689,3.5689,3.5689,0.0,0.0,0.0,0.0,0.0,0.0,0.0,0.0,3.4775,3.4775,3.4775,3.4775,3.516,3.5449,3.4967,3.5641,3.6555,3.7132,3.8166,3.9296,4.0306,4.2038,4.3553,4.3901,4.3818,4.3723,4.3869,4.2842,4.2276,4.3044,0.0,0.0,0.0,0.0,0.0,0.0,0.0,0.0,0.0,0.0,0.0,0.0,0.0,0.0,0.0,0.0,0.0,4.0306,3.9801,3.9561,3.9609,3.9513,3.9489,0.0,3.8984,3.8743,3.8743,3.8743,3.8743,3.8719,3.819,3.8157,3.8368,3.8631,3.8736,3.889,3.9962,4.0398,4.0448,4.1,4.158,4.2062,0.0,0.0,2.8184,2.7851,0.0,0.0,0.0,0.0,0.0,0.0,0.0,0.0,0.0,0.0,0.0,0.0,0.0,0.0,0.0,2.967,3.0141,3.1869,3.2244,3.3492,3.5839,3.4142,3.4062,3.5617,3.6146,3.593,3.4967,3.6386,3.6795,3.6459,3.7517,3.7637,3.6964,3.6146,3.6194,3.6819,3.6411,3.6242,3.6242,3.6242,0.0,0.0,0.0,0.0,0.0,0.0,0.0,0.0,3.4775,3.4775,3.4775,3.4775,3.4847,3.5015,3.5352,3.5905,3.6627,3.7589,3.9248,4.0836,4.1485,4.2303,4.2711,4.2014,4.3096,4.3914,4.3192,4.2458,4.2193,0.0,0.0,0.0,0.0,0.0,0.0,0.0,0.0,0.0,0.0,0.0,0.0,0.0,0.0,0.0,0.0,0.0,0.0,3.9777,3.9272,3.9176,3.9609,3.8743,3.8551,0.0,3.8431,3.8166,3.8166,3.8166,3.8166,3.8166,3.8046,3.8027,3.808,3.8368,3.8473,3.8579,3.9278,3.9536,3.9663,4.0395,4.0777,4.0927,0.0,0.0,0.0,0.0,0.0,0.0,0.0,0.0,0.0,0.0,0.0,0.0,0.0,2.8301,0.0,0.0,2.9112,2.9513,3.0639,3.0193,3.0245,3.1083,3.211,3.3301,3.4745,3.467,3.4904,3.5617,3.5881,3.5617,3.4871,3.6459,3.6916,3.6459,3.7517,3.7541,3.6771,3.5954,3.593,3.6411,3.6146,3.6026,3.6026,3.6026,3.5521,3.4775,3.4775,0.0,0.0,0.0,0.0,0.0,0.0,0.0,3.4775,3.4775,3.4967,3.5328,3.5857,3.6386,3.7156,3.8743,4.0162,4.1389,4.2217,4.2434,4.2362,4.2014,4.2832,4.3409,4.2916,4.2602,4.2506,0.0,0.0,0.0,0.0,0.0,0.0,0.0,0.0,0.0,0.0,0.0,0.0,0.0,0.0,0.0,0.0,3.9248,3.896,3.9224,3.8695,3.8551,3.8815,3.8262,3.8118,3.8407,3.8118,3.7974,3.7974,3.7974,3.7974,3.7974,3.7974,3.7974,3.8027,3.8291,3.8421,3.8473,3.905,3.931,3.936,3.9919,4.03,4.0551,0.0,0.0,0.0,0.0,0.0,0.0,0.0,0.0,0.0,0.0,0.0,0.0,0.0,2.8301,2.8301,0.0,0.0,0.0,3.097,3.1206,3.1163,3.0914,3.2232,3.3206,3.3701,3.5678,3.6422,3.5761,3.5761,3.5473,3.4943,3.6483,3.6916,3.6435,3.7421,3.7252,3.6242,3.5713,3.5545,3.5617,3.5617,3.5617,3.5617,3.5617,3.528,3.4775,3.4775,3.4775,3.4775,3.4775,0.0,0.0,0.0,0.0,3.4775,3.4775,3.5087,3.5593,3.6122,3.6795,3.7805,3.9777,4.0595,4.1196,4.2313,4.2086,4.1904,4.2434,4.2627,4.2699,4.2795,4.2675,0.0,0.0,0.0,0.0,0.0,0.0,0.0,0.0,0.0,0.0,0.0,0.0,0.0,0.0,0.0,0.0,3.9465,3.8527,3.819,3.8671,3.8214,3.7974,3.7974,3.7974,3.7974,3.7974,3.7974,3.7974,3.7974,3.7974,3.7974,3.7974,3.7974,3.7974,3.8027,3.8262,3.8368,3.8473,3.8998,3.9258,3.931,3.9594,3.9973,4.0375,0.0,0.0,0.0,0.0,0.0,0.0,0.0,0.0,0.0,0.0,2.8301,2.8301,2.8301,2.8301,2.8301,2.8301,2.8441,2.8601,2.8761,0.0,0.0,3.2106,3.2245,3.366,3.6569,3.5515,3.5362,3.629,3.629,3.6026,3.5545,3.6675,3.6916,3.6435,3.7036,3.6723,3.5689,3.5111,3.5208,3.5617,3.5617,3.5617,3.5617,3.5617,3.528,3.4775,3.4775,3.4775,3.4775,3.4775,3.4775,0.0,0.0,0.0,3.4775,3.4775,3.4823,3.4991,3.5569,3.6771,3.8166,3.9417,3.9753,4.009,4.1148,4.098,4.0763,4.1293,4.1749,4.2265,4.2723,0.0,0.0,0.0,0.0,0.0,0.0,0.0,0.0,0.0,0.0,0.0,0.0,0.0,0.0,0.0,0.0,0.0,3.8912,3.8334,3.8022,3.8094,3.8022,3.7974,3.7974,3.7974,3.7974,3.7974,3.7974,3.7974,3.7974,3.7974,3.7974,3.7974,3.7974,3.7974,3.7974,3.8027,3.821,3.8421,3.8736,3.905,3.931,3.9594,3.9747,3.9798,0.0,0.0,0.0,0.0,0.0,0.0,0.0,0.0,0.0,0.0,0.0,2.8301,2.8301,2.8301,2.8301,2.8301,2.8301,2.8548,2.9164,3.1102,3.2222,3.2285,3.3176,3.4295,3.5718,3.5662,3.5734,3.5954,3.6266,3.629,3.6074,3.6843,3.706,3.6867,3.7084,3.6771,3.6026,3.5497,3.5232,3.5184,3.5184,3.5184,3.5184,3.5184,3.504,3.4775,3.4775,3.4775,3.4775,3.4775,3.4775,3.4775,3.4775,0.0,0.0,0.0,3.4775,3.4895,3.5473,3.6771,3.8094,3.8575,3.9369,4.0162,4.0643,4.0571,4.0547,4.1076,4.1124,4.1244,4.1774,0.0,0.0,0.0,0.0,0.0,0.0,0.0,0.0,0.0,0.0,0.0,0.0,0.0,0.0,0.0,0.0,3.8671,3.8359,3.8118,3.7974,3.7974,3.7974,3.7974,3.7974,3.7974,3.7974,3.7974,3.7974,3.7974,3.7974,3.7974,3.7974,3.7974,3.7974,3.7974,3.7974,3.7974,3.8133,3.8421,3.8684,3.8893,3.905,3.9362,3.949,3.9515,0.0,0.0,0.0,0.0,0.0,0.0,0.0,0.0,0.0,0.0,0.0,2.8301,2.8301,0.0,0.0,0.0,2.8708,2.9164,3.0276,3.2251,3.309,3.245,3.3708,3.4549,3.4871,3.5714,3.6002,3.5617,3.6146,3.6411,3.6411,3.694,3.7252,3.7397,3.7252,3.6892,3.6362,3.5833,3.54,3.4967,3.4823,3.4775,3.4775,3.4775,3.4775,3.4775,3.4775,3.4871,3.4967,3.4823,3.4871,3.4992,3.4823,3.4775,0.0,0.0,0.0,3.4895,3.5473,3.6483,3.7469,3.7878,3.8791,3.9681,4.009,4.009,4.0138,0.0,4.0475,4.0306,0.0,0.0,0.0,0.0,0.0,0.0,0.0,0.0,0.0,0.0,0.0,0.0,0.0,0.0,0.0,0.0,0.0,3.8431,3.7998,3.7974,3.7974,3.7974,3.7974,3.7974,3.7974,3.7974,3.7974,3.7974,3.7974,3.7974,3.7974,3.7974,3.7974,3.7974,3.7974,3.7974,3.7974,3.7974,3.8133,3.8421,3.8631,3.8736,3.8841,3.905,3.9154,3.9203,0.0,0.0,0.0,0.0,0.0,0.0,0.0,0.0,0.0,0.0,0.0,2.8301,2.8301,2.8301,2.8708,2.9723,2.9828,3.0276,3.1432,3.1659,3.2167,3.3097,3.322,0.0,3.5491,3.5615,3.5641,3.5617,3.6146,3.6411,3.6411,3.694,3.7469,3.7926,3.7421,3.6892,3.6362,3.5833,3.5593,3.5521,3.4991,3.4775,3.4775,3.4775,3.4775,3.4775,3.4775,3.516,3.5497,3.4943,3.516,3.5497,3.4943,3.4775,3.4775,0.0,0.0,0.0,3.5473,3.5689,3.6098,3.7613,3.7661,3.7757,3.9296,3.9272,3.9056,3.9585,3.9657,3.9657,0.0,0.0,0.0,0.0,0.0,0.0,0.0,0.0,0.0,0.0,0.0,0.0,0.0,0.0,0.0,0.0,0.0,3.8022,3.7974,3.7974,3.7974,3.7974,3.7974,3.7974,3.7974,3.7974,3.7974,3.7974,3.7974,3.7974,3.7974,3.7974,3.7974,3.7974,3.7974,3.7974,3.7974,3.7974,3.8133,3.8421,3.8421,3.8579,3.8788,3.8841,3.8841,3.8841,0.0,0.0,0.0,0.0,0.0,0.0,0.0,0.0,0.0,0.0,0.0,0.0,0.0,2.8301,2.8441,2.8847,3.0193,3.1154,3.1586,3.3543,3.4384,3.3756,3.4715,3.536,3.5567,3.528,3.5112,3.5112,3.5641,3.5905,3.593,3.6795,3.73,3.7493,3.7637,3.7397,3.6892,3.6723,3.6435,3.6098,3.5905,3.5833,3.5833,3.5833,3.5833,3.5881,3.6218,3.6459,3.6651,3.6795,3.6531,3.6098,3.5905,3.5376,3.4775,3.4775,3.4775,3.4823,3.5015,3.5352,3.5761,3.6314,3.6819,3.7348,3.7926,3.8166,3.8431,3.8984,3.9104,0.0,0.0,0.0,0.0,0.0,0.0,0.0,0.0,0.0,0.0,0.0,0.0,0.0,0.0,0.0,0.0,0.0,0.0,0.0,3.7974,3.7974,3.7974,3.7974,3.7974,3.7974,3.7974,3.7974,3.7974,3.7974,3.7974,3.7974,3.7974,3.7974,3.7974,3.7974,3.7974,3.7974,3.7974,3.7974,3.8133,3.8421,3.8421,3.8473,3.8526,3.8526,3.8526,3.8627,0.0,0.0,0.0,2.7591,0.0,2.7969,2.8262,2.8301,2.8441,2.8794,0.0,0.0,0.0,0.0,2.9006,2.9375,3.141,3.27,3.27,3.4816,3.558,3.4333,3.5482,3.5881,3.5352,3.4967,3.4775,3.4775,3.5184,3.5449,3.5641,3.6338,3.6771,3.694,3.73,3.7445,3.7469,3.7469,3.7156,3.6651,3.6483,3.6411,3.6411,3.6603,3.6675,3.6771,3.7493,3.7733,3.7781,3.8142,3.7661,3.6867,3.6507,3.5689,3.4775,3.4775,3.4775,3.4775,3.4775,3.5039,3.54,3.5569,3.6146,3.6723,3.6892,3.7348,3.7829,3.819,3.8407,0.0,0.0,0.0,0.0,0.0,0.0,0.0,0.0,0.0,0.0,0.0,0.0,0.0,0.0,0.0,0.0,0.0,0.0,0.0,3.7974,3.7974,3.7974,3.7974,3.7974,3.7974,3.7974,3.7974,3.7974,3.7974,3.7974,3.7974,3.7974,3.7974,3.7974,3.7974,3.7974,3.7974,3.7974,3.7974,3.808,3.8262,3.8262,3.8262,3.8262,3.8262,3.8262,3.8311,0.0,2.6738,2.7148,2.7598,2.8027,2.8301,2.8301,2.8301,2.8654,2.9723,0.0,0.0,0.0,0.0,0.0,3.1534,3.3549,3.4726,3.4726,3.5279,3.5327,3.4823,3.5303,3.5376,3.4799,3.4799,3.4799,3.4799,3.4799,3.5039,3.5617,3.5617,3.5881,3.6386,3.6435,3.7012,3.7926,3.795,3.7685,3.7204,3.6699,3.6507,3.6579,3.7108,3.73,3.7445,3.8527,3.8912,3.8912,3.8912,3.8527,3.7829,3.6723,3.5665,3.4775,3.4775,3.4775,3.4775,0.0,0.0,0.0,3.5473,3.5593,3.5737,3.6266,3.6771,3.7156,3.718,3.7589,0.0,0.0,0.0,0.0,0.0,0.0,0.0,0.0,0.0,0.0,0.0,0.0,0.0,0.0,0.0,0.0,0.0,0.0,3.7974,3.7974,3.7974,3.7974,3.7974,3.7974,3.7974,3.7974,3.7974,3.7974,3.7974,3.7974,3.7974,3.7974,3.7974,3.7974,3.7974,3.7974,3.7974,3.7974,3.7974,3.7974,3.7974,3.7998,3.7998,3.7998,3.7998,3.7998,3.7998,2.6699,2.6934,2.7246,2.7988,2.8223,2.8301,2.8301,2.8301,2.8388,0.0,0.0,0.0,2.9932,3.0639,3.1564,3.265,3.33,3.3671,3.3671,3.4859,3.5196,3.4256,3.5123,3.5545,3.54,3.4967,3.4967,3.54,3.4967,3.5039,3.5617,3.5617,3.5689,3.5881,3.7036,3.7276,3.6867,3.7252,3.7781,3.8383,3.8623,3.896,3.9345,3.9874,4.009,4.0162,4.086,4.11,4.11,4.11,4.0234,3.8767,3.6531,3.5376,3.4775,3.4775,3.4775,3.4775,3.4775,0.0,0.0,0.0,0.0,0.0,3.5713,3.5954,3.6266,3.7036,3.73,0.0,0.0,0.0,0.0,0.0,0.0,0.0,0.0,0.0,0.0,0.0,0.0,0.0,0.0,0.0,0.0,0.0,3.7974,3.7974,3.7974,3.7974,3.7974,3.7974,3.7974,3.7974,3.7974,3.7974,3.7974,3.7974,3.7974,3.7974,3.7974,3.7974,3.7974,3.7974,3.7974,3.7974,3.7974,3.7974,3.7974,3.8022,3.8431,3.8599,3.8599,3.8599,3.8599,3.8527,2.6621,2.6894,2.7226,2.791,2.8184,2.8441,2.89,2.8953,2.9323,0.0,0.0,0.0,3.1308,3.1869,3.2549,3.3151,3.3598,3.3869,3.3869,3.4958,3.5199,3.4363,3.5149,3.5521,3.5304,3.4943,3.4919,3.528,3.4919,3.4943,3.528,3.528,3.528,3.5328,3.6266,3.6435,3.6122,3.6651,3.7493,3.8503,3.9056,3.9585,4.0138,4.0908,4.1172,4.1317,4.2279,4.2471,4.2303,4.2303,4.11,3.9224,3.6988,3.5905,3.5449,3.5232,3.4992,3.4775,3.4775,3.4775,3.4775,3.4775,0.0,0.0,3.5208,3.5449,3.5857,0.0,3.6867,0.0,0.0,0.0,0.0,0.0,0.0,0.0,0.0,0.0,0.0,0.0,0.0,0.0,0.0,0.0,0.0,3.7974,3.7974,3.7974,3.7974,3.7974,3.7974,3.7974,3.7974,3.7974,3.7974,3.7974,3.7974,3.7974,3.7974,3.7974,3.7974,3.7974,3.7974,3.7974,3.7974,3.7974,3.7998,3.8238,3.8334,3.8359,3.8695,3.8815,3.8815,3.8815,3.8671,3.8431,0.0,2.6859,2.7412,2.7786,2.8364,2.9086,3.0047,3.0203,3.0879,0.0,3.3147,3.325,3.335,3.335,3.335,3.335,3.4262,3.4775,3.4775,3.528,3.5328,3.4799,3.528,3.5304,3.4799,3.4775,3.4799,3.4871,3.4799,3.4799,3.4871,3.4847,3.4775,3.4775,3.4847,3.5136,3.5569,3.6218,3.7036,3.7974,3.8767,3.9441,4.0066,4.1124,4.1533,4.1725,4.3096,4.3289,4.2867,4.2627,4.122,3.9345,3.7781,3.6916,3.6411,3.593,3.5376,3.4871,3.4871,3.4823,3.4775,3.4775,3.4775,0.0,3.4895,3.5232,3.5689,3.629,3.6362,0.0,0.0,0.0,0.0,0.0,0.0,0.0,0.0,0.0,0.0,0.0,0.0,0.0,0.0,3.7974,3.7974,3.7974,3.7974,3.7974,3.7974,3.7974,3.7974,3.7974,3.7974,3.7974,3.7974,3.7974,3.7974,3.7974,3.7974,3.7974,3.7974,3.7974,3.7974,3.7974,3.7974,3.7974,3.8022,3.8527,3.8719,3.8743,3.8864,3.8864,3.8815,3.8815,3.8503,3.807,2.6367,2.7733,2.886,2.8942,3.0453,3.1684,3.1893,3.1893,3.2049,3.2517,3.2949,3.3499,3.436,3.4482,3.4482,3.4482,3.4677,3.4775,3.4775,3.4919,3.4895,3.4775,3.4871,3.4944,3.4775,3.4775,3.504,3.5449,3.504,3.4991,3.5449,3.4967,3.4775,3.4799,3.528,3.528,3.5064,3.6459,3.7156,3.7541,3.9801,4.1293,4.2254,4.3337,4.366,4.3708,4.4021,4.3842,4.312,4.1413,4.0306,3.9393,0.0,0.0,0.0,3.6916,3.6218,3.5449,3.5449,3.516,3.4775,0.0,0.0,0.0,3.5376,3.5208,3.5256,0.0,3.6074,0.0,0.0,0.0,0.0,0.0,0.0,0.0,0.0,0.0,0.0,0.0,0.0,0.0,0.0,3.7974,3.7974,3.7974,3.7974,3.7974,3.7974,3.7974,3.7974,3.7974,3.7974,3.7974,3.7974,3.7974,3.7974,3.7974,3.7974,3.7974,3.7974,3.7974,3.7974,3.7974,3.7974,3.7974,3.7998,3.8094,3.8142,3.8238,3.9104,3.92,3.8815,3.8815,3.8743,3.8647,2.7862,2.8462,2.9132,2.9968,3.0931,3.1918,3.3012,3.3167,3.3372,3.3958,3.3973,3.4213,3.4726,3.4775,3.4775,3.4775,3.4775,3.4775,3.4775,3.4775,3.4775,3.4775,3.4775,3.4895,3.5208,3.5232,3.5352,3.5617,3.5352,3.5232,3.5208,3.4895,3.4775,3.4799,3.5112,3.5064,3.4944,3.6531,3.7348,3.7781,3.9922,4.1268,4.211,4.3433,4.3938,4.3962,4.4189,4.3925,4.3265,4.1701,4.0836,0.0,3.9128,3.8238,3.7589,0.0,3.6843,3.6002,0.0,0.0,0.0,3.5617,0.0,0.0,0.0,3.5208,3.5015,3.5857,3.5593,3.5327,0.0,0.0,0.0,0.0,0.0,0.0,0.0,0.0,0.0,0.0,0.0,0.0,0.0,3.7974,3.7974,3.7974,3.7974,3.7974,3.7974,3.7974,3.7974,3.7974,3.7974,3.7974,3.7974,3.7974,3.7974,3.7974,3.7974,3.7974,3.7974,3.7974,3.7974,3.7974,3.7974,3.7974,3.7998,3.8286,3.8238,3.807,3.8888,3.9056,3.8815,3.8815,3.8647,3.8407,2.9478,2.937,2.9664,3.0976,3.1563,3.2372,3.406,3.4407,3.4711,3.5348,3.5184,3.4967,3.5112,3.5087,3.5207,3.5519,3.5255,3.5184,3.528,3.5039,3.4944,3.4775,3.4775,3.4967,3.5449,3.5473,3.5473,3.5473,3.5473,3.5256,3.4775,3.4775,3.4775,3.4775,3.4944,3.504,3.5232,3.6723,3.7661,3.8286,4.0018,4.0884,4.1365,4.2904,4.3385,4.3265,4.3721,4.3601,4.3048,4.2014,4.1461,4.1004,3.9946,3.9008,0.0,0.0,0.0,0.0,0.0,0.0,0.0,0.0,0.0,3.5617,0.0,0.0,0.0,0.0,0.0,0.0,0.0,0.0,0.0,0.0,0.0,0.0,0.0,0.0,0.0,0.0,0.0,0.0,0.0,3.7926,3.7974,3.7974,3.7974,3.7974,3.7974,3.7974,3.7974,3.7974,3.7974,3.7974,3.7974,3.7974,3.7974,3.7974,3.7974,3.7974,3.7974,3.7974,3.7974,3.7974,3.7974,3.7974,3.8022,3.8479,3.8383,3.8046,3.8599,3.8743,3.8671,3.8671,3.8359,3.8022,2.9761,3.0845,3.2033,3.2345,3.4263,3.5666,3.5415,3.58,3.5827,3.4991,3.528,3.5713,3.617,3.6218,3.6795,3.8238,3.706,3.6435,3.6892,3.605,3.5328,3.4799,3.4775,3.4799,3.4871,3.4871,3.4871,3.4871,3.4871,3.4847,3.4775,3.4775,3.4775,3.4799,3.5328,3.5785,3.629,3.7421,3.8214,3.8912,4.0956,4.1557,4.1365,4.2904,4.2952,4.2158,4.2206,4.2206,4.199,0.0,4.0836,4.1004,0.0,3.9513,3.932,3.8864,0.0,0.0,0.0,0.0,0.0,0.0,3.6002,0.0,0.0,0.0,3.4799,3.4847,0.0,0.0,0.0,0.0,0.0,0.0,0.0,0.0,0.0,0.0,0.0,0.0,0.0,0.0,0.0,0.0,3.7974,3.7974,3.7974,3.7974,3.7974,3.7974,3.7974,3.7974,3.7974,3.7974,3.7974,3.7974,3.7974,3.7974,3.7974,3.7974,3.7974,3.7974,3.7974,3.7974,3.7974,3.7974,3.7998,3.8046,3.8046,3.8046,3.8599,3.8503,3.807,3.807,3.8046,3.8118,3.1786,3.1826,3.2358,3.3642,3.4487,3.5129,3.5541,3.5809,3.5689,3.4919,3.4967,3.5473,3.6314,3.6122,3.6579,3.819,3.7421,3.7084,3.7613,3.6651,3.6242,3.6651,3.5473,3.5256,3.617,3.5593,3.528,3.528,3.528,3.5087,3.4775,3.4775,3.4943,3.5304,3.5833,3.6362,3.6964,3.8334,3.8888,3.8984,4.0787,4.1196,4.0956,4.3168,4.3721,4.3361,4.3361,4.3144,4.276,0.0,4.1509,0.0,0.0,0.0,0.0,3.9248,0.0,0.0,0.0,0.0,0.0,0.0,0.0,0.0,3.6603,0.0,3.528,0.0,0.0,0.0,0.0,0.0,0.0,0.0,3.4895,0.0,0.0,0.0,0.0,0.0,0.0,0.0,0.0,0.0,0.0,0.0,0.0,3.7853,3.7541,3.7805,3.7974,3.7974,3.7974,3.7974,3.7974,3.7974,3.7974,3.7974,3.7974,3.7974,3.7974,3.7974,3.7974,3.7974,3.7974,3.7974,3.7974,3.7974,3.7974,3.7998,3.8238,3.819,3.7974,3.7974,3.819,3.8527,3.338,3.2842,3.2815,3.451,3.4589,3.4692,3.5468,3.5497,3.5256,3.4823,3.5088,3.5665,3.6723,3.7012,3.7781,3.9369,3.9008,3.8815,3.9056,3.7805,3.7348,3.795,3.6362,3.6026,3.7156,3.629,3.5761,3.5617,3.5473,3.5352,3.5256,3.4968,3.5256,3.6074,3.6459,3.7012,3.7733,3.92,3.9777,3.9777,4.0932,4.1244,4.122,4.2856,4.3649,4.3866,4.3577,4.3216,4.2808,4.2447,4.1822,0.0,4.1004,0.0,3.9296,0.0,0.0,0.0,3.8912,0.0,0.0,0.0,0.0,0.0,0.0,0.0,0.0,0.0,0.0,0.0,0.0,0.0,3.4727,3.4992,0.0,3.4751,0.0,0.0,0.0,0.0,0.0,0.0,0.0,0.0,0.0,3.6459,3.7252,3.7541,3.7012,3.7469,3.7829,3.7974,3.7974,3.7974,3.7974,3.7974,3.7974,3.7974,3.7974,3.7974,3.7974,3.7974,3.7974,3.7974,3.7974,3.7974,3.7974,3.7974,3.7974,3.7998,3.8142,3.8214,3.8214,3.8214,3.8479,3.8888,3.3862,3.3958,3.4078,3.4679,3.5207,3.5567,3.5617,3.5184,3.4799,3.4775,3.5713,3.6771,3.7805,3.9777,4.1629,4.3192,4.288,4.2434,4.187,3.9898,3.8503,3.7998,3.7421,3.7132,3.7204,3.6651,3.6122,3.5617,3.5112,3.5376,3.6338,3.5304,3.5665,3.7156,3.7156,3.7757,3.8839,3.9922,4.0956,4.187,4.1918,4.2313,4.2651,0.0,4.1918,4.2747,4.1653,0.0,0.0,4.1244,4.122,0.0,0.0,0.0,0.0,0.0,0.0,0.0,0.0,0.0,0.0,3.9465,0.0,0.0,0.0,0.0,3.5761,0.0,0.0,0.0,0.0,0.0,3.617,3.5665,3.5569,0.0,0.0,0.0,0.0,0.0,0.0,0.0,0.0,0.0,0.0,3.6483,3.6916,3.6988,3.6459,3.694,3.7445,3.7974,3.7974,3.7974,3.7974,3.7974,3.7974,3.7974,3.7974,3.7974,3.7974,3.7974,3.7974,3.7974,3.7974,3.7974,3.7974,3.7974,3.7974,3.8046,3.8575,3.8791,3.8791,3.8791,3.8815,3.9032,3.3958,3.427,3.4558,3.4751,3.4919,3.5039,3.5039,3.4895,3.5473,3.7228,3.7781,3.908,4.1894,4.2519,4.3361,4.4972,4.4299,4.3746,4.3553,4.1557,4.0451,4.0619,3.8743,3.7902,3.8262,3.7397,3.6507,3.5617,3.5449,3.5545,3.5857,3.516,3.5497,3.6699,3.7036,3.7805,3.8888,3.9946,4.0595,4.0956,4.1317,4.1774,4.2265,0.0,0.0,4.2771,4.241,4.2014,0.0,4.1701,4.1485,4.1148,4.098,4.0691,4.0355,4.0186,3.9874,0.0,0.0,0.0,3.9898,4.009,0.0,0.0,0.0,0.0,0.0,0.0,0.0,0.0,0.0,3.6411,3.6218,3.5713,3.5617,3.5545,0.0,0.0,0.0,0.0,0.0,0.0,0.0,0.0,0.0,3.5425,3.5857,3.6074,0.0,3.6723,3.7445,3.7974,3.7974,3.7974,3.7974,3.7974,3.7974,3.7974,3.7974,3.7974,3.7974,3.7974,3.7974,3.7974,3.7974,3.7974,3.7974,3.7974,3.7974,3.8046,3.8599,3.9032,3.9393,3.9729,4.009,4.0571,3.427,3.4534,3.4775,3.4775,3.4775,3.4775,3.4775,3.5591,3.6795,3.831,3.9657,4.1389,4.3794,4.4587,4.5357,4.6391,4.6199,4.5621,4.4621,4.3361,4.2399,4.2049,4.0331,3.9489,0.0,0.0,0.0,3.6459,3.5881,3.5905,3.6435,3.5521,3.5785,3.6988,3.7324,3.7853,3.8599,3.985,4.0499,4.0691,4.1052,4.1268,0.0,0.0,4.1846,4.2506,0.0,4.199,4.1701,4.1701,4.1461,4.1172,4.1172,4.0956,4.0667,4.0667,4.0427,4.0234,4.0595,4.0547,0.0,4.0643,3.9729,0.0,3.9537,0.0,0.0,0.0,0.0,0.0,0.0,0.0,3.6723,3.6002,3.5905,3.5569,0.0,3.4823,0.0,0.0,0.0,0.0,0.0,0.0,3.5641,3.4366,3.5112,3.5545,0.0,0.0,3.7252,3.795,3.7974,3.7974,3.7974,3.7974,3.7974,3.7974,3.7974,3.7974,3.7974,3.7974,3.7974,3.7974,3.7974,3.7974,3.7974,3.7974,3.7974,3.8046,3.8815,3.9417,3.9946,4.0475,4.1244,4.211,3.4775,3.4775,3.4775,3.4775,3.4775,3.4775,3.4775,3.7084,3.8623,3.8238,4.1365,4.3673,4.3818,4.6126,4.7666,4.7666,4.8555,4.805,4.5501,4.5197,4.4299,0.0,4.2145,4.1798,4.122,0.0,0.0,0.0,3.6459,3.6459,3.7902,3.6362,3.6459,3.7902,3.795,3.7974,3.8094,3.9681,4.0667,4.1148,4.1172,4.0884,4.0427,4.0427,4.1052,4.187,4.1365,4.1172,4.1172,4.1172,4.1172,4.1172,4.1172,4.1172,4.1172,4.1172,4.1172,4.1172,4.1172,4.0812,4.0547,4.1052,0.0,0.0,0.0,0.0,3.9561,0.0,0.0,0.0,0.0,0.0,0.0,3.6579,3.6362,3.5809,3.4246,0.0,0.0,0.0,0.0,0.0,0.0,3.6819,3.605,3.3549,3.4727,3.5352,0.0,0.0,3.6892,3.795,3.7974,3.7974,3.7974,3.7974,3.7974,3.7974,3.7974,3.7974,3.7974,3.7974,3.7974,3.7974,3.7974,3.7974,3.7974,3.7974,3.7974,3.8094,3.9176,3.997,4.0571,4.11,4.2254,4.3553,3.4775,3.4775,3.4775,3.4775,3.4775,3.4775,3.4775,3.6747,3.8864,4.0715,4.3481,4.6054,4.8026,4.9229,4.9878,4.9878,4.9758,4.9205,4.8147,4.6968,0.0,4.4948,4.3746,4.2687,4.1798,4.0595,3.9537,3.8599,3.7372,3.6988,3.7372,3.6579,3.6411,3.6843,3.7637,3.7974,3.807,3.9296,4.0114,4.0643,4.1028,4.11,4.098,0.0,4.1148,4.1365,4.122,4.1172,4.1172,4.1172,4.1172,4.1172,4.1172,4.1172,4.1172,4.1172,4.1172,4.1172,4.1172,4.1076,4.1004,4.1148,4.0282,3.9609,0.0,0.0,0.0,0.0,0.0,0.0,0.0,0.0,0.0,3.6507,3.5737,3.5088,3.4631,0.0,0.0,3.6098,0.0,0.0,0.0,3.605,3.516,3.4487,3.439,0.0,0.0,0.0,0.0,3.795,3.7974,3.7974,3.7974,3.7974,3.7974,3.7974,3.7974,3.7974,3.7974,3.7974,3.7974,3.7974,3.7974,3.7974,3.7974,3.7974,3.7974,3.8094,3.9176,4.0643,4.2206,4.2735,4.3433,4.4069,3.4775,3.4775,3.4775,3.4775,3.488,3.527,3.6381,3.7781,3.9561,4.2049,4.4828,4.7088,4.8363,4.9806,5.0696,5.0696,5.0407,0.0,4.8459,0.0,0.0,4.5645,4.4708,4.3721,4.2663,4.1172,0.0,3.9513,0.0,3.7445,3.7878,3.7108,3.6627,3.6459,3.7757,3.8094,3.7733,3.9296,4.0114,4.0427,4.0715,4.0836,0.0,4.0836,4.098,4.1172,4.1172,4.1172,4.1172,4.1172,4.1172,4.1172,4.1172,4.1172,4.1172,4.1172,4.1172,4.1172,4.1172,4.1172,4.1172,4.1172,4.0739,4.0427,4.0956,4.0619,4.0138,0.0,0.0,0.0,0.0,0.0,0.0,3.6531,3.5713,3.5184,0.0,0.0,0.0,0.0,3.6483,0.0,0.0,3.5833,3.4895,3.4198,0.0,0.0,0.0,0.0,0.0,3.7613,3.8094,3.8118,3.7637,3.8118,3.8214,3.7974,3.7974,3.7974,3.7974,3.7974,3.7974,3.7974,3.7974,3.7974,3.7998,3.8238,3.8359,3.8503,4.0042,4.1653,4.3144,4.3673,4.4021,4.4285,3.4799,3.4775,3.4799,3.4871,3.5179,3.6309,3.9036,3.9706,0.0,4.2928,0.0,4.7642,4.7185,4.9253,5.0696,5.0696,5.0696,4.9902,4.805,4.8652,4.805,4.5742,4.5317,4.4669,4.3649,4.1629,4.0499,0.0,0.0,3.7709,3.8479,3.7613,3.694,3.6579,3.819,3.8431,3.7733,3.9537,4.0331,4.0403,4.0475,4.0499,4.0499,4.0499,4.0787,4.1172,4.1172,4.1172,4.1172,4.1172,4.1172,4.1172,4.1172,4.1172,4.1172,4.1172,4.1172,4.1172,4.1172,4.1172,4.1172,4.1172,4.1172,4.1293,4.1774,4.187,4.1725,4.1196,4.0715,4.009,0.0,0.0,0.0,3.6483,0.0,0.0,0.0,0.0,0.0,0.0,0.0,0.0,0.0,0.0,0.0,0.0,0.0,0.0,0.0,0.0,0.0,3.73,3.8142,0.0,3.7517,0.0,3.8527,3.819,3.8046,3.7974,3.7974,3.7974,3.7974,3.7974,3.7974,3.8022,3.8118,3.8623,3.8936,3.932,4.1293,4.2663,4.3577,4.4069,4.4285,4.4285,3.4871,3.4775,3.4968,3.54,3.6207,3.8162,4.2158,4.2235,4.2677,4.5086,4.7762,4.9421,4.9325,5.0143,5.0696,5.0696,5.0696,0.0,0.0,0.0,0.0,4.8411,4.6728,4.5285,4.4165,4.2567,4.1052,0.0,0.0,3.7493,3.6843,3.7084,3.7156,3.7132,3.8743,3.9609,3.9826,3.9777,0.0,4.0427,4.086,4.1052,4.1052,4.1052,4.11,4.1172,4.1172,4.1172,4.1172,4.1172,4.1172,4.1172,4.1172,4.1172,4.1172,4.1172,4.1172,4.1172,4.1172,4.1172,4.1172,4.1172,4.1172,4.1196,4.1293,4.1317,4.1172,4.0643,4.0451,4.021,3.9585,0.0,0.0,0.0,0.0,0.0,0.0,0.0,0.0,0.0,0.0,3.7156,0.0,0.0,0.0,0.0,0.0,0.0,0.0,0.0,0.0,0.0,3.7613,0.0,0.0,0.0,3.8527,3.932,3.8407,3.7974,3.7974,3.7974,3.7974,3.7974,3.7974,3.8238,3.8671,3.8767,3.9585,4.0884,4.2193,4.2976,4.3577,4.4069,4.4285,4.4285,3.4823,3.4775,3.5111,3.6242,3.7151,0.0,0.0,4.4325,4.491,4.6508,4.7858,4.8628,4.8628,4.9878,5.06,5.0287,5.0263,5.0046,4.9493,4.8964,4.8435,4.7882,4.6607,4.5285,4.3877,4.2639,4.1317,4.0018,0.0,3.7998,3.7228,3.7493,3.73,3.6867,3.8479,3.9657,4.0403,0.0,0.0,4.0836,4.1076,4.1172,4.1172,4.1172,4.1172,4.1172,4.1172,4.1172,4.1172,4.1172,4.1172,4.1172,4.1172,4.1172,4.1172,4.1172,4.1172,4.1172,4.1172,4.1172,4.1172,4.1172,4.1172,4.1172,4.1172,4.1172,4.1124,4.086,4.0379,3.9826,3.9296,3.831,0.0,0.0,0.0,0.0,0.0,0.0,0.0,0.0,0.0,0.0,0.0,0.0,0.0,0.0,0.0,0.0,0.0,0.0,0.0,0.0,0.0,0.0,0.0,0.0,0.0,3.8743,3.8238,3.8142,3.8407,3.8407,3.8575,3.8815,3.8815,3.9128,3.9681,4.0234,4.122,4.2447,4.2952,4.3481,4.3986,4.4189,4.4285,4.4285,3.5543,3.532,3.5571,3.731,3.8371,4.0283,4.4199,4.5888,4.7042,4.806,4.8074,4.8002,4.8002,4.9421,5.0191,4.9734,4.971,4.9349,4.8507,4.8363,4.7858,4.692,4.6271,4.5213,4.3721,4.2663,4.1581,0.0,0.0,0.0,0.0,3.7878,3.7661,0.0,0.0,0.0,0.0,0.0,4.1076,4.1172,4.1172,4.1172,4.1172,4.1172,4.1172,4.1172,4.1172,4.1172,4.1172,4.1172,4.1172,4.1172,4.1172,4.1172,4.1172,4.1172,4.1172,4.1172,4.1172,4.1172,4.1172,4.1172,4.1172,4.1172,4.1172,4.1172,4.1172,4.1172,4.0427,3.9609,3.908,3.8431,0.0,0.0,0.0,0.0,0.0,0.0,0.0,0.0,0.0,0.0,3.7469,0.0,0.0,0.0,0.0,0.0,0.0,0.0,0.0,0.0,0.0,3.8214,3.7709,0.0,3.8527,0.0,3.8214,3.8383,3.8815,3.8936,3.9272,3.9777,3.9777,4.0138,4.0812,4.187,4.2784,4.3529,4.3649,4.3962,4.4285,4.4285,4.4285,4.4285,3.807,3.7005,3.6466,0.0,0.0,4.1827,4.3636,4.6323,4.8659,5.0215,4.995,4.9638,4.9638,4.9397,4.9205,4.9157,4.9157,4.9109,4.9012,4.8555,4.8026,4.7449,4.6463,4.5342,4.4237,4.3216,4.1942,0.0,0.0,0.0,0.0,0.0,0.0,0.0,0.0,0.0,0.0,4.0643,4.0739,4.1172,4.1172,4.1172,4.1172,4.1172,4.1172,4.1172,4.1172,4.1172,4.1172,4.1172,4.1172,4.1172,4.1172,4.1172,4.1172,4.1172,4.1172,4.1172,4.1172,4.1172,4.1172,4.1172,4.1172,4.1172,4.1172,4.1172,4.1172,4.1172,4.0715,4.0162,3.9633,3.8695,3.7974,0.0,0.0,0.0,0.0,0.0,3.831,3.73,0.0,0.0,0.0,3.8407,0.0,0.0,0.0,0.0,0.0,0.0,0.0,3.7878,0.0,3.7998,3.9369,3.8503,0.0,3.9441,3.896,3.8767,3.8839,3.932,3.9826,4.0331,4.0331,4.0884,4.1918,4.2928,4.3433,4.3553,4.4021,4.4237,4.4285,4.4285,4.4285,4.4285,0.0,0.0,0.0,0.0,0.0,0.0,0.0,4.6006,4.7349,4.8287,4.9032,4.9397,4.9397,4.9205,4.894,4.8628,4.8603,4.8459,4.8147,4.793,4.7449,4.6583,4.615,4.514,4.3433,4.2976,4.199,0.0,0.0,0.0,0.0,0.0,0.0,0.0,0.0,4.0306,4.0715,4.0812,4.098,4.1172,4.1172,4.1172,4.1172,4.1172,4.1172,4.1172,4.1172,4.1172,4.1172,4.1172,4.1172,4.1172,4.1172,4.1172,4.1172,4.1172,4.1172,4.1172,4.1172,4.1172,4.1172,4.1172,4.1172,4.1172,4.1172,4.1172,4.1172,4.1172,4.0763,4.0234,3.9705,3.9248,3.8743,0.0,0.0,0.0,0.0,0.0,0.0,3.6819,0.0,3.8695,0.0,0.0,0.0,0.0,0.0,0.0,0.0,0.0,0.0,3.7974,0.0,3.8142,3.9128,3.8695,3.8864,3.9609,3.9393,3.9633,4.0234,4.0451,4.1028,4.1822,4.2134,4.2495,4.2952,4.3697,4.3949,4.3973,4.4189,4.4285,4.4285,4.4285,4.4285,4.4285,3.7123,0.0,3.7845,0.0,4.0563,4.1234,4.4233,4.514,4.5711,4.6587,4.7051,4.774,4.8752,4.87,4.8459,4.8098,4.805,4.7906,4.7521,4.7353,4.6872,4.5958,4.5766,0.0,4.3265,4.2988,4.2265,4.11,4.0403,0.0,0.0,0.0,0.0,0.0,4.0066,4.0475,4.0643,4.1028,4.1172,4.1172,4.1172,4.1172,4.1172,4.1172,4.1172,4.1172,4.1172,4.1172,4.1172,4.1172,4.1172,4.1172,4.1172,4.1172,4.1172,4.1172,4.1172,4.1172,4.1172,4.1172,4.1172,4.1172,4.1172,4.1172,4.1172,4.1172,4.1172,4.1172,4.0763,4.0282,3.9898,3.9705,3.9345,3.8575,0.0,0.0,0.0,0.0,0.0,0.0,3.7853,3.8575,3.8262,3.8238,0.0,0.0,0.0,0.0,0.0,0.0,0.0,0.0,0.0,0.0,0.0,3.8984,3.932,3.985,4.0138,4.0691,4.1437,4.1725,4.2279,4.3,4.3529,4.3746,4.3794,4.4117,4.4285,4.4285,4.4285,4.4285,4.4285,4.4285,4.4285,4.4285,3.9562,3.8795,3.83,3.9938,4.063,4.1488,4.2962,4.3587,4.4387,4.5897,4.4336,4.4409,4.7949,4.7834,4.7521,4.7521,4.7521,4.7521,4.7497,4.7016,4.6487,0.0,0.0,4.4837,4.4285,4.3289,4.2819,4.2795,0.0,0.0,3.9609,0.0,3.9369,4.0379,4.0379,4.0691,4.1172,4.1172,4.1172,4.1172,4.1172,4.1172,4.1172,4.1172,4.1172,4.1172,4.1172,4.1172,4.1172,4.1172,4.1172,4.1172,4.1172,4.1172,4.1172,4.1172,4.1172,4.1172,4.1172,4.1172,4.1172,4.1172,4.1172,4.1172,4.1172,4.1172,4.1172,4.1172,4.0763,4.0403,4.0379,3.997,3.9609,3.9585,0.0,0.0,0.0,0.0,0.0,0.0,3.9056,3.9946,3.8912,0.0,0.0,0.0,0.0,0.0,0.0,0.0,0.0,3.7228,3.7709,0.0,3.8815,3.9345,3.985,4.0403,4.1437,4.2,4.199,4.3024,4.3481,4.3529,4.4045,4.4285,4.4285,4.4285,4.4285,4.4285,4.4285,4.4285,4.4285,4.4285,4.4285,4.4285,3.811,3.8237,3.8848,4.0318,3.9952,3.9838,4.1368,4.1686,4.1933,4.2428,4.3697,4.4983,4.612,4.6071,4.5978,0.0,4.6941,4.7497,0.0,4.7353,4.6848,4.5958,4.5766,4.4924,4.3289,4.2928,4.2458,4.1677,0.0,0.0,0.0,3.9633,3.9874,3.9874,4.0234,4.0691,4.1172,4.1172,4.1172,4.1172,4.1172,4.1172,4.1172,4.1172,4.1172,4.1172,4.1172,4.1172,4.1172,4.1172,4.1172,4.1172,4.1172,4.1172,4.1172,4.1172,4.1172,4.1172,4.1172,4.1172,4.1172,4.1172,4.1172,4.1172,4.1172,4.1172,4.1172,4.1172,4.1052,4.0812,4.0451,3.997,3.9369,3.8623,3.8214,0.0,0.0,0.0,0.0,0.0,3.7805,3.8214,0.0,3.8238,0.0,0.0,0.0,0.0,0.0,0.0,0.0,0.0,3.8455,0.0,4.0427,4.0595,4.1124,4.2014,4.241,4.2687,4.3048,4.377,4.4021,4.4021,4.4213,4.4285,4.4285,4.4285,4.4285,4.4285,4.4285,4.4285,4.4285,4.4285,4.4285,4.4285,3.7109,3.7617,3.8413,3.9555,3.895,3.8865,4.0565,4.032,4.033,4.1278,4.2492,4.346,4.3849,4.4367,0.0,4.5742,4.6656,4.7112,4.692,4.6728,4.6319,4.5645,4.5429,4.4708,4.3385,0.0,0.0,4.1774,4.1052,4.0355,3.9729,4.0379,4.0523,4.021,4.0547,4.0884,4.1172,4.1172,4.1172,4.1172,4.1172,4.1172,4.1172,4.1172,4.1172,4.1172,4.1172,4.1172,4.1172,4.1172,4.1172,4.1172,4.1172,4.1172,4.1172,4.1172,4.1172,4.1172,4.1172,4.1172,4.1172,4.1172,4.1172,4.1172,4.1172,4.1172,4.1172,4.1172,4.1172,4.1028,4.0499,4.0138,3.9561,3.8479,3.8286,3.7926,3.6843,0.0,0.0,0.0,0.0,0.0,0.0,3.8479,0.0,0.0,0.0,0.0,0.0,0.0,0.0,3.8503,3.8912,0.0,4.1172,4.1389,4.2014,4.3048,4.3265,4.3529,4.3842,4.4117,4.4285,4.4285,4.4285,4.4285,4.4285,4.4285,4.4285,4.4285,4.4285,4.4285,4.4285,4.4285,4.4285,4.4309,3.6719,3.7051,0.0,0.0,3.7969,0.0,4.0381,3.9478,3.941,4.1753,4.0856,4.041,4.1315,4.2749,4.4322,4.6168,0.0,0.0,0.0,4.539,4.5101,4.5077,4.4597,4.4285,4.4189,4.3265,4.2771,4.2699,4.1629,4.1124,4.1124,4.1052,4.1052,4.1124,4.11,4.1124,4.1172,4.1172,4.1172,4.1172,4.1172,4.1172,4.1172,4.1172,4.1172,4.1172,4.1172,4.1172,4.1172,4.1172,4.1172,4.1172,4.1172,4.1172,4.1172,4.1172,4.1172,4.1172,4.1172,4.1172,4.1172,4.1172,4.1172,4.1172,4.1172,4.1172,4.1172,4.1172,4.1172,4.1028,4.0547,4.0427,4.0066,3.9032,3.8839,3.8431,3.7348,0.0,0.0,0.0,0.0,0.0,0.0,3.9272,3.9128,0.0,0.0,0.0,0.0,0.0,3.8695,3.8166,3.9176,4.0234,4.1293,4.1822,4.2567,4.3577,4.4045,4.4285,4.4285,4.4285,4.4285,4.4285,4.4285,4.4285,4.4285,4.4285,4.4285,4.4285,4.4285,4.4285,4.4285,4.4285,4.4285,4.4357,0.0,0.0,3.791,3.834,3.8418,3.8602,3.9044,3.8793,3.8826,3.941,4.0157,4.061,4.0522,4.1816,4.2593,4.2368,4.4677,4.6054,4.5934,4.5814,4.5549,4.5101,4.4957,4.4371,4.3168,4.294,4.2434,4.1557,4.0908,4.0595,4.0571,3.9753,3.9801,4.0571,4.0162,4.0427,4.1172,4.1172,4.1172,4.1172,4.1172,4.1172,4.1172,4.1172,4.1172,4.1172,4.1172,4.1172,4.1172,4.1172,4.1172,4.1172,4.1172,4.1172,4.1172,4.1172,4.1172,4.1172,4.1172,4.1172,4.1172,4.1172,4.1172,4.1172,4.1172,4.1172,4.1172,4.1172,4.1172,4.1148,4.1028,4.0667,4.0186,3.9537,3.908,3.8431,3.7348,3.73,0.0,0.0,3.795,3.8479,3.8791,3.8936,3.8888,0.0,0.0,0.0,0.0,3.9345,3.997,3.9826,4.0475,4.1317,4.2434,4.288,4.3481,4.4093,4.4213,4.4285,4.4285,4.4285,4.4285,4.4285,4.4285,4.4285,4.4285,4.4285,4.4285,4.4285,4.4285,4.4285,4.4285,4.4285,4.4285,4.4309,3.7305,3.748,3.7773,3.8203,3.8281,3.834,3.8555,3.8574,3.8787,3.9218,3.9759,4.0222,4.0451,4.101,4.122,4.0694,4.247,4.3544,4.3313,4.329,4.3432,4.3812,4.3812,4.3725,4.3505,4.3,4.2289,4.1172,4.0643,4.0403,4.0379,3.9561,3.9609,4.0379,4.009,4.0427,4.1172,4.1172,4.1172,4.1172,4.1172,4.1172,4.1172,4.1172,4.1172,4.1172,4.1172,4.1172,4.1172,4.1172,4.1172,4.1172,4.1172,4.1172,4.1172,4.1172,4.1172,4.1172,4.1172,4.1172,4.1172,4.1172,4.1172,4.1172,4.1172,4.1172,4.1172,4.1172,4.1172,4.1028,4.0547,4.0234,3.9777,3.8984,3.8431,3.7878,3.7276,3.7204,0.0,3.7517,3.8238,3.8839,3.9152,3.9393,3.9441,3.92,0.0,0.0,3.908,3.9922,4.0282,4.0042,4.1028,4.1942,4.2819,4.3505,4.3973,4.4285,4.4285,4.4285,4.4285,4.4285,4.4285,4.4285,4.4285,4.4285,4.4285,4.4285,4.4285,4.4285,4.4285,4.4285,4.4285,4.4285,4.4285,4.4357,3.7383,3.7402,3.7519,3.7949,3.8027,3.8144,3.8516,3.8516,3.8754,3.9566,3.9327,3.9357,4.0091,3.9883,3.9625,3.9561,3.9971,4.03,4.0495,4.0732,4.1377,4.2546,4.261,4.3044,4.4045,4.3072,4.2086,4.1172,4.0739,4.0523,4.0499,3.997,4.0018,4.0523,4.0427,4.0691,4.1172,4.1172,4.1172,4.1172,4.1172,4.1172,4.1172,4.1172,4.1172,4.1172,4.1172,4.1172,4.1172,4.1172,4.1172,4.1172,4.1172,4.1172,4.1172,4.1172,4.1172,4.1172,4.1172,4.1172,4.1172,4.1172,4.1172,4.1172,4.1172,4.1172,4.1172,4.1172,4.1172,4.0908,4.0018,3.985,3.9513,3.8503,3.7829,3.7421,3.7324,0.0,3.7469,3.7926,3.9008,3.9729,3.9729,4.0138,4.021,3.9753,3.9729,3.9898,0.0,4.0499,4.0379,3.985,4.1293,4.2375,4.3,4.389,4.4285,4.4285,4.4213,4.4213,4.4285,4.4189,4.4213,4.4285,4.4285,4.4285,4.4285,4.4285,4.4285,4.4285,4.4285,4.4285,4.4285,4.4285,4.4333,4.4525,3.7754,3.7832,3.7969,3.8398,3.8476,3.8496,3.8555,3.8262,3.808,3.8216,3.7893,3.7549,3.739,3.7271,3.7072,3.6714,3.6734,3.8258,4.1783,4.3051,4.3764,4.395,4.3974,4.3668,4.3024,4.1966,4.1341,4.1172,4.11,4.1052,4.1052,4.0523,4.0547,4.1052,4.0595,4.0691,4.1172,4.1172,4.1172,4.1172,4.1172,4.1172,4.1172,4.1172,4.1172,4.1172,4.1172,4.1172,4.1172,4.1172,4.1172,4.1172,4.1172,4.1172,4.1172,4.1172,4.1172,4.1172,4.1172,4.1172,4.1172,4.1172,4.1172,4.1172,4.1172,4.1172,4.1172,4.1172,4.1172,4.1124,4.098,4.0932,4.0739,4.0114,3.92,3.8407,3.7926,0.0,3.7878,3.7974,3.9345,4.0282,4.0282,4.0355,4.0355,4.0282,4.0282,4.0114,3.9753,4.1004,4.1485,4.0956,4.2038,4.312,4.4021,4.4213,4.4285,4.4285,4.3866,4.389,4.4261,4.3866,4.389,4.4285,4.4285,4.4285,4.4285,4.4285,4.4285,4.4285,4.4285,4.4285,4.4285,4.4285,4.4573,4.4981,3.8242,3.8281,3.834,3.8535,3.8379,3.8223,3.8223,3.7871,3.7676,3.7891,3.7363,3.7051,3.7324,3.6953,3.668,3.6699,3.737,3.8527,4.0256,3.9996,4.0192,4.0904,4.0724,4.05,4.0281,4.0442,4.0047,3.9121,4.0229,4.0397,3.9719,3.9849,4.0258,4.0739,4.0499,4.0691,4.1172,4.1172,4.1172,4.1172,4.1172,4.1172,4.1172,4.1172,4.1172,4.1172,4.1172,4.1172,4.1172,4.1172,4.1172,4.1172,4.1172,4.1172,4.1172,4.1172,4.1172,4.1172,4.1172,4.1172,4.1172,4.1172,4.1172,4.1172,4.1172,4.1172,4.1172,4.1172,4.1172,4.11,4.0812,4.0763,4.0379,3.9272,3.8695,0.0,0.0,3.7613,3.8094,3.8407,3.9609,4.0499,4.0787,4.0812,4.0812,4.0812,4.0812,4.0715,4.0475,4.1413,4.187,4.1629,4.2615,4.3553,4.4285,4.4285,4.4141,4.389,4.3877,4.3794,4.3505,4.3818,4.3938,4.3914,4.4165,4.4285,4.4285,4.4285,4.4285,4.4285,4.4285,4.4285,4.4285,4.4285,4.4621,4.5101,3.8574,3.8574,3.8574,3.8574,3.8301,3.8086,3.8086,3.7637,3.7402,3.7734,3.7129,3.6914,3.7559,3.7148,3.6953,3.7266,3.8216,3.8616,3.8269,3.6845,3.6769,3.834,3.7926,3.7784,3.8091,3.8934,3.8709,3.7309,3.8907,3.9254,3.8401,3.9024,3.9714,4.0403,4.0403,4.0691,4.1172,4.1172,4.1172,4.1172,4.1172,4.1172,4.1172,4.1172,4.1172,4.1172,4.1172,4.1172,4.1172,4.1172,4.1172,4.1172,4.1172,4.1172,4.1172,4.1172,4.1172,4.1172,4.1172,4.1172,4.1172,4.1172,4.1172,4.1172,4.1172,4.1172,4.1172,4.1172,4.1172,4.1052,4.0643,4.0571,4.0162,3.8936,0.0,0.0,0.0,3.7926,3.8575,3.9128,4.0018,4.0739,4.1148,4.1172,4.1172,4.1172,4.1293,4.1365,4.1365,4.199,4.2399,4.2519,4.3168,4.3721,4.4093,4.4093,4.3866,4.3337,4.3649,4.3505,4.3012,4.3649,4.3866,4.3721,4.4093,4.4285,4.4285,4.4285,4.4285,4.4285,4.4285,4.4285,4.4285,4.4285,4.4621,4.5149,3.8574,3.8574,3.8574,3.8574,3.8555,3.8535,3.8535,3.7832,3.7305,3.7344,3.6953,3.6699,3.6758,3.7051,3.7266,3.7305,3.7073,3.6907,3.6868,3.6338,3.7011,3.928,3.8557,3.8095,3.8069,3.7692,3.7451,3.7309,3.7445,3.7859,3.8401,3.8436,3.9148,4.0403,4.0403,4.0691,4.1172,4.1172,4.1172,4.1172,4.1172,4.1172,4.1172,4.1172,4.1172,4.1172,4.1172,4.1172,4.1172,4.1172,4.1172,4.1172,4.1172,4.1172,4.1172,4.1172,4.1172,4.1172,4.1172,4.1172,4.1172,4.1172,4.1172,4.1172,4.1172,4.1172,4.1172,4.1172,4.1172,4.1172,4.1124,4.1124,4.1076,4.0956,0.0,0.0,4.0042,3.9753,3.9681,4.021,4.0787,4.1148,4.1172,4.1172,4.1172,4.1172,4.1629,4.1918,4.1918,4.2856,4.3649,4.4093,4.3746,4.3529,4.3577,4.3577,4.3313,4.2867,4.2351,4.2615,4.3433,4.3048,4.3385,4.4213,4.4261,4.4285,4.4285,4.4285,4.4285,4.4285,4.4285,4.4285,4.4285,4.4285,4.4621,4.5149,3.8574,3.8574,3.8574,3.8574,3.8359,3.8164,3.8164,3.7676,3.7383,3.7656,3.7324,3.7266,3.7793,3.7754,3.7793,3.8066,3.7695,3.7344,3.707,3.666,3.657,3.6963,3.6595,3.6211,3.5638,3.6186,3.5956,3.4881,3.652,3.7019,3.6544,3.8154,3.9174,3.9662,4.0516,4.1004,4.1172,4.1172,4.1172,4.1172,4.1172,4.1172,4.1172,4.1172,4.1172,4.1172,4.1172,4.1172,4.1172,4.1172,4.1172,4.1244,4.1581,4.1677,4.1725,4.2062,4.2217,4.2217,4.2217,4.1677,4.1172,4.1172,4.1172,4.1172,4.1172,4.1172,4.1172,4.1172,4.1172,4.1172,4.1172,4.1172,4.098,4.0306,0.0,3.9946,3.9489,3.9801,4.0162,4.0379,4.086,4.1172,4.1172,4.1172,4.1317,4.1653,4.1557,4.1774,4.2482,4.312,4.3601,4.3818,4.3962,4.3866,4.3505,4.3505,4.3265,4.2819,4.3241,4.3313,4.3072,4.3529,4.377,4.3842,4.4141,4.4285,4.4285,4.4285,4.4285,4.4285,4.4285,4.4285,4.4333,4.4645,4.5164,4.5694,3.8574,3.8574,3.8574,3.8574,3.832,3.8125,3.8125,3.7773,3.7598,3.7891,3.7676,3.7676,3.8125,3.8144,3.8203,3.8359,3.7969,3.7598,3.7324,3.6777,3.6152,3.543,3.5254,3.4824,3.4082,3.4939,3.4782,3.3418,3.517,3.5947,3.576,3.7546,3.8811,3.9593,4.0564,4.1028,4.1172,4.1172,4.1172,4.1172,4.1172,4.1172,4.1172,4.1172,4.1172,4.1172,4.1172,4.1172,4.1172,4.1172,4.1293,4.1485,4.1846,4.2145,4.2338,4.2723,4.2819,4.2819,4.2819,4.223,4.1677,4.1677,4.1677,4.1629,4.1461,4.1437,4.1389,4.122,4.1172,4.1172,4.1172,4.1172,4.0956,4.021,4.0403,4.0379,3.9657,4.0186,4.0643,4.0643,4.0956,4.1172,4.1172,4.1172,4.1413,4.1942,4.1629,4.1894,4.2928,4.3481,4.377,4.377,4.3901,4.389,4.3505,4.3505,4.3265,4.2819,4.3505,4.3553,4.3024,4.3746,4.3962,4.3794,4.4117,4.4285,4.4285,4.4285,4.4381,4.4525,4.4525,4.4621,4.4813,4.5261,4.5558,4.6006,3.8574,3.8574,3.8574,3.8574,3.8574,3.8574,3.8574,3.8203,3.793,3.793,3.793,3.7773,3.7344,3.8066,3.8398,3.7969,3.7539,3.7305,3.7285,3.6484,3.584,3.541,3.4961,3.4512,3.4082,3.4082,3.3867,3.3418,3.3418,3.4471,3.6469,3.6469,3.7901,4.0403,4.0403,4.0691,4.1172,4.1172,4.1172,4.1172,4.1172,4.1172,4.1172,4.1172,4.1172,4.1172,4.1196,4.1172,4.1172,4.1196,4.1533,4.1966,4.199,4.241,4.2843,4.2843,4.2843,4.2843,4.2843,4.2843,4.2819,4.2819,4.2819,4.2675,4.2169,4.199,4.1822,4.1293,4.1196,4.1196,4.1172,4.1172,4.1172,4.1172,4.1172,4.1172,4.1196,4.1196,4.1196,4.1196,4.1196,4.1196,4.1196,4.1196,4.1413,4.1942,4.2049,4.2423,4.3457,4.3973,4.4285,4.4285,4.3818,4.3505,4.3505,4.3505,4.3265,4.2819,4.2819,4.3024,4.3529,4.3529,4.3818,4.4285,4.4285,4.4285,4.4285,4.4285,4.4597,4.5077,4.5077,4.5453,4.5934,4.5934,4.5934,4.6006,3.8574,3.8574,3.8574,3.8574,3.8574,3.8574,3.8574,3.8457,3.8379,3.8379,3.8379,3.8223,3.7773,3.8242,3.8281,3.7539,3.7363,3.7051,3.6445,3.6152,3.5957,3.584,3.543,3.498,3.4531,3.4219,3.3867,3.3418,3.3418,3.4218,3.5781,3.6669,3.7926,3.9616,4.0531,4.1028,4.1172,4.0787,4.0643,4.0595,4.0234,4.0306,4.0643,4.0643,4.086,4.122,4.1605,4.1509,4.1293,4.2038,4.2217,4.2086,4.2832,4.3433,4.3866,4.3866,4.3866,4.3866,4.3866,4.3866,4.3697,4.3012,4.2819,4.2771,4.2627,4.2578,4.2434,4.1846,4.1725,4.1629,4.1244,4.1172,4.1172,4.1172,4.1172,4.1317,4.1677,4.1725,4.187,4.2313,4.2338,4.2338,4.2338,4.2338,4.2495,4.3024,4.3409,4.3601,4.3505,4.3973,4.4117,4.377,4.3925,4.3914,4.3505,4.3505,4.3433,4.3289,4.3697,4.3962,4.4045,4.4045,4.4117,4.4285,4.4285,4.4501,4.4837,4.4837,4.5149,4.5694,4.5694,4.579,4.5982,4.6343,4.6487,4.6559,3.8574,3.8437,3.832,3.832,3.8184,3.8125,3.8301,3.8184,3.8184,3.8535,3.8281,3.7969,3.7695,3.791,3.7793,3.7109,3.7051,3.6758,3.6074,3.6016,3.6016,3.6016,3.5449,3.498,3.4707,3.4297,3.3867,3.3418,3.3418,3.434,3.6154,3.6946,3.8268,4.0024,4.0826,4.1293,4.1461,4.0932,4.0526,4.0243,4.0257,4.012,4.0006,4.076,4.122,4.1557,4.2145,4.2086,4.1894,4.2602,4.2687,4.2735,4.3577,4.4021,4.4285,4.4285,4.4285,4.4285,4.4285,4.4285,4.4141,4.3553,4.3385,4.3337,4.312,4.3072,4.2904,4.2458,4.2338,4.2241,4.187,4.1798,4.1798,4.1798,4.1798,4.1976,4.2289,4.2338,4.2458,4.2771,4.2819,4.2819,4.2819,4.2819,4.294,4.3192,4.3914,4.4045,4.3553,4.3973,4.4141,4.3866,4.4117,4.4117,4.3842,4.3842,4.3842,4.3842,4.4117,4.4285,4.4285,4.4285,4.4285,4.4285,4.4501,4.4789,4.5101,4.5293,4.5766,4.6247,4.6247,4.6367,4.6583,4.692,4.7016,4.7064,3.8574,3.8262,3.7988,3.7988,3.7656,3.7539,3.793,3.7656,3.7695,3.8476,3.7851,3.7344,3.7305,3.7305,3.7109,3.666,3.6621,3.6445,3.6035,3.6016,3.6016,3.6016,3.5215,3.4766,3.4766,3.4277,3.3867,3.3535,3.3496,3.4776,3.7236,3.7193,3.8514,4.0874,4.0908,4.1171,4.1625,4.0993,4.0376,3.9799,4.0539,4.0152,3.9403,4.114,4.1931,4.211,4.2699,4.2867,4.2819,4.2867,4.3168,4.3673,4.4117,4.4285,4.4285,4.4285,4.4285,4.4285,4.4285,4.4285,4.4285,4.4285,4.4285,4.4141,4.3697,4.3577,4.3433,4.2928,4.2891,4.2867,4.2819,4.2819,4.2819,4.2819,4.2819,4.2843,4.2891,4.2891,4.2916,4.2964,4.2904,4.2904,4.2904,4.2904,4.2904,4.2904,4.3794,4.4069,4.3601,4.4021,4.4285,4.4285,4.4285,4.4285,4.4285,4.4285,4.4285,4.4285,4.4285,4.4285,4.4285,4.4333,4.4357,4.4381,4.4909,4.5173,4.5245,4.579,4.6295,4.6776,4.6776,4.7064,4.7497,4.7497,4.7497,4.7497,3.8574,3.8496,3.8437,3.8437,3.8359,3.834,3.8418,3.8359,3.8359,3.8555,3.8125,3.7656,3.7324,3.7305,3.6992,3.623,3.6152,3.6113,3.6035,3.6016,3.6016,3.6016,3.5527,3.5234,3.5234,3.4141,3.3848,3.4414,3.4082,3.4979,3.6792,3.6436,3.7117,3.8624,3.8305,3.8417,3.8736,3.7888,3.7621,3.778,3.7555,3.8168,3.9285,4.0029,4.1293,4.2723,4.3168,4.3096,4.2891,4.3216,4.3721,4.4117,4.4237,4.4285,4.4285,4.4285,4.4285,4.4285,4.4285,4.4285,4.4285,4.4285,4.4285,4.4261,4.4141,4.4117,4.3949,4.3457,4.3337,4.3216,4.2891,4.2819,4.2819,4.2819,4.2819,4.2964,4.3289,4.3337,4.3505,4.3901,4.401,4.401,4.401,4.401,4.401,4.401,4.4165,4.4237,4.4117,4.4213,4.4285,4.4285,4.4285,4.4285,4.4285,4.4285,4.4285,4.4285,4.4285,4.4285,4.4309,4.4717,4.4909,4.4933,4.5525,4.5982,4.6391,4.6487,4.6848,4.7329,4.7329,4.7401,4.7497,4.7497,4.7497,4.7497,3.8574,3.8418,3.8262,3.8262,3.8105,3.8027,3.8242,3.8086,3.8105,3.8516,3.8027,3.7617,3.7598,3.7246,3.6738,3.6074,3.6016,3.6016,3.6016,3.6016,3.6016,3.6016,3.5605,3.5488,3.5684,3.4609,3.4258,3.4707,3.4473,3.5187,3.6658,3.643,3.6981,3.8211,3.8033,3.8186,3.8557,3.7597,3.7252,3.7295,3.7205,3.7488,3.8152,3.9254,4.0685,4.2259,4.2776,4.317,4.3553,4.3818,4.4045,4.4285,4.4285,4.4285,4.4285,4.4285,4.4285,4.4285,4.4285,4.4285,4.4285,4.4285,4.4285,4.4285,4.4285,4.4285,4.4213,4.3962,4.3914,4.3842,4.3577,4.3529,4.3529,4.3529,4.3529,4.3601,4.3866,4.3914,4.3949,4.4261,4.4285,4.4285,4.4285,4.4285,4.4285,4.4285,4.4285,4.4285,4.4285,4.4285,4.4285,4.4285,4.4285,4.4285,4.4285,4.4285,4.4405,4.4669,4.4405,4.4429,4.4669,4.4957,4.5197,4.5549,4.6078,4.6463,4.6728,4.6992,4.7257,4.7497,4.7497,4.7497,4.7497,4.7497,4.7497,4.7497,3.8574,3.8223,3.7949,3.8027,3.7617,3.7441,3.7851,3.7637,3.7656,3.8379,3.7851,3.7539,3.7891,3.7168,3.6484,3.6055,3.6016,3.6016,3.6016,3.6016,3.6016,3.6016,3.5684,3.5664,3.6016,3.5293,3.4922,3.4922,3.4844,3.5434,3.6582,3.6521,3.7039,3.8039,3.7953,3.8231,3.868,3.7759,3.7276,3.7188,3.7403,3.7192,3.7037,3.8873,4.0408,4.1758,4.2385,4.3389,4.4285,4.4285,4.4285,4.4285,4.4285,4.4285,4.4285,4.4285,4.4285,4.4285,4.4285,4.4285,4.4285,4.4285,4.4285,4.4285,4.4285,4.4285,4.4285,4.4285,4.4285,4.4285,4.4285,4.4285,4.4285,4.4285,4.4285,4.4285,4.4285,4.4285,4.4285,4.4285,4.4285,4.4285,4.4285,4.4285,4.4285,4.4285,4.4285,4.4285,4.4285,4.4285,4.4285,4.4285,4.4285,4.4285,4.4285,4.4285,4.4549,4.5053,4.4621,4.4693,4.5197,4.5293,4.5645,4.6102,4.6607,4.6848,4.6872,4.7329,4.7497,4.7497,4.7497,4.7497,4.7497,4.7497,4.7497,4.7497,3.8574,3.8223,3.8047,3.8418,3.7832,3.7441,3.7851,3.7871,3.7871,3.7988,3.791,3.7851,3.791,3.7168,3.6484,3.6055,3.6016,3.6016,3.6016,3.6016,3.6016,3.6016,3.5957,3.5957,3.6016,3.5898,3.584,3.584,3.5488,3.5555,3.6091,3.5736,3.5692,3.5805,3.5389,3.5468,3.5931,3.5329,3.5363,3.5705,3.5719,3.6406,3.76,3.9412,4.0944,4.2328,4.3615,4.4161,4.4285,4.4285,4.4285,4.4285,4.4285,4.4285,4.4285,4.4285,4.4285,4.4285,4.4285,4.4285,4.4285,4.4285,4.4285,4.4285,4.4285,4.4285,4.4285,4.4285,4.4285,4.4285,4.4285,4.4285,4.4285,4.4285,4.4285,4.4285,4.4285,4.4285,4.4285,4.4285,4.4285,4.4285,4.4285,4.4285,4.4285,4.4285,4.4285,4.4285,4.4285,4.4285,4.4285,4.4285,4.4285,4.4285,4.4285,4.4285,4.4549,4.5077,4.5005,4.5245,4.5838,4.6295,4.6535,4.6631,4.7161,4.7401,4.7401,4.7473,4.7497,4.7497,4.7497,4.7497,4.7497,4.7497,4.7497,4.7497,3.7851,3.7715,3.7715,3.8144,3.7891,3.7793,3.8223,3.8281,3.8281,3.8281,3.8281,3.8281,3.8281,3.7539,3.6855,3.6426,3.6152,3.6016,3.6016,3.6016,3.6016,3.6016,3.6016,3.6016,3.6016,3.6016,3.6016,3.6016,3.584,3.5723,3.5664,3.5723,3.5625,3.5391,3.543,3.5547,3.5723,3.5273,3.5332,3.5723,3.5488,3.5929,3.673,3.758,3.9233,4.1441,4.3514,4.4285,4.4285,4.4285,4.4285,4.4285,4.4285,4.4285,4.4285,4.4285,4.4285,4.4285,4.4285,4.4501,4.4645,4.4357,4.4501,4.4645,4.4357,4.4285,4.4285,4.4285,4.4285,4.4285,4.4285,4.4285,4.4285,4.4285,4.4285,4.4285,4.4285,4.4285,4.4285,4.4285,4.4285,4.4285,4.4285,4.4285,4.4285,4.4285,4.4285,4.4285,4.4285,4.4285,4.4285,4.4285,4.4285,4.4285,4.4285,4.4285,4.4549,4.5077,4.5366,4.5862,4.6367,4.6607,4.6872,4.7161,4.7401,4.7497,4.7497,4.7497,4.7497,4.7497,4.7497,4.7497,4.7497,4.7497,4.7497,4.7497]}]]